[[{"header":{"parameterUnit":"m.s-1","parameterCategory":1,"la1":30.6,"la2":28.766,"lo1":-90.7593,"lo2":-88.6598,"dy":0.0162,"dx":0.0183,"nx":116,"ny":114,"refTime":"2024-03-01T06:00:00:Z","depth":0,"parameterNumber":2,"parameterNumberName":"U-component_of_WINDS"},"data":[0.0,0.0,0.0,0.0,0.0,0.0,0.0,0.0,0.0,0.0,0.0,0.0,0.0,0.0,0.0,0.0,0.0,0.0,0.0,0.0,0.0,0.0,0.0,0.0,0.0,0.0,0.0,0.0,0.0,0.0,0.0,0.0,0.0,0.0,0.0,0.0,0.0,0.0,0.0,0.0,0.0,0.0,0.0,0.0,0.0,0.0,0.0,0.0,0.0,0.0,0.0,0.0,0.0,0.0,0.0,0.0,0.0,0.0,0.0,0.0,0.0,0.0,0.0,0.0,0.0,0.0,0.0,0.0,0.0,0.0,0.0,0.0,0.0,0.0,0.0,0.0,0.0,0.0,0.0,0.0,0.0,0.0,0.0,0.0,0.0,0.0,0.0,0.0,0.0,0.0,0.0,0.0,0.0,0.0,0.0,0.0,0.0,0.0,0.0,0.0,0.0,0.0,0.0,0.0,0.0,0.0,0.0,0.0,0.0,0.0,0.0,0.0,0.0,0.0,0.0,0.0,0.0,0.0,0.0,0.0,0.0,0.0,0.0,0.0,0.0,0.0,0.0,0.0,0.0,0.0,0.0,0.0,0.0,0.0,0.0,0.0,0.0,0.0,0.0,0.0,0.0,0.0,0.0,0.0,0.0,0.0,0.0,0.0,0.0,0.0,0.0,0.0,0.0,0.0,0.0,0.0,0.0,0.0,0.0,0.0,0.0,0.0,0.0,0.0,0.0,0.0,0.0,0.0,0.0,0.0,0.0,0.0,0.0,0.0,0.0,0.0,0.0,0.0,0.0,0.0,0.0,0.0,0.0,0.0,0.0,0.0,0.0,0.0,0.0,0.0,0.0,0.0,0.0,0.0,0.0,0.0,0.0,0.0,0.0,0.0,0.0,0.0,0.0,0.0,0.0,0.0,0.0,0.0,0.0,0.0,0.0,0.0,0.0,0.0,0.0,0.0,0.0,0.0,0.0,0.0,0.0,0.0,0.0,0.0,0.0,0.0,0.0,0.0,0.0,0.0,0.0,0.0,0.0,0.0,0.0,0.0,0.0,0.0,0.0,0.0,0.0,0.0,0.0,0.0,0.0,0.0,0.0,0.0,0.0,0.0,0.0,0.0,0.0,0.0,0.0,0.0,0.0,0.0,0.0,0.0,0.0,0.0,0.0,0.0,0.0,0.0,0.0,0.0,0.0,0.0,0.0,0.0,0.0,0.0,0.0,0.0,0.0,0.0,0.0,0.0,0.0,0.0,0.0,0.0,0.0,0.0,0.0,0.0,0.0,0.0,0.0,0.0,0.0,0.0,0.0,0.0,0.0,0.0,0.0,0.0,0.0,0.0,0.0,0.0,0.0,0.0,0.0,0.0,0.0,0.0,0.0,0.0,0.0,0.0,0.0,0.0,0.0,0.0,0.0,0.0,0.0,0.0,0.0,0.0,0.0,0.0,0.0,0.0,0.0,0.0,0.0,0.0,0.0,0.0,0.0,0.0,0.0,0.0,0.0,0.0,0.0,0.0,0.0,0.0,0.0,0.0,0.0,0.0,0.0,0.0,0.0,0.0,0.0,0.0,0.0,0.0,0.0,0.0,0.0,0.0,0.0,0.0,0.0,0.0,0.0,0.0,0.0,0.0,0.0,0.0,0.0,0.0,0.0,0.0,0.0,0.0,0.0,0.0,0.0,0.0,0.0,0.0,0.0,0.0,0.0,0.0,0.0,0.0,0.0,0.0,0.0,0.0,0.0,0.0,0.0,0.0,0.0,0.0,0.0,0.0,0.0,0.0,0.0,0.0,0.0,0.0,0.0,0.0,0.0,0.0,0.0,0.0,0.0,0.0,0.0,0.0,0.0,0.0,0.0,0.0,0.0,0.0,0.0,0.0,0.0,0.0,0.0,0.0,0.0,0.0,0.0,0.0,0.0,0.0,0.0,0.0,0.0,0.0,0.0,0.0,0.0,0.0,0.0,0.0,0.0,0.0,0.0,0.0,0.0,0.0,0.0,0.0,0.0,0.0,0.0,0.0,0.0,0.0,0.0,0.0,0.0,0.0,0.0,0.0,0.0,0.0,0.0,0.0,0.0,0.0,0.0,0.0,0.0,0.0,0.0,0.0,0.0,0.0,0.0,0.0,0.0,0.0,0.0,0.0,0.0,0.0,0.0,0.0,0.0,0.0,0.0,0.0,0.0,0.0,0.0,0.0,0.0,0.0,0.0,0.0,0.0,0.0,0.0,0.0,0.0,0.0,0.0,0.0,0.0,0.0,0.0,0.0,0.0,0.0,0.0,0.0,0.0,0.0,0.0,0.0,0.0,0.0,0.0,0.0,0.0,0.0,0.0,0.0,0.0,0.0,0.0,0.0,0.0,0.0,0.0,0.0,0.0,0.0,0.0,0.0,0.0,0.0,0.0,0.0,0.0,0.0,0.0,0.0,0.0,0.0,0.0,0.0,0.0,0.0,0.0,0.0,0.0,0.0,0.0,0.0,0.0,0.0,0.0,0.0,0.0,0.0,0.0,0.0,0.0,0.0,0.0,0.0,0.0,0.0,0.0,0.0,0.0,0.0,0.0,0.0,0.0,0.0,0.0,0.0,0.0,0.0,0.0,0.0,0.0,0.0,0.0,0.0,0.0,0.0,0.0,0.0,0.0,0.0,0.0,0.0,0.0,0.0,0.0,0.0,0.0,0.0,0.0,0.0,0.0,0.0,0.0,0.0,0.0,0.0,0.0,0.0,0.0,0.0,0.0,0.0,0.0,0.0,0.0,0.0,0.0,0.0,0.0,0.0,0.0,0.0,0.0,0.0,0.0,0.0,0.0,0.0,0.0,0.0,0.0,0.0,0.0,0.0,0.0,0.0,0.0,0.0,0.0,0.0,0.0,0.0,0.0,0.0,0.0,0.0,0.0,0.0,0.0,0.0,0.0,0.0,0.0,0.0,0.0,0.0,0.0,0.0,0.0,0.0,0.0,0.0,0.0,0.0,0.0,0.0,0.0,0.0,0.0,0.0,0.0,0.0,0.0,0.0,0.0,0.0,0.0,0.0,0.0,0.0,0.0,0.0,0.0,0.0,0.0,0.0,0.0,0.0,0.0,0.0,0.0,0.0,0.0,0.0,0.0,0.0,0.0,0.0,0.0,0.0,0.0,0.0,0.0,0.0,0.0,0.0,0.0,0.0,0.0,0.0,0.0,0.0,0.0,0.0,0.0,0.0,0.0,0.0,0.0,0.0,0.0,0.0,0.0,0.0,0.0,0.0,0.0,0.0,0.0,0.0,0.0,0.0,0.0,0.0,0.0,0.0,0.0,0.0,0.0,0.0,0.0,0.0,0.0,0.0,0.0,0.0,0.0,0.0,0.0,0.0,0.0,0.0,0.0,0.0,0.0,0.0,0.0,0.0,0.0,0.0,0.0,0.0,0.0,0.0,0.0,0.0,0.0,0.0,0.0,0.0,0.0,0.0,0.0,0.0,0.0,0.0,0.0,0.0,0.0,0.0,0.0,0.0,0.0,0.0,0.0,0.0,0.0,0.0,0.0,0.0,0.0,0.0,0.0,0.0,0.0,0.0,0.0,0.0,0.0,0.0,0.0,0.0,0.0,0.0,0.0,0.0,0.0,0.0,0.0,0.0,0.0,0.0,0.0,0.0,0.0,0.0,0.0,0.0,0.0,0.0,0.0,0.0,0.0,0.0,0.0,0.0,0.0,0.0,0.0,0.0,0.0,0.0,0.0,0.0,0.0,0.0,0.0,0.0,0.0,0.0,0.0,0.0,0.0,0.0,0.0,0.0,0.0,0.0,0.0,0.0,0.0,0.0,0.0,0.0,0.0,0.0,0.0,0.0,0.0,0.0,0.0,0.0,0.0,0.0,0.0,0.0,0.0,0.0,0.0,0.0,0.0,0.0,0.0,0.0,0.0,0.0,0.0,0.0,0.0,0.0,0.0,0.0,0.0,0.0,0.0,0.0,0.0,0.0,0.0,0.0,0.0,0.0,0.0,0.0,0.0,0.0,0.0,0.0,0.0,0.0,0.0,0.0,0.0,0.0,0.0,0.0,0.0,0.0,0.0,0.0,0.0,0.0,0.0,0.0,0.0,0.0,0.0,0.0,0.0,0.0,0.0,0.0,0.0,0.0,0.0,0.0,0.0,0.0,0.0,0.0,0.0,0.0,0.0,0.0,0.0,0.0,0.0,0.0,0.0,0.0,0.0,0.0,0.0,0.0,0.0,0.0,0.0,0.0,0.0,0.0,0.0,0.0,0.0,0.0,0.0,0.0,0.0,0.0,0.0,0.0,0.0,0.0,0.0,0.0,0.0,0.0,0.0,0.0,0.0,0.0,0.0,0.0,0.0,0.0,0.0,0.0,0.0,0.0,0.0,0.0,0.0,0.0,0.0,0.0,0.0,0.0,0.0,0.0,0.0,0.0,0.0,0.0,0.0,0.0,0.0,0.0,0.0,0.0,0.0,0.0,0.0,0.0,0.0,0.0,0.0,0.0,0.0,0.0,0.0,0.0,0.0,0.0,0.0,0.0,0.0,0.0,0.0,0.0,0.0,0.0,0.0,0.0,0.0,0.0,0.0,0.0,0.0,0.0,0.0,0.0,0.0,0.0,0.0,0.0,0.0,0.0,0.0,0.0,0.0,0.0,0.0,0.0,0.0,0.0,0.0,0.0,0.0,0.0,0.0,0.0,0.0,0.0,0.0,0.0,0.0,0.0,0.0,0.0,0.0,0.0,0.0,0.0,0.0,0.0,0.0,0.0,0.0,0.0,0.0,0.0,0.0,0.0,0.0,0.0,0.0,0.0,0.0,0.0,0.0,0.0,0.0,0.0,0.0,0.0,0.0,0.0,0.0,0.0,0.0,0.0,0.0,0.0,0.0,0.0,0.0,0.0,0.0,0.0,0.0,0.0,0.0,0.0,0.0,0.0,0.0,0.0,0.0,0.0,0.0,0.0,0.0,0.0,0.0,0.0,0.0,0.0,0.0,0.0,0.0,0.0,0.0,0.0,0.0,0.0,0.0,0.0,0.0,0.0,0.0,0.0,0.0,0.0,0.0,0.0,0.0,0.0,0.0,0.0,0.0,0.0,0.0,0.0,0.0,0.0,0.0,0.0,0.0,0.0,0.0,0.0,0.0,0.0,0.0,0.0,0.0,0.0,0.0,0.0,0.0,0.0,0.0,0.0,0.0,0.0,0.0,0.0,0.0,0.0,0.0,0.0,0.0,0.0,0.0,0.0,0.0,0.0,0.0,0.0,0.0,0.0,0.0,0.0,0.0,0.0,0.0,0.0,0.0,0.0,0.0,0.0,0.0,0.0,0.0,0.0,0.0,0.0,0.0,0.0,0.0,0.0,0.0,0.0,0.0,0.0,0.0,0.0,0.0,0.0,0.0,0.0,0.0,0.0,0.0,0.0,0.0,0.0,0.0,0.0,0.0,0.0,0.0,0.0,0.0,0.0,0.0,0.0,0.0,0.0,0.0,0.0,0.0,0.0,0.0,0.0,0.0,0.0,0.0,0.0,0.0,0.0,0.0,0.0,0.0,0.0,0.0,0.0,0.0,0.0,0.0,0.0,0.0,0.0,0.0,0.0,0.0,0.0,0.0,0.0,0.0,0.0,0.0,0.0,0.0,0.0,0.0,0.0,0.0,0.0,0.0,0.0,0.0,0.0,0.0,0.0,0.0,0.0,0.0,0.0,0.0,0.0,0.0,0.0,0.0,0.0,0.0,0.0,0.0,0.0,0.0,0.0,0.0,0.0,0.0,0.0,0.0,0.0,0.0,0.0,0.0,0.0,0.0,0.0,0.0,0.0,0.0,0.0,0.0,0.0,0.0,0.0,0.0,0.0,0.0,0.0,0.0,0.0,0.0,0.0,0.0,0.0,0.0,0.0,0.0,0.0,0.0,0.0,0.0,0.0,0.0,0.0,0.0,0.0,0.0,0.0,0.0,0.0,0.0,0.0,0.0,0.0,0.0,0.0,0.0,0.0,0.0,0.0,0.0,0.0,0.0,0.0,0.0,0.0,0.0,0.0,0.0,0.0,0.0,0.0,0.0,0.0,0.0,0.0,0.0,0.0,0.0,0.0,0.0,0.0,0.0,0.0,0.0,0.0,-3.8483,-3.9073,0.0,0.0,0.0,0.0,0.0,0.0,0.0,0.0,0.0,0.0,0.0,0.0,0.0,0.0,0.0,0.0,0.0,0.0,0.0,0.0,0.0,0.0,0.0,0.0,0.0,0.0,0.0,0.0,0.0,0.0,0.0,0.0,0.0,0.0,-2.6079,-2.6955,-2.7557,-2.7828,-2.8293,-2.8675,-2.9008,-2.822,-2.708,-2.5611,0.0,0.0,0.0,0.0,0.0,0.0,0.0,0.0,0.0,0.0,0.0,0.0,0.0,0.0,0.0,0.0,0.0,0.0,0.0,0.0,0.0,0.0,0.0,0.0,0.0,0.0,0.0,0.0,0.0,0.0,0.0,0.0,0.0,0.0,0.0,0.0,0.0,0.0,0.0,0.0,0.0,0.0,0.0,0.0,0.0,0.0,0.0,0.0,0.0,0.0,0.0,0.0,0.0,0.0,0.0,0.0,0.0,0.0,0.0,0.0,0.0,0.0,0.0,0.0,0.0,0.0,0.0,0.0,0.0,0.0,-3.86,-3.8905,0.0,0.0,0.0,0.0,0.0,0.0,0.0,0.0,0.0,0.0,0.0,0.0,0.0,0.0,0.0,0.0,0.0,0.0,0.0,0.0,0.0,0.0,0.0,-1.9332,-2.004,-2.1642,-2.2397,-2.2883,0.0,0.0,0.0,0.0,0.0,-2.6898,-2.6876,-2.818,-2.886,-2.8862,-2.9348,-2.9602,-2.9602,-2.9602,-2.8446,-2.6388,-2.6519,0.0,0.0,0.0,0.0,0.0,0.0,0.0,0.0,0.0,0.0,0.0,0.0,0.0,0.0,0.0,0.0,0.0,0.0,0.0,0.0,0.0,0.0,0.0,0.0,0.0,0.0,0.0,0.0,0.0,0.0,0.0,0.0,0.0,0.0,0.0,0.0,0.0,0.0,0.0,0.0,0.0,0.0,0.0,0.0,0.0,0.0,0.0,0.0,0.0,0.0,0.0,0.0,0.0,0.0,0.0,0.0,0.0,0.0,0.0,0.0,0.0,0.0,0.0,-3.8655,-3.87,-3.8909,-3.8967,-3.8992,-3.8978,-3.9242,-3.8982,-3.8477,-3.9141,0.0,0.0,0.0,0.0,0.0,0.0,0.0,0.0,0.0,0.0,0.0,0.0,0.0,0.0,0.0,0.0,0.0,0.0,0.0,0.0,0.0,-1.9942,-2.0352,-2.168,-2.1728,-2.2349,-2.3854,-2.5228,-2.5937,-2.584,-2.7807,-2.889,-2.882,-2.9861,-3.0356,-3.0229,-2.9806,-2.9602,-2.9602,-2.9602,-2.9432,-2.9075,-2.8661,-2.798,-2.7209,0.0,0.0,0.0,0.0,0.0,0.0,0.0,0.0,0.0,0.0,0.0,0.0,0.0,0.0,0.0,0.0,0.0,0.0,0.0,0.0,0.0,0.0,0.0,0.0,0.0,0.0,0.0,0.0,0.0,0.0,0.0,0.0,0.0,0.0,0.0,0.0,0.0,0.0,0.0,0.0,0.0,-3.3765,-3.4414,0.0,0.0,0.0,0.0,0.0,0.0,0.0,0.0,0.0,0.0,0.0,0.0,0.0,-3.8803,-3.877,-3.8442,-3.8442,-3.8788,-3.8382,-3.8733,-3.9735,-3.9751,-4.015,-4.0877,-4.1611,0.0,-3.892,-3.9017,0.0,0.0,0.0,0.0,0.0,0.0,0.0,0.0,0.0,0.0,0.0,0.0,0.0,0.0,0.0,0.0,0.0,0.0,0.0,0.0,0.0,-2.0518,-2.127,-2.2397,-2.3037,-2.394,-2.5142,-2.6042,-2.6748,-2.7188,-2.8615,-2.9605,-3.0021,-3.0968,-3.1387,-3.1342,-3.1059,-3.0963,-3.0931,-3.0835,-3.0771,-3.0771,-3.0448,-2.9427,-2.7941,-2.7543,0.0,0.0,0.0,0.0,0.0,0.0,0.0,0.0,0.0,0.0,0.0,0.0,0.0,0.0,0.0,0.0,0.0,0.0,0.0,0.0,0.0,0.0,0.0,0.0,0.0,0.0,0.0,0.0,0.0,0.0,0.0,0.0,0.0,0.0,0.0,0.0,0.0,0.0,0.0,-3.4625,-3.5103,-3.6019,-3.6452,-3.7041,0.0,0.0,0.0,0.0,0.0,0.0,0.0,0.0,0.0,-3.8609,-3.917,-3.9393,-3.9242,-3.9738,-4.0089,-4.025,-4.006,-4.0228,-4.0756,-4.1217,-4.162,-4.202,-4.2848,-4.262,-4.1711,-4.1901,-4.269,-4.3806,0.0,0.0,0.0,0.0,-4.555,-4.5575,0.0,0.0,0.0,0.0,0.0,0.0,0.0,0.0,0.0,0.0,0.0,0.0,-2.0235,-2.1023,-2.2112,-2.3393,-2.4427,-2.541,-2.6236,-2.725,-2.799,-2.837,-2.9821,-3.0827,-3.1186,-3.1871,-3.2258,-3.2323,-3.2086,-3.2015,-3.2015,-3.1838,-3.1772,-3.1772,-3.1636,-3.0576,-2.8942,-2.8392,-2.8011,-2.7745,0.0,0.0,0.0,0.0,0.0,0.0,0.0,0.0,0.0,0.0,0.0,0.0,0.0,0.0,0.0,0.0,0.0,0.0,0.0,0.0,0.0,0.0,0.0,0.0,0.0,0.0,0.0,0.0,0.0,0.0,0.0,0.0,0.0,0.0,0.0,0.0,0.0,-3.5749,-3.6292,-3.7453,-3.7959,-3.8421,0.0,0.0,0.0,0.0,0.0,0.0,-3.9622,-3.9553,-3.9381,-3.9171,-3.9939,-4.022,-3.9987,-4.0982,-4.1597,-4.1755,-4.1782,-4.202,-4.248,-4.3029,-4.3418,-4.3675,-4.4501,-4.4886,-4.4862,-4.437,-4.4594,-4.526,-4.5596,-4.615,-4.6781,-4.6791,-4.6791,-4.6801,0.0,0.0,0.0,0.0,0.0,0.0,0.0,0.0,0.0,0.0,0.0,-2.001,-2.0952,-2.1546,-2.2678,-2.4633,-2.5165,-2.5793,-2.6812,-2.8953,-2.9907,-2.9198,-3.2064,-3.3353,-3.2607,-3.278,-3.2935,-3.3134,-3.2366,-3.2015,-3.2015,-3.1982,-3.1982,-3.1982,-3.1786,-3.1335,-3.0744,-3.0201,-2.9453,-2.8594,-2.8071,0.0,0.0,0.0,0.0,0.0,0.0,0.0,0.0,0.0,0.0,0.0,0.0,0.0,0.0,0.0,0.0,0.0,0.0,0.0,0.0,0.0,0.0,0.0,0.0,0.0,0.0,0.0,0.0,0.0,0.0,0.0,0.0,0.0,0.0,0.0,0.0,0.0,0.0,-3.794,-3.8026,0.0,0.0,0.0,0.0,-4.0271,-4.0327,-4.0651,-4.1341,-4.1363,-4.1332,-4.1256,-4.1423,-4.1442,-4.1311,-4.1622,-4.2095,-4.2731,-4.2855,-4.375,-4.5286,-4.5211,-4.5611,-4.6454,-4.7392,-4.7822,-4.7684,-4.4952,-4.496,-4.6719,-4.6987,-4.827,-5.0012,-5.0253,-5.0353,-5.0324,0.0,0.0,0.0,0.0,0.0,0.0,0.0,0.0,-2.1308,-2.0576,-2.1375,-2.2077,-2.237,-2.3154,-2.4121,-2.531,-2.6918,-2.7988,-2.8363,-3.0108,-3.1206,-3.1437,-3.2743,-3.3638,-3.4099,-3.4153,-3.4199,-3.418,-3.3881,-3.3933,-3.4297,-3.3655,-3.3622,-3.4089,-3.3403,-3.2925,-3.2561,-3.1206,-3.0297,-2.9766,-2.9227,-2.8747,0.0,0.0,0.0,0.0,0.0,0.0,0.0,0.0,0.0,0.0,0.0,0.0,0.0,0.0,0.0,0.0,0.0,0.0,0.0,0.0,0.0,0.0,0.0,0.0,0.0,0.0,0.0,0.0,0.0,0.0,0.0,0.0,0.0,0.0,0.0,0.0,0.0,-3.8143,-3.8664,0.0,-3.9833,-4.0333,-4.0763,-4.1089,-4.1108,-4.1267,-4.1615,-4.1659,-4.1731,-4.1782,-4.2885,-4.3441,-4.3403,-4.4566,-4.5269,-4.5506,-4.555,-4.5898,-4.648,-4.6948,-4.7345,-4.7675,-4.8671,-4.9112,-4.907,-4.8107,-4.821,-4.9011,-4.908,-4.9702,-5.0534,-5.0573,-5.0603,-5.0593,0.0,0.0,0.0,0.0,0.0,0.0,0.0,0.0,-2.2132,-2.1781,-2.2583,-2.3399,-2.382,-2.5006,-2.5955,-2.6429,-2.8575,-2.9765,-2.9491,-3.1006,-3.2146,-3.2668,-3.336,-3.4085,-3.4902,-3.4902,-3.4968,-3.5085,-3.5085,-3.5299,-3.5706,-3.5222,-3.5175,-3.5402,-3.4691,-3.4269,-3.4022,-3.2549,-3.1508,-3.0849,-3.0363,-2.9984,-2.9693,0.0,0.0,0.0,0.0,0.0,0.0,0.0,0.0,0.0,0.0,0.0,0.0,0.0,0.0,0.0,0.0,0.0,0.0,0.0,0.0,0.0,0.0,0.0,0.0,0.0,0.0,0.0,0.0,0.0,0.0,0.0,0.0,0.0,0.0,-3.8239,-3.8451,-3.9273,-3.9834,-4.0325,-4.0762,-4.1219,-4.163,-4.198,-4.1999,-4.2296,-4.3011,-4.3086,-4.3287,-4.3665,-4.4809,-4.5392,-4.5336,-4.6525,-4.725,-4.7471,-4.7532,-4.7712,-4.7994,-4.8483,-4.8716,-4.875,-4.9508,-4.9825,-4.9851,-5.0092,-5.0286,-5.0393,-5.0252,-5.0347,-5.0544,-5.0613,-5.0633,-5.0623,0.0,0.0,0.0,0.0,0.0,0.0,-2.1832,-2.1451,-2.1691,-2.3836,-2.3552,-2.3782,-2.5335,-2.7031,-2.8056,-2.809,-3.0046,-3.0932,-3.0152,-3.1773,-3.2775,-3.2775,-3.4025,-3.4798,-3.4902,-3.4935,-3.5267,-3.5913,-3.5944,-3.5944,-3.5976,-3.6554,-3.643,-3.5769,-3.5467,-3.5257,-3.5077,-3.4264,-3.3182,-3.1979,-3.1533,-3.092,-3.0246,0.0,0.0,0.0,0.0,0.0,0.0,0.0,0.0,0.0,0.0,0.0,0.0,0.0,0.0,0.0,0.0,0.0,0.0,0.0,0.0,0.0,0.0,0.0,0.0,0.0,0.0,0.0,0.0,0.0,0.0,0.0,0.0,0.0,-3.9997,-3.9701,-3.9975,-4.1336,-4.1484,-4.1551,-4.1664,-4.1679,-4.2073,-4.3052,-4.3123,-4.3886,-4.5641,-4.5749,-4.6144,-4.6985,-4.7165,-4.7179,-4.7055,-4.734,-4.7805,-4.8456,-4.8651,-4.9153,-4.9898,-4.9778,-4.9707,-4.9736,-4.9993,-5.0104,-5.0152,-5.0606,-5.0801,-5.0756,-5.0383,-5.0218,-5.0272,-5.0575,-5.0693,-5.0683,0.0,0.0,0.0,0.0,0.0,0.0,-2.2569,-2.3054,-2.3453,-2.4038,-2.4585,-2.5648,-2.7486,-2.8299,-2.9114,-3.0235,-3.1542,-3.2209,-3.1955,-3.3185,-3.4045,-3.4269,-3.4802,-3.5162,-3.5326,-3.5767,-3.6023,-3.6133,-3.6569,-3.7025,-3.7485,-3.7024,-3.7024,-3.7397,-3.6259,-3.5804,-3.59,-3.4758,-3.425,-3.4132,-3.3002,-3.2146,-3.1568,0.0,0.0,0.0,0.0,0.0,0.0,0.0,0.0,0.0,0.0,0.0,0.0,0.0,0.0,0.0,0.0,0.0,0.0,0.0,0.0,0.0,0.0,0.0,0.0,0.0,0.0,0.0,0.0,0.0,0.0,0.0,-4.1252,-4.1454,-4.093,-4.0774,-4.0896,-4.144,-4.2634,-4.3461,-4.355,-4.4722,-4.5615,-4.5879,-4.5898,-4.6158,-4.6769,-4.6788,-4.6938,-4.7292,-4.7937,-4.8278,-4.8218,-4.8886,-4.9316,-4.9497,-4.9543,-4.9703,-4.9912,-4.9871,-4.992,-5.0063,-5.0237,-5.0404,-5.0547,-5.0784,-5.0863,-5.0855,-5.0701,-5.0635,-5.0635,-5.0673,-5.0702,-5.0702,0.0,0.0,0.0,0.0,0.0,0.0,-2.315,-2.392,-2.4571,-2.4987,-2.5783,-2.7091,-2.9,-2.9692,-3.0344,-3.1241,-3.2533,-3.3094,-3.2596,-3.3632,-3.4501,-3.5001,-3.5148,-3.5409,-3.5878,-3.6227,-3.6631,-3.7071,-3.7413,-3.7793,-3.8165,-3.795,-3.7937,-3.8039,-3.7174,-3.6828,-3.6858,-3.5578,-3.5154,-3.524,-3.4413,-3.3679,-3.3058,-3.3058,-3.3023,-3.2988,-3.3409,-3.3413,-3.322,-3.3671,0.0,0.0,0.0,0.0,0.0,0.0,0.0,0.0,0.0,0.0,0.0,0.0,0.0,0.0,0.0,0.0,0.0,0.0,0.0,0.0,0.0,0.0,0.0,0.0,-4.3152,-4.3411,-4.3316,-4.3033,-4.3005,-4.3455,-4.4547,-4.526,-4.5305,-4.6334,-4.7018,-4.709,-4.709,-4.7297,-4.7789,-4.784,-4.8018,-4.842,-4.8945,-4.921,-4.921,-4.9665,-4.9912,-4.9912,-5.0005,-5.0044,-5.0025,-5.0082,-5.0174,-5.0279,-5.0455,-5.0596,-5.071,-5.0844,-5.0905,-5.0877,0.0,0.0,0.0,0.0,-5.072,-5.0702,0.0,0.0,0.0,0.0,0.0,0.0,-2.3634,-2.4314,-2.5179,-2.623,-2.6981,-2.8106,-2.9923,-3.0906,-3.1549,-3.1759,-3.3185,-3.3667,-3.2739,-3.3618,-3.4501,-3.518,-3.5279,-3.5671,-3.6368,-3.6538,-3.7191,-3.8306,-3.8379,-3.8407,-3.8435,-3.9023,-3.8914,-3.8214,-3.8092,-3.7991,-3.7851,-3.6508,-3.5866,-3.574,-3.5691,-3.5204,-3.4501,-3.462,-3.4553,-3.4404,-3.4499,-3.4156,-3.3677,-3.378,0.0,0.0,0.0,0.0,0.0,0.0,0.0,0.0,0.0,0.0,0.0,0.0,0.0,0.0,0.0,0.0,0.0,0.0,0.0,0.0,0.0,0.0,0.0,0.0,-4.5087,-4.5454,-4.6242,-4.5916,-4.576,-4.6281,-4.6659,-4.6887,-4.6884,-4.7166,-4.7386,-4.7494,-4.7507,-4.7883,-4.878,-4.885,0.0,0.0,0.0,-4.9912,-4.9912,-4.9912,-4.9912,-4.9893,-5.0101,-5.02,-5.02,-5.0347,-5.0415,-5.0436,-5.0625,-5.071,-5.0729,-5.085,-5.0898,-5.089,-5.0825,-5.081,-5.081,-5.081,-5.0775,-5.071,0.0,0.0,0.0,0.0,0.0,0.0,-2.4482,-2.4952,-2.562,-2.68,-2.735,-2.8505,-3.0742,-3.1119,-3.1905,-3.3465,-3.3799,-3.402,-3.423,-3.4568,-3.4868,-3.518,-3.5816,-3.6243,-3.6399,-3.7413,-3.8051,-3.8306,-3.8843,-3.9121,-3.9121,-3.9245,-3.9218,-3.904,-3.849,-3.8435,-3.8662,-3.6906,-3.6415,-3.6753,-3.629,-3.5721,-3.5192,-3.5899,-3.615,-3.6074,-3.56,-3.5385,-3.5185,-3.4678,-3.4178,-3.373,-3.3706,-3.3474,0.0,0.0,0.0,0.0,0.0,0.0,0.0,0.0,0.0,0.0,0.0,0.0,0.0,0.0,0.0,0.0,0.0,0.0,0.0,-4.5782,-4.6483,-4.7016,-4.7289,-4.7938,-4.7972,-4.6762,-4.7382,-4.7947,-4.806,-4.8838,-4.9351,-4.9378,-4.9378,-4.9468,-4.9665,-4.9665,-4.9741,-4.9912,-4.9912,-4.9912,-4.9912,-4.9912,-4.9912,-4.9893,-5.0101,0.0,-5.02,-5.0347,-5.0497,-5.0635,-5.0682,-5.0764,-5.0866,-5.089,-5.0898,-5.0898,-5.0882,-5.0877,-5.0891,-5.0891,-5.0838,-5.0775,0.0,0.0,0.0,0.0,0.0,0.0,-2.5161,-2.5875,-2.6582,-2.7167,-2.7843,-2.8903,-3.0568,-3.1206,-3.2051,-3.3444,-3.3819,-3.4244,-3.475,-3.4868,-3.5034,-3.5326,-3.6086,-3.6615,-3.689,-3.795,-3.8585,-3.8799,-3.9202,-3.9352,-3.9299,-3.9352,-3.9352,-3.9299,-3.9023,-3.898,-3.9067,-3.778,-3.7251,-3.7251,-3.7324,-3.701,-3.6492,-3.6859,-3.6919,-3.6812,-3.6692,-3.636,-3.5969,-3.5827,-3.534,-3.4863,-3.4934,-3.5,-3.5045,0.0,0.0,0.0,0.0,0.0,0.0,0.0,0.0,0.0,0.0,0.0,0.0,0.0,0.0,-4.5279,-4.5846,0.0,-4.6836,-4.7278,-4.7774,-4.8104,-4.8194,-4.8702,-4.8781,-4.8039,-4.8536,-4.8978,-4.9032,-4.957,-4.9912,-4.9912,-4.9986,-5.005,-5.005,-5.012,-5.0149,-5.0149,-5.0101,-5.005,-5.005,-4.9946,-4.9946,-5.005,-5.0228,-5.0336,-5.0453,-5.0587,-5.0718,-5.0799,-5.0799,-5.0841,-5.0898,-5.0898,-5.0898,-5.0898,-5.0898,-5.0909,-5.0893,-5.0893,-5.0852,-5.0793,0.0,0.0,0.0,0.0,0.0,0.0,0.0,-2.6826,-2.7612,-2.7615,-2.8497,-2.9406,-3.0279,-3.1095,-3.1942,-3.2917,-3.377,-3.4433,-3.4868,-3.4968,-3.518,-3.5522,-3.6352,-3.701,-3.7488,-3.8402,-3.9038,-3.9379,-3.9484,-3.9484,-3.9379,-3.9484,-3.9484,-3.9379,-3.9484,-3.9484,-3.9335,-3.8645,-3.808,-3.7706,-3.8278,-3.8222,-3.7822,-3.7851,-3.7735,-3.7632,-3.7748,-3.7359,-3.6774,-3.6878,-3.6594,-3.6178,-3.6188,-3.6596,-3.697,-3.6538,-3.7352,0.0,0.0,0.0,0.0,0.0,0.0,0.0,0.0,-4.382,-4.4596,-4.4847,-4.6001,-4.7049,-4.7333,-4.8034,-4.8587,-4.855,-4.8679,-4.8804,-4.8822,-4.8926,-4.9061,-4.9273,-4.951,-4.9673,-4.9792,-4.9879,-4.9973,-5.0012,-5.0144,-5.0248,-5.0248,-5.0347,-5.0404,-5.0404,-5.031,-5.0248,-5.0248,-5.007,-5.007,-5.0228,-5.0391,-5.0537,-5.0701,-5.0841,-5.0898,-5.0898,-5.0898,-5.0898,-5.0898,-5.0898,-5.0898,-5.0898,-5.0898,-5.0898,-5.0898,-5.0898,-5.0877,-5.0819,0.0,0.0,0.0,0.0,0.0,0.0,0.0,0.0,-2.8442,-2.8394,-2.9408,-3.0241,-3.0532,-3.0683,-3.1355,-3.2868,-3.4099,-3.4835,-3.4902,-3.5213,-3.5522,-3.5671,-3.6844,-3.756,-3.7764,-3.8974,-3.9609,-3.9651,-3.9677,-3.9677,-3.9651,-3.9677,-3.9677,-3.9651,-3.9677,-3.9677,-3.9582,-3.8794,-3.8513,-3.8553,-3.8513,-3.8513,-3.8635,-3.9232,-3.9435,-3.9325,-3.8718,-3.841,-3.8243,-3.7628,-3.746,-3.7517,-3.7621,-3.7807,-3.8092,-3.8765,-3.9099,-3.9375,-3.9956,-4.108,-4.2188,-4.2591,-4.4339,-4.5933,0.0,-4.6853,-4.7769,-4.7747,-4.8029,-4.8309,-4.8328,-4.8477,-4.8642,-4.8751,-4.8787,-4.8822,-4.8874,-4.916,-4.9427,-4.9612,-4.9518,-4.9621,-5.0101,-5.0151,-5.0217,-5.0339,-5.0361,-5.0372,-5.0372,-5.0393,-5.0404,-5.0404,-5.0383,-5.0372,-5.0372,-5.0361,-5.0361,-5.0383,-5.0557,-5.0682,-5.0701,-5.0841,-5.0898,-5.0898,-5.0898,-5.0898,-5.0898,-5.0898,-5.0898,-5.0898,-5.0898,-5.0898,-5.0898,-5.0898,-5.0898,-5.0874,0.0,0.0,0.0,0.0,0.0,0.0,0.0,0.0,0.0,-2.874,-3.0114,-3.102,-3.0645,-3.1623,-3.2613,-3.3381,-3.4438,-3.5082,-3.5082,-3.5326,-3.5554,-3.5688,-3.6995,-3.7735,-3.7793,-3.9216,-3.9858,-3.9703,-3.9781,-3.9798,-3.9703,-3.9781,-3.9781,-3.9703,-3.9781,-3.9781,-3.9677,-3.9355,-3.9011,-3.8745,-3.9162,-3.9119,-3.8957,-4.0201,-4.0704,-4.0577,-3.9758,-3.9531,0.0,-3.9308,-3.9568,-3.9974,-4.0031,-4.0404,-4.0812,-4.0707,-4.1072,-4.1606,-4.2182,-4.3284,-4.4355,-4.4952,-4.6189,-4.7345,-4.7678,-4.8144,-4.8329,-4.785,-4.8182,-4.8421,-4.796,-4.8328,-4.8732,-4.8787,-4.884,-4.8856,-4.8891,-4.911,-4.9399,-4.967,-4.9698,-4.9863,-5.0279,-5.0313,-5.0347,-5.0393,-5.0517,-5.0567,-5.0567,-5.0644,-5.069,-5.069,-5.0616,-5.0567,-5.0567,-5.0457,-5.0457,-5.0586,-5.0673,-5.0747,-5.0825,-5.0874,-5.0898,-5.0898,-5.0898,-5.0898,-5.0898,-5.0898,-5.0898,-5.0898,-5.0898,-5.0898,-5.0898,-5.0898,-5.0901,-5.0897,0.0,0.0,0.0,0.0,0.0,0.0,0.0,0.0,0.0,0.0,-3.067,-3.1709,-3.1217,-3.2599,-3.3644,-3.3796,-3.4654,-3.518,-3.518,-3.5392,-3.5587,-3.5752,-3.7086,-3.7835,-3.7937,-3.9375,-3.9995,-3.9807,-3.991,-3.991,-3.9807,-3.991,-4.0002,-4.0109,-4.0229,-4.0305,-4.0411,-4.0385,-4.0124,-3.979,-4.0326,-4.0326,-4.0114,-4.1323,-4.1818,-4.1733,-4.1078,-4.0917,-4.0992,-4.1092,-4.1501,-4.1928,-4.1979,-4.239,-4.2834,-4.2632,-4.3336,-4.4244,-4.463,-4.5386,-4.6237,-4.6866,-4.7375,-4.7824,-4.831,-4.8327,-4.8106,-4.7516,-4.8069,-4.8475,-4.7937,-4.8378,-4.884,-4.891,-4.8891,-4.8926,-4.8978,-4.9193,-4.9454,-4.979,-5.0012,-5.0241,-5.0518,-5.0498,-5.0488,-5.0538,-5.0682,-5.0756,-5.0756,-5.085,-5.0898,-5.0898,-5.0808,-5.0756,-5.0756,-5.0616,-5.0616,-5.0756,-5.0756,-5.0808,-5.0898,-5.0898,-5.0898,-5.0898,-5.0898,-5.0898,-5.0898,-5.0898,-5.0898,-5.0898,-5.0898,-5.0898,-5.0898,-5.0898,-5.0901,-5.0888,0.0,0.0,0.0,0.0,0.0,0.0,0.0,0.0,0.0,0.0,0.0,0.0,0.0,-3.3304,-3.3796,-3.3796,-3.4654,-3.518,-3.518,-3.5392,-3.5651,-3.5973,-3.7145,-3.7966,-3.8278,-3.948,-4.0113,-4.007,-4.007,-4.007,-4.007,-4.0096,-4.046,-4.1144,-4.117,-4.1559,-4.2219,-4.2075,-4.2182,-4.2387,-4.2272,-4.2411,-4.2697,-4.274,-4.2843,-4.292,-4.2775,-4.2723,-4.2723,-4.2723,-4.274,-4.2783,-4.292,-4.2988,-4.3277,-4.4664,-4.6023,-4.71,-4.7248,-4.7542,-4.7882,-4.8093,-4.7794,-4.7406,-4.7424,-4.7424,-4.7424,-4.7405,-4.8141,-4.8821,-4.8939,-4.8923,-4.896,-4.9164,-4.9029,-4.8978,-4.9162,-4.9484,-4.9798,-5.0128,-5.0486,-5.0738,-5.0874,-5.0773,-5.0747,-5.0882,-5.089,-5.089,-5.089,-5.0898,-5.0898,-5.0898,-5.0898,-5.089,-5.089,-5.089,-5.089,-5.089,-5.089,-5.0898,-5.0898,-5.0898,-5.0898,-5.0898,-5.0898,-5.0898,-5.0898,-5.0898,-5.0898,-5.0898,-5.0898,-5.0898,-5.0898,-5.0898,-5.0898,-5.089,0.0,0.0,0.0,0.0,0.0,0.0,0.0,0.0,0.0,0.0,0.0,0.0,0.0,0.0,0.0,0.0,-3.492,-3.5392,-3.5392,-3.5539,-3.5735,-3.6005,-3.7249,-3.8048,-3.8278,-3.948,-4.0121,-4.0238,-4.073,-4.1019,-4.112,-4.1622,-4.2014,-4.227,-4.2115,-4.2277,-4.2627,-4.2436,-4.2488,-4.2705,-4.2653,-4.2696,-4.2868,-4.3451,-4.3804,-4.4076,0.0,-4.4127,-4.3262,-4.3262,-4.3732,-4.4363,-4.4641,-4.507,-4.5605,-4.6323,-4.6974,-4.7491,-4.7679,-4.7939,-4.8102,-4.785,-4.7609,-4.7422,-4.7563,-4.7696,-4.7823,-4.7913,-4.8769,-4.9376,-4.8885,-4.9221,-4.9594,-4.9651,-4.9608,-4.9594,-4.9651,-4.9884,-5.0116,-5.0306,-5.0548,-5.0756,-5.089,-5.0858,-5.085,-5.0898,-5.0898,-5.0898,-5.0898,-5.0898,-5.0898,-5.0898,-5.0898,-5.0898,-5.0898,-5.0898,-5.0898,-5.0898,-5.0898,-5.0898,-5.0898,-5.0898,-5.0898,-5.0898,-5.0898,-5.0898,-5.0898,-5.0898,-5.0898,-5.0898,-5.0898,-5.0898,-5.0898,-5.0898,-5.0901,-5.0897,0.0,0.0,0.0,0.0,0.0,0.0,0.0,0.0,0.0,0.0,0.0,0.0,0.0,0.0,0.0,0.0,0.0,-3.5537,-3.5572,-3.5638,-3.5911,-3.6368,-3.744,-3.8343,-3.9072,-4.0065,-4.0764,-4.118,-4.1657,-4.1929,-4.2048,-4.2578,-4.2928,-4.3184,-4.3055,-4.3208,-4.3577,-4.3447,-4.35,-4.3682,-4.3769,-4.3847,-4.3933,-4.4595,-4.4946,0.0,-4.5738,-4.5366,-4.4598,-4.4502,-4.4907,-4.5545,-4.5904,-4.6548,-4.7252,-4.7449,-4.7779,-4.8023,-4.7845,-4.7941,-4.8015,-4.7677,-4.7343,-4.721,-4.7723,-4.795,-4.8127,-4.831,-4.9172,-4.9746,-4.9325,-4.9594,-4.9924,-5.0012,-4.9955,-4.9924,-5.0012,-5.0164,-5.0325,-5.049,-5.0672,-5.0808,-5.089,-5.0898,-5.0898,-5.0898,-5.0898,-5.0898,-5.0898,-5.0898,-5.0898,-5.0898,-5.0898,-5.0898,-5.0898,-5.0898,-5.0898,-5.0898,-5.0898,-5.0898,-5.0898,-5.0898,-5.0898,-5.0898,-5.0898,-5.0898,-5.0898,-5.0898,-5.0898,-5.0898,-5.0898,-5.0898,-5.0898,-5.0898,-5.0901,-5.0897,0.0,0.0,0.0,0.0,0.0,0.0,0.0,0.0,0.0,0.0,0.0,0.0,0.0,0.0,0.0,0.0,0.0,0.0,-3.572,-3.572,-3.6134,-3.7055,-3.7687,-3.8807,-4.0488,-4.1084,-4.1861,-4.2817,-4.2851,-4.2868,-4.2868,-4.292,-4.3296,-4.398,-4.3962,-4.4356,-4.5005,-4.5005,-4.5113,-4.5257,-4.5503,-4.5684,-4.5862,-4.6112,-4.6211,-4.6211,-4.6211,-4.6381,-4.659,-4.6332,-4.6284,-4.6363,-4.666,-4.7403,-4.8135,-4.8135,-4.8477,-4.8669,-4.7877,-4.767,-4.7684,-4.7635,-4.7092,-4.6866,-4.7886,-4.82,-4.8338,-4.8625,-4.9365,-5.0004,-5.0199,-5.0078,-5.0004,-5.0199,-5.0078,-5.0004,-5.0199,-5.0347,-5.049,-5.0701,-5.0825,-5.0898,-5.0898,-5.0898,-5.0898,-5.0898,-5.0898,-5.0898,-5.0898,-5.0898,-5.0898,-5.0898,-5.0898,-5.0898,-5.0898,-5.0898,-5.0898,-5.0898,-5.0898,-5.0898,-5.0898,-5.0898,-5.0898,-5.0898,-5.0898,-5.0898,-5.0898,-5.0898,-5.0898,-5.0898,-5.0898,-5.0898,-5.0898,-5.0898,-5.0898,-5.0882,0.0,0.0,0.0,0.0,0.0,0.0,0.0,0.0,0.0,0.0,0.0,0.0,0.0,0.0,0.0,0.0,0.0,0.0,-3.5894,-3.5926,-3.6337,-3.7203,-3.7962,-3.9089,-4.0622,-4.1239,-4.1997,-4.2954,-4.3503,-4.3829,-4.3933,-4.4492,-4.4827,-4.4999,-4.4902,-4.5022,-4.5291,-4.5194,-4.5336,-4.5658,-4.5709,-4.5887,-4.6112,-4.6161,-4.6308,-4.6495,-4.6495,-4.6661,-4.6911,-4.6875,-4.7313,-4.782,-4.7692,-4.8153,-4.8714,-4.8714,-4.8359,-4.8091,-4.8466,-4.8149,-4.775,-4.7922,-4.7859,-4.7878,-4.8359,-4.868,-4.9064,-4.9795,-5.0316,-5.0663,-5.0717,-5.0634,-5.0596,-5.0644,-5.0548,-5.0528,-5.0635,-5.0682,-5.0736,-5.0841,-5.0877,-5.0905,-5.0898,-5.0898,-5.0898,-5.0898,-5.0898,-5.0898,-5.0898,-5.0898,-5.0898,-5.0898,-5.0898,-5.0898,-5.0898,-5.0898,-5.0898,-5.0898,-5.0898,-5.0898,-5.0898,-5.0898,-5.0898,-5.0898,-5.0898,-5.0898,-5.0898,-5.0898,-5.0898,-5.0898,-5.0898,-5.0898,-5.0898,-5.0905,-5.088,-5.0819,0.0,0.0,0.0,0.0,0.0,0.0,0.0,0.0,0.0,0.0,0.0,0.0,0.0,0.0,0.0,0.0,0.0,0.0,0.0,-3.629,-3.689,-3.779,-3.8835,-4.0103,-4.1679,-4.2373,-4.3143,-4.4062,-4.4475,-4.4768,-4.4974,-4.5381,-4.5641,-4.5752,-4.5658,-4.5675,-4.5752,-4.5658,-4.576,0.0,0.0,-4.6235,-4.6381,-4.6518,-4.6637,-4.6778,-4.6842,-4.7048,-4.7272,-4.712,-4.7585,-4.821,-4.8052,-4.8402,-4.8834,-4.8481,-4.8296,-4.8166,-4.7924,-4.7776,-4.7752,-4.7893,-4.8016,-4.8303,-4.9015,-4.9372,-4.9791,-5.0481,-5.0771,-5.0893,-5.0898,-5.0869,-5.0836,-5.0833,-5.0819,-5.0801,-5.0844,-5.0836,-5.0852,-5.089,-5.0905,-5.0897,-5.0898,-5.0898,-5.0898,-5.0898,-5.0898,-5.0898,-5.0898,-5.0898,-5.0898,-5.0898,-5.0898,-5.0898,-5.0898,-5.0898,-5.0898,-5.0898,-5.0898,-5.0898,-5.0898,-5.0898,-5.0898,-5.0898,-5.0898,-5.0898,-5.0898,-5.0898,-5.0898,-5.0898,-5.0898,-5.0898,-5.0898,-5.0893,-5.0869,-5.0844,0.0,0.0,0.0,0.0,0.0,0.0,0.0,0.0,0.0,0.0,0.0,0.0,0.0,0.0,0.0,0.0,0.0,0.0,0.0,0.0,-3.7442,-3.8474,-3.9726,-4.1221,-4.2988,-4.3752,-4.4543,-4.5397,-4.545,-4.5572,-4.5811,-4.5837,-4.5988,-4.6211,-4.6211,-4.6211,-4.6211,-4.6211,-4.6211,-4.6259,-4.6518,-4.6613,-4.6684,0.0,-4.702,-4.7043,-4.7178,-4.7399,-4.7593,-4.7178,-4.745,-4.7992,-4.7992,-4.8383,-4.8708,-4.8056,-4.8277,-4.8463,-4.7163,-4.7256,-4.7737,-4.7897,-4.8082,-4.8532,-4.9726,-5.0135,-5.0393,-5.081,-5.0893,-5.0898,-5.0898,-5.0905,-5.0888,-5.0901,-5.0897,-5.0888,-5.0901,-5.0897,-5.0888,-5.0909,-5.0897,-5.0888,-5.0909,-5.089,-5.089,-5.0898,-5.089,-5.089,-5.0898,-5.0898,-5.0898,-5.0898,-5.0898,-5.0898,-5.0898,-5.0898,-5.0898,-5.0898,-5.0898,-5.0898,-5.0898,-5.0898,-5.0898,-5.0898,-5.0898,-5.089,-5.089,-5.089,-5.089,-5.089,-5.089,-5.0898,-5.0898,-5.089,-5.089,-5.0909,0.0,0.0,0.0,0.0,0.0,0.0,0.0,0.0,0.0,0.0,-3.5472,-3.5504,0.0,0.0,0.0,0.0,0.0,0.0,0.0,0.0,0.0,-3.8608,-3.9473,-4.0946,-4.3122,-4.3906,-4.4639,-4.5397,-4.5624,-4.576,-4.5811,-4.6038,-4.6161,-4.6211,-4.6211,-4.6211,-4.6211,-4.6211,-4.6332,-4.6525,-4.659,-4.6731,-4.6952,-4.698,0.0,0.0,-4.7232,-4.732,-4.7341,-4.7223,-4.7554,-4.7992,-4.7992,-4.823,-4.8513,-4.8653,-4.8314,-4.7999,-4.8389,-4.8091,-4.7951,-4.9017,-4.9332,-4.9592,-5.0303,-5.0547,-5.0663,-5.0858,-5.0898,-5.0898,-5.0898,-5.0905,-5.0872,-5.0827,-5.0819,-5.081,-5.0819,-5.0819,-5.0846,-5.0888,-5.0855,-5.0846,-5.0888,-5.0844,-5.0852,-5.0898,-5.0861,-5.0833,-5.0898,-5.0898,-5.0898,-5.0898,-5.0898,-5.0898,-5.0898,-5.0898,-5.0898,-5.0898,-5.0898,-5.0898,-5.0898,-5.0898,-5.0898,-5.0898,-5.0905,-5.0888,-5.0908,-5.0836,-5.0844,-5.0888,-5.0888,-5.0893,-5.0898,-5.0905,-5.0888,-5.0888,0.0,0.0,0.0,0.0,0.0,0.0,0.0,-3.4524,-3.5392,-3.5504,-3.5504,-3.5504,-3.5504,-3.5504,-3.5539,0.0,0.0,0.0,0.0,0.0,0.0,0.0,-4.0299,-4.1792,-4.3733,-4.4492,-4.5061,-4.5397,0.0,-4.5862,-4.6013,-4.6284,-4.6477,-4.6613,-4.6613,-4.6613,-4.6613,-4.6613,-4.6684,-4.6819,-4.6819,-4.6888,-4.702,0.0,0.0,0.0,-4.732,-4.7323,-4.7428,-4.7539,-4.7731,-4.7955,-4.7992,-4.8191,-4.8384,-4.8423,-4.8447,-4.8501,-4.8527,-4.8544,-4.8704,-4.9256,-4.9472,-4.967,-5.0135,-5.0331,-5.0537,-5.0844,-5.0901,-5.0898,-5.0898,-5.0905,-5.088,-5.0861,-5.0844,-5.0855,-5.0855,-5.081,-5.081,-5.0846,-5.0784,-5.0775,-5.0846,-5.081,-5.0819,-5.0852,-5.0819,-5.0827,-5.0905,-5.0869,-5.0861,-5.0861,-5.0861,-5.0861,-5.0861,-5.0877,-5.0877,-5.0861,-5.0877,-5.0877,-5.0861,-5.0861,-5.0861,-5.0861,-5.0855,-5.0846,-5.0846,-5.081,-5.0846,-5.0899,-5.0899,-5.0905,-5.0898,-5.0901,-5.0893,-5.0905,0.0,0.0,0.0,0.0,0.0,0.0,0.0,-3.4624,-3.5504,-3.5504,-3.5504,-3.5504,-3.5504,-3.5504,-3.5554,0.0,0.0,0.0,0.0,0.0,0.0,0.0,0.0,0.0,-4.4,0.0,0.0,-4.5397,-4.5675,0.0,0.0,0.0,0.0,0.0,-4.6957,-4.6998,-4.6998,-4.6998,-4.6998,0.0,0.0,-4.6998,-4.702,0.0,0.0,0.0,0.0,-4.745,-4.7575,-4.7754,-4.7818,-4.7856,-4.8015,-4.825,-4.8439,-4.8315,-4.8691,-4.9097,-4.8568,-4.888,-4.9337,-4.926,-4.9308,-4.9472,-4.9857,-5.0087,-5.032,-5.0793,-5.0893,-5.0898,-5.0898,-5.0893,-5.0905,-5.0901,-5.0905,-5.0888,-5.0872,-5.0846,-5.081,-5.0784,-5.0729,-5.072,-5.0775,-5.0775,-5.0775,-5.0801,-5.0793,-5.0801,-5.0863,-5.0838,-5.0801,-5.0801,-5.0801,-5.0801,-5.0801,-5.0855,-5.0855,-5.0801,-5.0855,-5.0855,-5.0801,-5.0801,-5.0801,-5.0801,-5.0784,-5.0784,-5.0784,-5.0775,-5.0821,-5.0891,-5.0891,-5.0897,-5.0898,-5.0898,-5.0898,-5.0898,0.0,0.0,0.0,0.0,0.0,0.0,0.0,-3.5392,-3.5504,-3.5504,-3.5504,-3.5504,-3.5504,-3.5504,-3.5504,0.0,0.0,0.0,0.0,0.0,0.0,0.0,0.0,0.0,0.0,0.0,0.0,-4.5397,-4.5675,0.0,0.0,0.0,0.0,0.0,0.0,-4.6998,-4.6998,-4.6998,0.0,0.0,0.0,0.0,0.0,0.0,0.0,0.0,0.0,-4.7657,-4.7657,-4.7575,-4.7536,-4.7624,-4.8193,-4.8513,-4.873,-4.9019,-4.9139,-4.9195,-4.9118,-4.9155,-4.9244,-4.9352,-4.9308,-4.9365,-4.9943,-5.0128,-5.032,-5.0793,-5.0893,-5.0898,-5.0898,-5.0898,-5.0901,-5.0888,-5.0893,-5.0885,-5.0819,-5.0855,-5.0846,-5.072,-5.0701,-5.0701,-5.071,-5.0712,-5.0721,-5.0793,-5.0738,-5.0729,-5.0801,-5.0801,-5.0801,-5.0801,-5.0801,-5.0801,-5.0801,-5.0801,-5.0801,-5.0801,-5.0801,-5.0801,-5.0801,-5.0801,-5.0801,-5.0801,-5.0748,-5.071,-5.0701,-5.0702,-5.074,-5.0801,-5.0801,-5.0852,-5.0898,-5.0898,-5.0898,-5.0898,0.0,0.0,0.0,0.0,0.0,0.0,-3.3367,-3.4206,-3.4824,-3.4938,-3.5347,-3.5621,-3.5621,-3.5621,-3.5621,-3.5621,0.0,0.0,0.0,0.0,0.0,0.0,0.0,0.0,0.0,0.0,-4.53,-4.5397,-4.5675,0.0,0.0,0.0,0.0,0.0,0.0,-4.6998,-4.6998,-4.6998,0.0,0.0,0.0,0.0,0.0,0.0,0.0,0.0,0.0,0.0,-4.772,-4.7911,-4.7992,-4.8093,-4.8782,-4.8971,-4.9005,-4.9384,-4.9514,-4.951,-4.9596,-4.9625,-4.9581,-4.9446,-4.9352,-4.9365,-4.9627,-4.9859,-5.0126,-5.0508,-5.0763,-5.0898,-5.0898,-5.0898,-5.0898,-5.0901,-5.0909,-5.0882,-5.0863,-5.0872,-5.0846,-5.071,-5.0701,-5.0711,-5.0702,-5.0702,-5.0702,-5.075,-5.0712,-5.0712,-5.075,-5.073,-5.073,-5.073,-5.073,-5.073,-5.073,-5.0739,-5.0739,-5.073,-5.0739,-5.0739,-5.073,-5.073,-5.073,-5.075,-5.0712,-5.0693,-5.0693,-5.0693,-5.0712,-5.0729,-5.0729,-5.0773,-5.0852,-5.0852,-5.0852,-5.0844,0.0,0.0,0.0,0.0,0.0,-3.2182,-3.2398,-3.3547,-3.4447,-3.4595,-3.5285,-3.5799,-3.5799,-3.5799,-3.5799,-3.5799,-3.5926,0.0,0.0,0.0,0.0,0.0,0.0,0.0,0.0,0.0,-4.5274,-4.5344,-4.5572,-4.5675,0.0,0.0,-4.6357,-4.6398,0.0,0.0,0.0,0.0,0.0,0.0,0.0,0.0,0.0,0.0,0.0,0.0,0.0,0.0,0.0,0.0,0.0,-4.823,-4.887,-4.899,-4.8971,-4.954,-4.9692,-4.9707,-4.9741,-4.9755,-4.9683,-4.9415,-4.9305,-4.9286,-4.9469,-4.9719,-5.0016,-5.0427,-5.0717,-5.0898,-5.0898,-5.0898,-5.0898,-5.0898,-5.0898,-5.0909,-5.0908,-5.0899,-5.0855,-5.0729,-5.072,-5.072,-5.0693,-5.0702,-5.0712,-5.0712,-5.0712,-5.0712,-5.0712,-5.0712,-5.0712,-5.0712,-5.0712,-5.0712,-5.0712,-5.0702,-5.0702,-5.0712,-5.0702,-5.0702,-5.0712,-5.0712,-5.0712,-5.0712,-5.0712,-5.0712,-5.0712,-5.0712,-5.0693,-5.0701,-5.0701,-5.0729,-5.0801,-5.0801,-5.0801,-5.0801,0.0,0.0,0.0,0.0,0.0,0.0,-3.3073,-3.3973,-3.4595,-3.4595,-3.5429,-3.6005,-3.6005,-3.6005,-3.6005,-3.6005,-3.6005,0.0,0.0,0.0,0.0,0.0,0.0,0.0,0.0,0.0,-4.5327,-4.5203,-4.5344,-4.5397,-4.5397,-4.5675,-4.5811,-4.5811,0.0,0.0,0.0,0.0,0.0,0.0,0.0,0.0,0.0,0.0,0.0,0.0,0.0,0.0,0.0,0.0,0.0,0.0,0.0,-4.8306,-4.8495,-4.943,-4.9692,-4.9663,-4.9461,-4.9415,-4.9368,-4.9228,-4.9046,-4.9059,-4.9665,-4.9853,-5.0076,-5.0682,-5.0841,-5.0898,-5.0898,-5.0898,-5.0898,-5.0898,-5.0898,-5.0909,-5.0908,-5.0899,-5.0863,-5.0801,-5.0801,-5.0775,-5.0701,-5.0693,-5.0712,-5.0712,-5.0712,-5.0712,-5.0712,-5.0712,-5.0712,-5.0712,-5.0712,-5.0712,-5.0712,-5.0712,-5.0712,-5.0712,-5.0712,-5.0712,-5.0712,-5.0712,-5.0712,-5.0712,-5.0712,-5.0712,-5.0712,-5.0712,-5.0693,-5.0701,-5.0701,-5.0729,-5.0801,-5.0801,-5.0801,-5.0793,0.0,0.0,0.0,0.0,0.0,0.0,0.0,-3.2783,-3.3575,-3.4312,-3.5091,-3.5737,-3.6116,-3.6148,-3.6331,-3.6789,-3.6835,0.0,0.0,0.0,0.0,0.0,0.0,0.0,0.0,-4.4575,-4.5059,-4.5203,-4.5247,-4.53,-4.5397,-4.5675,-4.5811,-4.5811,-4.6087,-4.6357,0.0,0.0,0.0,0.0,0.0,0.0,-4.7066,0.0,0.0,0.0,0.0,0.0,0.0,0.0,0.0,0.0,0.0,0.0,0.0,-4.8937,-4.9286,-4.9521,-4.9698,-4.9669,-4.9555,-4.9368,-4.9228,-4.9129,-4.9171,-4.956,-4.9949,-5.0159,-5.0528,-5.0844,-5.0897,-5.0897,-5.0905,-5.0898,-5.0898,-5.0898,-5.0901,-5.0897,-5.0883,-5.0801,-5.0758,-5.0712,-5.0693,-5.0702,-5.0712,-5.0712,-5.0712,-5.0712,-5.0712,-5.0712,-5.0712,-5.0712,-5.0712,-5.0712,-5.0712,-5.0712,-5.0712,-5.0712,-5.0712,-5.0712,-5.0712,-5.0712,-5.0712,-5.0712,-5.0712,-5.0712,-5.0712,-5.0712,-5.0702,-5.0693,-5.0693,-5.0702,-5.074,-5.074,-5.074,-5.074,0.0,0.0,0.0,0.0,0.0,0.0,0.0,-3.2259,-3.3122,-3.4177,-3.5026,-3.5795,-3.6594,-3.6688,-3.6964,-3.7638,-3.7929,0.0,0.0,0.0,0.0,0.0,0.0,0.0,-4.4076,-4.4659,-4.5005,-4.5123,-4.522,-4.53,-4.5397,-4.5563,-4.5649,-4.5649,-4.5829,-4.6055,0.0,0.0,0.0,0.0,0.0,0.0,-4.702,0.0,0.0,0.0,0.0,0.0,0.0,0.0,0.0,0.0,0.0,0.0,0.0,0.0,-4.8747,-4.9005,-4.9408,-4.9551,-4.9525,-4.9273,-4.9144,-4.9096,-4.9094,-4.9506,-4.9936,-5.0019,-5.0446,-5.081,-5.0855,-5.0872,-5.0908,-5.0893,-5.0901,-5.0901,-5.0901,-5.088,-5.0846,-5.0801,-5.0749,-5.0693,-5.0693,-5.0702,-5.0712,-5.0712,-5.0712,-5.0712,-5.0712,-5.0712,-5.0712,-5.0712,-5.0712,-5.0712,-5.0712,-5.0712,-5.0712,-5.0712,-5.0712,-5.0712,-5.0712,-5.0712,-5.0712,-5.0712,-5.0712,-5.0712,0.0,-5.0712,-5.0712,-5.0712,-5.0712,-5.0712,-5.0712,-5.0712,-5.0712,-5.0712,0.0,0.0,0.0,0.0,0.0,0.0,0.0,-3.2354,-3.3178,-3.4109,-3.507,-3.6086,-3.7255,-3.7474,-3.7814,-3.849,0.0,0.0,0.0,0.0,0.0,0.0,0.0,0.0,-4.4542,-4.4978,-4.514,-4.5005,-4.5247,-4.5397,-4.5397,-4.5397,-4.5397,-4.5397,-4.5397,-4.5563,0.0,0.0,0.0,0.0,-4.6957,-4.6957,0.0,0.0,0.0,0.0,0.0,0.0,0.0,0.0,0.0,0.0,0.0,0.0,0.0,0.0,0.0,0.0,0.0,-4.911,-4.927,-4.8993,-4.8909,-4.8976,-4.9286,-4.9641,0.0,-5.0199,-5.0547,-5.0793,-5.0793,-5.0846,-5.0891,-5.0899,-5.0899,-5.0899,-5.0899,-5.0838,-5.0793,-5.0793,-5.0748,-5.0692,-5.0692,-5.0693,-5.0712,-5.0712,-5.0712,-5.0712,-5.0712,-5.0712,-5.0712,-5.0712,-5.0712,-5.0712,-5.0712,-5.0712,-5.0712,-5.0712,-5.0712,-5.0712,-5.0712,-5.0712,-5.0712,-5.0712,-5.0712,-5.0712,-5.0712,-5.0712,-5.0712,-5.0712,-5.0712,-5.0712,-5.0712,-5.0712,-5.0712,-5.0712,0.0,0.0,0.0,0.0,0.0,0.0,0.0,0.0,0.0,0.0,-3.4562,-3.5424,-3.6127,-3.7304,-3.8325,0.0,0.0,0.0,0.0,0.0,0.0,0.0,0.0,0.0,-4.4128,-4.4742,-4.5086,-4.515,-4.522,-4.53,-4.5397,-4.5397,-4.5397,-4.5397,-4.5397,-4.5563,0.0,0.0,0.0,0.0,-4.6613,-4.6566,0.0,0.0,0.0,0.0,-4.6957,-4.7133,0.0,0.0,0.0,0.0,0.0,0.0,0.0,0.0,-4.7953,-4.8153,-4.8382,0.0,-4.8905,-4.9096,-4.9012,-4.8926,0.0,-4.945,-4.9844,-4.9904,-5.0347,-5.0721,-5.071,-5.0748,-5.0766,-5.0829,-5.0819,-5.0819,-5.0819,-5.0775,-5.073,-5.0712,-5.0712,-5.0702,-5.0702,-5.0693,-5.0712,-5.0712,-5.0712,-5.0712,-5.0712,-5.0712,-5.0712,-5.0712,-5.0712,-5.0712,-5.0712,-5.0712,-5.0712,-5.0712,-5.0712,-5.0712,-5.0712,-5.0712,-5.0712,-5.0712,-5.0712,-5.0712,-5.0712,-5.0712,-5.0712,-5.0712,-5.0712,-5.0712,-5.0712,-5.0712,-5.0712,-5.0712,0.0,0.0,0.0,0.0,0.0,0.0,0.0,0.0,0.0,0.0,0.0,-3.4875,-3.5983,-3.7238,0.0,0.0,0.0,0.0,0.0,0.0,0.0,0.0,0.0,-4.2849,-4.3575,-4.4344,-4.4797,-4.4879,-4.5167,-4.5344,-4.5397,-4.5537,-4.5511,-4.5397,-4.5397,-4.5563,0.0,0.0,0.0,-4.6211,-4.6357,0.0,0.0,0.0,0.0,0.0,-4.6708,-4.6865,0.0,-4.7133,-4.7223,-4.7272,0.0,0.0,0.0,0.0,-4.76,-4.7728,-4.7951,-4.8364,-4.8766,-4.8993,-4.8978,-4.8909,-4.8909,-4.9374,-4.9803,-4.9803,-5.0279,-5.0693,-5.0702,-5.0664,-5.0682,-5.0738,-5.072,-5.0712,-5.0712,-5.0692,-5.0702,-5.0693,-5.0712,-5.0712,-5.0712,-5.0712,-5.0712,-5.0712,-5.0712,-5.0712,-5.0712,-5.0712,-5.0712,-5.0712,-5.0712,-5.0712,-5.0712,-5.0712,-5.0712,-5.0712,-5.0712,-5.0712,-5.0712,-5.0712,-5.0712,-5.0712,-5.0712,-5.0712,-5.0712,-5.0712,-5.0712,-5.0712,-5.0712,-5.0712,-5.0712,-5.0712,-5.0712,-5.0712,0.0,0.0,0.0,0.0,0.0,0.0,0.0,0.0,0.0,0.0,0.0,0.0,0.0,0.0,0.0,0.0,0.0,0.0,0.0,0.0,0.0,0.0,-4.1786,-4.2412,-4.3141,-4.4001,-4.4485,-4.453,-4.5096,-4.5423,-4.5476,-4.5701,-4.5701,-4.5511,-4.5511,-4.5667,-4.5862,-4.5862,-4.5963,-4.6137,-4.6235,0.0,0.0,0.0,0.0,0.0,0.0,0.0,0.0,-4.698,-4.7151,-4.7178,-4.7254,0.0,0.0,0.0,0.0,0.0,-4.7657,-4.8132,-4.8569,-4.8785,-4.8855,-4.8909,-4.8909,-4.9343,-4.9735,-4.9735,-5.0221,-5.0604,-5.0544,-5.0586,-5.0606,-5.0606,-5.0595,-5.0582,-5.0521,-5.0594,-5.0663,-5.0673,-5.0673,-5.0702,-5.0712,-5.0683,-5.0673,-5.0673,-5.0692,-5.0663,-5.0663,-5.0663,-5.0673,-5.0673,-5.0673,-5.0683,-5.0712,-5.0712,-5.0712,-5.0712,-5.0712,-5.0712,-5.0712,-5.0712,-5.0712,-5.0712,-5.0712,-5.0712,-5.0712,-5.0712,-5.0712,-5.0712,-5.0712,-5.0712,-5.0712,-5.0712,-5.0712,-5.0712,0.0,0.0,0.0,0.0,0.0,0.0,0.0,0.0,0.0,0.0,0.0,0.0,0.0,0.0,0.0,0.0,0.0,0.0,0.0,0.0,0.0,-4.0646,-4.1425,-4.2364,-4.3439,-4.3963,-4.4395,-4.468,-4.515,-4.5511,-4.5735,-4.5786,-4.5887,-4.6062,-4.6062,-4.6087,-4.6137,-4.6137,-4.6038,-4.5912,-4.6374,0.0,0.0,0.0,0.0,0.0,0.0,0.0,0.0,-4.6661,-4.6842,-4.7066,-4.7178,0.0,0.0,0.0,0.0,0.0,-4.7893,-4.7872,-4.7811,-4.8345,-4.8678,-4.8909,-4.8909,-4.919,-4.9472,-4.9472,-4.9897,-5.0164,-4.9834,-5.0264,-5.0575,-5.0241,-5.041,-5.0481,-5.0135,-5.0344,-5.0542,-5.0613,-5.0613,-5.0633,-5.0683,-5.0643,-5.0613,-5.0613,-5.0553,-5.0532,-5.0532,-5.0532,-5.0572,-5.0613,-5.0613,-5.0633,-5.0712,-5.0712,-5.0712,-5.0712,-5.0712,-5.0712,-5.0712,-5.0712,-5.0712,-5.0712,-5.0712,-5.0712,-5.0712,-5.0712,-5.0712,-5.0712,-5.0712,-5.0712,-5.0712,-5.0712,-5.0712,-5.0712,0.0,0.0,0.0,0.0,0.0,0.0,0.0,0.0,0.0,0.0,0.0,0.0,0.0,0.0,0.0,0.0,0.0,0.0,0.0,0.0,-3.9849,-4.0455,-4.087,-4.1541,-4.2459,-4.3106,-4.3614,-4.3939,-4.4652,-4.5079,-4.5205,-4.5615,-4.5938,-4.6211,-4.6211,-4.6211,-4.6211,-4.6211,-4.6137,-4.6038,0.0,0.0,0.0,0.0,0.0,0.0,0.0,0.0,0.0,0.0,-4.6795,-4.6819,-4.702,0.0,0.0,0.0,0.0,0.0,-4.7432,-4.7642,-4.7829,-4.8035,-4.8345,-4.8605,-4.8714,-4.9008,-4.9252,-4.928,-4.9599,-4.9821,-4.964,-4.9872,-5.0,-4.9725,-4.9859,-4.9943,-4.9706,-4.9832,-4.9968,-4.9993,-5.0006,-5.0019,-5.0056,-5.0019,-5.0087,-5.0268,-5.0256,-5.031,-5.05,-5.05,-5.0511,-5.0542,-5.0562,-5.0553,-5.0584,-5.041,-5.0462,-5.0712,-5.0712,-5.0712,-5.0712,-5.0712,-5.0712,-5.0712,-5.0712,-5.0712,-5.0712,-5.0712,-5.0712,-5.0712,-5.0712,-5.0712,-5.0712,-5.0712,-5.0712,-5.0712,0.0,0.0,0.0,0.0,0.0,0.0,0.0,0.0,0.0,0.0,0.0,0.0,0.0,0.0,0.0,0.0,0.0,0.0,0.0,-3.8833,-3.9463,-4.0281,-4.042,-4.0799,-4.1456,-4.2269,-4.2863,-4.3169,-4.4197,-4.479,-4.4964,-4.5666,-4.6087,-4.6284,-4.6357,-4.6398,-4.6398,-4.6398,-4.6357,-4.6308,0.0,0.0,0.0,0.0,0.0,0.0,0.0,0.0,0.0,0.0,0.0,0.0,0.0,0.0,0.0,-4.6998,-4.6998,-4.702,-4.7111,-4.7428,-4.779,-4.7875,-4.8191,-4.8476,-4.8569,-4.8818,-4.904,-4.9052,-4.9283,-4.946,-4.9382,-4.9424,-4.9431,-4.9271,-4.9375,-4.9435,-4.9283,-4.9375,-4.9445,-4.9475,-4.9475,-4.9475,-4.9489,-4.9493,-4.9575,-4.9846,-4.9846,-4.9955,-5.0209,-5.0221,-5.0221,-5.0233,-5.0233,-5.0245,-5.0275,-5.0006,-5.0092,-5.0534,-5.0483,-5.0483,-5.0554,-5.0584,-5.0624,-5.0712,-5.0712,-5.0712,-5.0712,-5.0712,-5.0712,-5.0712,-5.0712,-5.0712,-5.0712,-5.0712,-5.0712,-5.0712,0.0,0.0,0.0,0.0,0.0,0.0,0.0,0.0,0.0,0.0,0.0,0.0,0.0,0.0,0.0,0.0,0.0,0.0,0.0,-3.859,-3.9487,-3.9753,-4.0246,-4.0696,-4.1138,-4.1933,-4.249,-4.2847,-4.4083,-4.5062,-4.5735,-4.6284,-4.6566,-4.659,-4.6842,-4.6934,-4.6934,-4.6934,-4.6795,-4.659,-4.6842,0.0,0.0,0.0,0.0,0.0,0.0,0.0,0.0,0.0,0.0,0.0,0.0,0.0,-4.6998,-4.6998,-4.6998,-4.7088,-4.7381,-4.7272,-4.7254,-4.8053,-4.8569,-4.8803,-4.8623,-4.8714,-4.8786,-4.866,-4.8903,-4.9036,-4.873,-4.8937,-4.9118,-4.912,-4.9271,-4.9268,-4.89,-4.9113,-4.9329,-4.9405,-4.942,-4.9416,-4.9489,-4.9431,-4.942,-4.9449,-4.939,-4.936,-4.9375,-4.9375,-4.9405,-4.9479,-4.9479,-4.9508,-4.9561,-4.9566,-4.9706,-5.0043,-4.9794,-4.9834,-5.0147,-5.0206,-5.041,-5.0712,-5.0712,-5.0712,-5.0712,-5.0712,-5.0712,-5.0712,-5.0712,-5.0712,-5.0712,-5.0712,-5.0712,-5.0712,0.0,0.0,0.0,0.0,0.0,0.0,0.0,0.0,0.0,0.0,0.0,0.0,0.0,0.0,0.0,0.0,0.0,0.0,0.0,-3.7738,-3.8368,-3.9126,-3.9702,-4.0071,-4.0246,-4.1107,-4.1819,-4.2365,-4.335,-4.4254,-4.5125,-4.5477,-4.5827,-4.6112,-4.6381,-4.6501,-4.6501,-4.6501,-4.6429,-4.6357,-4.6637,-4.6637,0.0,0.0,0.0,0.0,0.0,0.0,0.0,0.0,-4.6819,-4.6795,-4.6952,-4.6998,-4.6998,-4.6998,-4.6998,-4.698,-4.6939,-4.7007,-4.7125,-4.7374,-4.7937,-4.8439,-4.8513,-4.8587,-4.8606,-4.8587,-4.8678,-4.8714,-4.8605,-4.8587,-4.8623,-4.8714,-4.8712,-4.8658,-4.8514,-4.8604,-4.8693,-4.871,-4.8729,-4.8728,-4.8763,-4.8728,-4.8797,-4.9015,-4.8999,-4.908,-4.9283,-4.9299,-4.9314,-4.9329,-4.9329,-4.9345,-4.9375,-4.924,-4.9259,-4.9382,-4.9493,-4.9746,-5.0092,-5.0135,-5.0302,-5.0573,-5.0663,-5.0692,-5.0633,-5.0673,-5.0712,-5.0712,-5.0712,-5.0712,-5.0712,-5.0712,-5.0712,-5.0712,0.0,0.0,0.0,0.0,0.0,0.0,0.0,0.0,0.0,0.0,0.0,0.0,0.0,0.0,0.0,0.0,0.0,0.0,-3.7078,-3.7309,-3.7767,-3.8486,-3.9075,-3.9502,-3.9681,-4.0335,-4.1021,-4.1785,-4.2694,-4.3588,-4.4468,-4.4756,-4.5054,-4.5363,-4.5657,-4.5759,-4.5759,-4.5759,-4.5759,-4.5767,-4.5943,-4.6059,0.0,0.0,0.0,0.0,0.0,0.0,0.0,0.0,-4.6888,-4.6754,-4.6934,-4.6998,-4.6998,-4.6998,-4.6934,-4.6842,-4.6637,-4.676,-4.6926,-4.6863,-4.7313,-4.7836,-4.7995,-4.8306,-4.8495,-4.8326,-4.842,-4.8532,-4.855,-4.8476,-4.842,-4.8476,-4.8382,-4.8306,-4.8306,-4.8306,-4.8306,-4.8306,-4.8306,-4.8306,-4.8306,-4.8306,-4.8402,-4.8623,-4.8641,-4.8746,-4.8965,-4.8982,-4.8982,-4.8982,-4.9034,-4.905,-4.905,-4.8937,-4.8887,-4.894,-4.9132,-4.9435,-4.9819,-4.9851,-5.0069,-5.0385,-5.0483,-5.0554,-5.0603,-5.0663,-5.0712,-5.0712,-5.0712,-5.0712,-5.0712,-5.0712,-5.0712,-5.0712,0.0,0.0,0.0,0.0,0.0,0.0,0.0,0.0,0.0,0.0,0.0,0.0,0.0,0.0,0.0,0.0,0.0,0.0,-3.6978,-3.7544,-3.7886,-3.7886,-3.8486,-3.909,-3.9681,-3.9681,-4.0176,-4.1088,-4.2237,-4.3229,-4.4001,-4.4282,-4.439,-4.4406,-4.4671,-4.479,-4.479,-4.479,-4.479,-4.479,-4.479,-4.4905,-4.5144,0.0,0.0,0.0,0.0,0.0,0.0,0.0,-4.6998,-4.6998,-4.6998,-4.6998,-4.6998,-4.6998,-4.6819,-4.6613,-4.659,-4.659,-4.6619,-4.6678,-4.6908,-4.7066,-4.6999,-4.7824,-4.8402,-4.7736,-4.8135,-4.8587,-4.8513,-4.855,-4.8569,-4.8494,-4.8382,-4.8306,-4.8306,-4.8306,-4.8306,-4.8306,-4.8306,-4.8306,-4.8306,-4.8306,-4.8306,-4.8306,-4.8306,-4.8306,-4.8306,-4.8306,-4.8306,-4.8306,-4.8438,-4.8513,-4.8513,-4.8569,-4.866,-4.8787,-4.866,-4.88,-4.9214,-4.9331,-4.9655,-5.0104,-5.0183,-5.0366,-5.0603,-5.0663,-5.0712,-5.0712,-5.0712,-5.0712,-5.0712,-5.0712,-5.0712,-5.0712,0.0,0.0,0.0,0.0,0.0,0.0,0.0,0.0,0.0,0.0,0.0,0.0,0.0,0.0,0.0,0.0,0.0,0.0,-3.695,-3.7173,-3.7289,-3.7289,-3.7848,-3.83,-3.8649,-3.9722,-4.0665,-4.1456,-4.2254,-4.2958,-4.3515,-4.3588,-4.3794,-4.4128,-4.4197,-4.4237,-4.4237,-4.4237,-4.4237,-4.4266,-4.4429,-4.4557,-4.4657,0.0,0.0,0.0,0.0,0.0,0.0,0.0,0.0,0.0,-4.6998,-4.6998,-4.6998,-4.6998,-4.6934,-4.6842,-4.6637,-4.6471,-4.6332,-4.6339,-4.6424,-4.6454,-4.6213,-4.7172,-4.8135,-4.8229,-4.8401,-4.8532,-4.8494,-4.8438,-4.8401,-4.8476,-4.8382,-4.8306,-4.8306,-4.8306,-4.8306,-4.8306,-4.8306,-4.8306,-4.8306,-4.8306,-4.8306,-4.8306,-4.8306,-4.8306,-4.8306,-4.8306,-4.8325,-4.8438,-4.8476,-4.8532,-4.8569,-4.8678,-4.8769,-4.8787,-4.8804,-4.9073,-4.955,-4.9541,-4.9865,-5.0396,-5.0493,-5.0573,-5.0603,-5.0663,-5.0712,-5.0712,-5.0712,-5.0712,-5.0712,-5.0712,-5.0712,-5.0712,0.0,0.0,0.0,0.0,0.0,0.0,0.0,0.0,0.0,0.0,-2.9948,-3.0799,0.0,0.0,0.0,0.0,0.0,0.0,0.0,-3.6852,-3.6978,-3.6978,-3.7366,-3.7696,-3.8089,-3.9783,-4.0873,-4.1243,-4.2029,-4.2601,-4.3019,-4.3019,-4.3171,-4.3443,-4.3443,-4.3443,-4.3443,-4.3443,-4.3443,-4.3443,-4.3617,-4.3748,-4.3939,0.0,0.0,0.0,0.0,0.0,0.0,0.0,0.0,0.0,-4.6998,-4.6998,-4.698,-4.6865,-4.6772,-4.6613,-4.6374,-4.6161,-4.6013,-4.5905,-4.5995,-4.6084,-4.6003,-4.6786,-4.7674,-4.8287,-4.8457,-4.8476,-4.8438,-4.8401,-4.8382,-4.8419,-4.8363,-4.8306,-4.8306,-4.8306,-4.8306,-4.8306,-4.8306,-4.8306,-4.8306,-4.8306,-4.8306,-4.8306,-4.8306,-4.8306,-4.8306,-4.8306,-4.8363,-4.8494,-4.8532,-4.8587,-4.8678,-4.8786,-4.884,-4.884,-4.8874,-4.9141,-4.9588,-4.9531,-4.9757,-5.0205,-5.0513,-5.0643,-5.0633,-5.0673,-5.0712,-5.0712,-5.0712,-5.0712,-5.0712,-5.0712,-5.0673,-5.0653,0.0,0.0,-2.4638,-2.6389,0.0,0.0,0.0,0.0,0.0,0.0,-2.8831,-2.9471,0.0,0.0,0.0,0.0,0.0,0.0,0.0,-3.6624,-3.6922,-3.6978,-3.7017,-3.7327,-3.791,-3.9874,-4.0842,-4.0758,-4.1672,-4.2302,-4.2602,-4.2602,-4.2602,-4.2602,-4.2602,-4.2602,-4.2602,-4.2602,-4.2602,-4.2602,-4.2602,-4.2774,-4.3096,-4.3482,0.0,0.0,0.0,0.0,0.0,0.0,0.0,0.0,-4.698,-4.6998,-4.6934,-4.6708,-4.6447,-4.6186,-4.5938,-4.5837,-4.5735,-4.5485,-4.5598,-4.5844,-4.6207,-4.6566,-4.7093,-4.7995,-4.8324,-4.8363,-4.8267,-4.8363,-4.8438,-4.8306,-4.8306,-4.8306,-4.8306,-4.8306,-4.8306,-4.8306,-4.8306,-4.8306,-4.8306,-4.8306,-4.8306,-4.8306,-4.8306,-4.8306,-4.8306,-4.8306,-4.8382,-4.8513,-4.8569,-4.8678,-4.8804,-4.8874,-4.8909,-4.8909,-4.8909,-4.9061,-4.9368,-4.9384,-4.9514,-4.9781,-5.0363,-5.0643,-5.0712,-5.0712,-5.0712,-5.0712,-5.0712,-5.0712,-5.0712,-5.0683,-5.0643,-5.0603,0.0,0.0,-2.4467,-2.5568,0.0,0.0,0.0,0.0,0.0,0.0,0.0,0.0,0.0,0.0,0.0,0.0,0.0,0.0,0.0,-3.623,-3.6511,-3.6964,-3.7148,-3.7582,-3.8279,-3.9361,-4.0297,-4.108,-4.2029,-4.2539,-4.2602,-4.2602,-4.2602,-4.2602,-4.2602,-4.2602,-4.2602,-4.2602,-4.2602,-4.2602,-4.2602,-4.2618,-4.2711,-4.299,-4.3068,0.0,0.0,0.0,0.0,0.0,0.0,0.0,-4.6865,-4.6998,-4.6998,-4.6934,-4.6708,-4.6495,-4.6429,-4.6112,-4.5786,-4.5727,-4.5598,-4.5615,-4.6112,-4.6291,-4.6537,-4.715,-4.7533,-4.7795,-4.7754,-4.8093,-4.8325,-4.8306,-4.8306,-4.8306,-4.8306,-4.8306,-4.8306,-4.8306,-4.8306,-4.8306,-4.8306,-4.8306,-4.8306,-4.8306,-4.8306,-4.8306,-4.8306,-4.8401,-4.8495,-4.8569,-4.8697,-4.8804,-4.8874,-4.8891,-4.8909,-4.8909,-4.8909,-4.8943,-4.901,-4.9289,-4.9655,-5.0111,-5.0513,-5.0692,-5.0712,-5.0712,-5.0712,-5.0712,-5.0712,-5.0712,-5.0683,-5.0633,-5.0613,-5.0603,0.0,0.0,0.0,0.0,0.0,0.0,0.0,0.0,0.0,0.0,0.0,0.0,0.0,-3.0075,0.0,0.0,-3.2719,-3.3628,-3.5101,-3.5742,-3.6385,-3.695,-3.7187,-3.7429,-3.7729,-3.8686,-3.9382,-3.9849,-4.1095,-4.1997,-4.2602,-4.2445,-4.2445,-4.2602,-4.2602,-4.2602,-4.2602,-4.2696,-4.2728,-4.2728,-4.2805,-4.2898,-4.2976,-4.3007,-4.3099,-4.3251,-4.3502,0.0,0.0,0.0,0.0,0.0,0.0,0.0,-4.6459,-4.6321,-4.6435,-4.6542,-4.6284,-4.6013,-4.576,-4.5649,-4.5511,-4.5459,-4.5752,-4.5829,-4.5887,-4.6165,-4.6786,-4.727,-4.727,-4.765,-4.7975,-4.7975,-4.8152,-4.8306,-4.8306,-4.8306,-4.8306,-4.8306,-4.8306,-4.8306,-4.8306,-4.8306,-4.8306,-4.8306,-4.8306,-4.8325,-4.8382,-4.8457,-4.855,-4.8697,-4.875,-4.884,-4.8909,-4.8909,-4.8909,-4.8909,-4.8909,-4.8909,-4.8926,-4.9257,-4.9698,-5.0206,-5.038,-5.0554,-5.0712,-5.0712,-5.0712,-5.0712,-5.0712,-5.0712,-5.0683,-5.0623,-5.0603,-5.0603,0.0,0.0,0.0,0.0,0.0,0.0,0.0,0.0,0.0,0.0,0.0,0.0,0.0,-2.9471,-3.0075,0.0,0.0,0.0,-3.3725,-3.5101,-3.6137,-3.664,-3.7039,-3.7187,-3.6978,-3.8046,-3.8539,-3.845,-3.9809,-4.1145,-4.2397,-4.2206,-4.227,-4.2602,-4.2602,-4.2602,-4.2602,-4.2775,-4.2837,-4.2868,-4.3007,-4.316,-4.3281,-4.3143,-4.3265,-4.3462,-4.3204,-4.3502,-4.4071,-4.4054,0.0,0.0,0.0,0.0,-4.5918,-4.5691,-4.6077,-4.6501,-4.6062,-4.5862,-4.5735,-4.5476,-4.5397,-4.5397,-4.5397,-4.5397,-4.5397,-4.5397,-4.6144,-4.6771,-4.6771,-4.716,-4.7506,-4.7591,-4.7935,-4.821,-4.8287,-4.8306,-4.8306,-4.8306,-4.8306,-4.8306,-4.8306,-4.8306,-4.8306,-4.8306,-4.8306,-4.8363,-4.8476,-4.8494,-4.8606,-4.8787,-4.8804,-4.8839,-4.8909,-4.8909,-4.8909,-4.8909,-4.8909,-4.8909,-4.8909,-4.9193,-4.9612,-5.0135,-5.0183,-5.038,-5.0712,-5.0712,-5.0712,-5.0712,-5.0712,-5.0712,-5.0683,-5.0623,-5.0603,-5.0603,0.0,0.0,0.0,0.0,0.0,0.0,0.0,0.0,0.0,0.0,-2.8007,-2.855,-2.8657,-2.8657,-2.904,-2.9922,-3.0101,-3.0689,-3.2011,0.0,0.0,-3.5171,-3.6373,-3.7017,-3.6978,-3.781,-3.8397,-3.8649,-3.9262,-4.0274,-4.1656,-4.1964,-4.227,-4.2602,-4.2602,-4.2602,-4.2602,-4.2634,-4.2634,-4.2665,-4.2852,-4.293,-4.2992,-4.3082,-4.3143,-4.3174,-4.3113,-4.3265,-4.3565,-4.4013,-4.4356,0.0,0.0,0.0,-4.6144,-4.6137,-4.6332,-4.659,-4.6501,-4.6161,-4.5735,-4.5476,-4.5397,-4.5397,-4.5397,-4.5397,-4.5397,-4.5397,-4.5879,-4.6308,-4.6308,-4.6678,-4.7115,-4.7527,-4.7653,-4.7836,-4.823,-4.8306,-4.8306,-4.8306,-4.8306,-4.8306,-4.8306,-4.8306,-4.8306,-4.8306,-4.8306,-4.8363,-4.8476,-4.8569,-4.8642,-4.8787,-4.8856,-4.8891,-4.8909,-4.8909,-4.8909,-4.8909,-4.8909,-4.8909,-4.8909,-4.896,-4.9296,-4.987,-5.0111,-5.038,-5.0712,-5.0712,-5.0712,-5.0712,-5.0712,-5.0712,-5.0683,-5.0623,-5.0603,-5.0603,0.0,0.0,0.0,0.0,0.0,0.0,0.0,0.0,0.0,0.0,0.0,-2.851,-2.851,-2.851,-2.8803,-2.9626,-2.9704,-3.0304,-3.1705,-3.2655,-3.3668,-3.4864,-3.5503,-3.6186,-3.6978,-3.7443,-3.7696,-3.7744,-3.8921,-3.9874,-4.0572,-4.1607,-4.227,-4.2602,-4.2602,-4.2602,-4.2602,-4.2728,-4.2775,-4.279,-4.2945,-4.3068,-4.316,-4.3113,-4.3174,-4.3235,-4.3143,-4.3113,-4.316,-4.3472,-4.3591,-4.3667,-4.3968,0.0,0.0,0.0,-4.6168,-4.6754,-4.6471,-4.6087,-4.5735,-4.5476,-4.5397,-4.5397,-4.5397,-4.5397,-4.5397,-4.5397,-4.5589,-4.5752,-4.5752,-4.6161,-4.6654,-4.7138,-4.7421,-4.7775,-4.823,-4.8306,-4.8306,-4.8306,-4.8306,-4.8306,-4.8306,-4.8306,-4.8306,-4.8306,-4.8306,-4.8363,-4.8476,-4.855,-4.866,-4.8787,-4.8856,-4.8909,-4.8909,-4.8909,-4.8909,-4.8909,-4.8909,-4.8909,-4.8909,-4.8909,-4.9158,-4.9583,-4.987,-5.0135,-5.0432,-5.0624,-5.0712,-5.0712,-5.0712,-5.0712,-5.0683,-5.0623,-5.0603,-5.0603,0.0,0.0,0.0,0.0,0.0,0.0,0.0,0.0,0.0,0.0,0.0,-2.851,-2.851,0.0,0.0,0.0,-2.9406,-2.9841,-3.0894,-3.1512,-3.259,-3.4307,-3.4901,-3.5792,-3.6964,-3.7187,-3.7226,-3.707,-3.8442,-3.9254,-3.9617,-4.0758,-4.1558,-4.2045,-4.2254,-4.2222,-4.2045,-4.2254,-4.246,-4.2618,-4.2805,-4.3082,-4.3372,-4.3235,-4.3295,-4.3432,-4.3265,-4.316,-4.3054,-4.3143,-4.3068,-4.2976,-4.3204,-4.4054,0.0,0.0,0.0,-4.6684,-4.6235,-4.6013,-4.5811,-4.5485,-4.5432,-4.5485,-4.5423,-4.5397,-4.5397,-4.5397,-4.5397,-4.5397,-4.5397,-4.5744,-4.6193,-4.6794,-4.7182,-4.763,-4.8229,-4.8306,-4.8306,-4.8306,-4.8306,-4.8306,-4.8306,-4.8306,-4.8306,-4.8306,-4.8306,-4.8382,-4.8532,-4.8569,-4.8678,-4.8822,-4.8874,-4.8909,-4.8909,-4.8909,-4.8909,-4.8909,-4.8909,-4.8909,-4.8909,-4.8976,-4.9176,-4.9411,-4.9679,-5.0,-5.0347,-5.0604,-5.0712,-5.0712,-5.0712,-5.0712,-5.0683,-5.0643,-5.0623,-5.0623,0.0,0.0,0.0,0.0,0.0,0.0,0.0,0.0,0.0,0.0,0.0,-2.851,-2.851,-2.851,-2.851,-2.855,-2.8538,-2.859,-2.8666,-3.0648,-3.2135,-3.2896,-3.4915,0.0,-3.6978,-3.7187,-3.7303,-3.7264,-3.7572,-3.8173,-3.9037,-3.913,-3.9632,-4.0554,-4.1245,-4.1178,-4.0519,-4.0721,-4.1227,-4.1868,-4.2061,-4.2649,-4.3402,-4.3372,-4.3462,-4.3598,-4.3598,-4.3509,-4.3388,-4.3372,-4.3235,-4.3174,-4.3608,-4.4202,-4.4818,0.0,0.0,0.0,-4.5887,-4.5988,-4.6038,-4.5537,-4.5572,-4.5727,-4.5476,-4.5397,-4.5397,-4.5397,-4.5397,-4.5397,-4.5397,-4.5423,-4.5778,-4.6747,-4.6931,-4.7266,-4.8172,-4.8306,-4.8306,-4.8306,-4.8306,-4.8306,-4.8306,-4.8306,-4.8306,-4.8306,-4.8306,-4.8401,-4.8569,-4.8587,-4.8696,-4.8891,-4.8909,-4.8909,-4.8909,-4.8909,-4.8909,-4.8909,-4.8909,-4.8909,-4.8926,-4.9241,-4.9384,-4.9411,-4.9679,-5.013,-5.0673,-5.0683,-5.0712,-5.0712,-5.0712,-5.0712,-5.0712,-5.0702,-5.0683,-5.0683,0.0,0.0,0.0,0.0,0.0,0.0,0.0,0.0,0.0,0.0,0.0,0.0,0.0,-2.851,-2.851,-2.851,-2.851,-2.851,-2.851,-2.9736,-3.0958,-3.2123,-3.3801,-3.5287,-3.6388,-3.7013,-3.7226,-3.7109,-3.8046,-3.8613,-3.8833,-3.9576,-3.9824,-3.9768,-4.0977,-4.1344,-4.1145,-4.1672,-4.2077,-4.2317,-4.2397,-4.2696,-4.3068,-4.2945,-4.3052,-4.3265,-4.3265,-4.3235,-4.3235,-4.3462,-4.3432,-4.3342,-4.3582,-4.4316,-4.5267,-4.6168,-4.6429,-4.6447,-4.6332,-4.6259,-4.6161,-4.5955,-4.5854,-4.576,-4.5675,-4.5511,-4.5397,-4.5397,-4.5397,-4.5397,-4.5397,-4.5397,-4.5641,-4.6339,-4.6459,-4.6794,-4.7733,-4.7856,-4.7975,-4.8267,-4.8306,-4.8306,-4.8306,-4.8306,-4.8306,-4.8306,-4.8382,-4.8457,-4.8532,-4.866,-4.875,-4.8821,-4.8874,-4.8909,-4.8909,-4.8909,-4.8909,-4.8909,-4.8909,-4.8909,-4.8909,-4.9027,-4.9283,-4.967,-4.9762,-5.0025,-5.041,-5.0614,-5.0712,-5.0712,-5.0712,-5.0712,-5.0712,-5.0712,-5.0663,-5.0633,0.0,0.0,0.0,-2.0957,0.0,-2.2084,-2.3392,-2.475,-2.5975,-2.708,0.0,0.0,0.0,0.0,-2.851,-2.851,-2.851,-2.851,-2.851,-2.9523,-3.0624,-3.1757,-3.3171,-3.4637,-3.6165,-3.6368,-3.6676,-3.7187,-3.7829,-3.8238,-3.8472,-3.9211,-3.9356,-3.8994,-4.0209,-4.0622,-4.0416,-4.0977,-4.1492,-4.1965,-4.1948,-4.2349,-4.2945,-4.2759,-4.2883,-4.3113,-4.3174,-4.3174,-4.3143,-4.3432,-4.3432,-4.3342,-4.3582,-4.4288,-4.5214,-4.6168,-4.6332,-4.6235,-4.6423,-4.6405,-4.6308,-4.6211,-4.6137,-4.6013,-4.5837,-4.5675,-4.5511,-4.5423,-4.5397,-4.5397,-4.5397,-4.5537,-4.5778,-4.6137,-4.6315,-4.6701,-4.7485,-4.7611,-4.7756,-4.823,-4.8306,-4.8306,-4.8306,-4.8306,-4.8306,-4.8306,-4.842,-4.8494,-4.8513,-4.8697,-4.8804,-4.884,-4.8874,-4.8909,-4.8909,-4.8909,-4.8909,-4.8909,-4.8909,-4.8909,-4.8909,-4.901,-4.9346,-4.9817,-4.991,-5.0099,-5.0399,-5.0614,-5.0712,-5.0712,-5.0712,-5.0712,-5.0712,-5.0712,-5.0663,-5.0633,0.0,-2.0605,-2.0605,-2.0605,-2.0937,-2.1649,-2.304,-2.433,-2.5702,-2.7075,0.0,0.0,0.0,0.0,0.0,-2.851,-2.851,-2.851,-2.851,-2.9999,-3.1143,-3.1757,-3.3056,-3.4599,-3.6316,-3.5319,-3.5701,-3.7586,-3.6822,-3.6949,-3.7891,-3.7891,-3.8005,-3.824,-3.8972,-3.8863,-3.8202,-3.8464,-3.9406,-4.0758,-4.0721,-4.1689,-4.3082,-4.2945,-4.2976,-4.3143,-4.3312,-4.3265,-4.3143,-4.3342,-4.3265,-4.3188,-4.3667,-4.4133,-4.4642,-4.5239,-4.5441,-4.5529,0.0,0.0,0.0,-4.6284,-4.6405,-4.6453,-4.5938,-4.5811,-4.5752,-4.5476,-4.5423,-4.5397,-4.5397,-4.5829,-4.6186,-4.6186,-4.656,-4.7026,-4.7506,-4.7569,-4.7754,-4.821,-4.8287,-4.8287,-4.8306,-4.8306,-4.8306,-4.8306,-4.8438,-4.8513,-4.8587,-4.8732,-4.884,-4.8909,-4.8909,-4.8909,-4.8909,-4.8909,-4.8909,-4.8909,-4.8909,-4.8909,-4.8926,-4.9257,-4.9544,-4.9798,-5.0068,-5.038,-5.0712,-5.0712,-5.0712,-5.0712,-5.0712,-5.0712,-5.0712,-5.0712,-5.0712,-5.0712,-2.0527,-2.0489,-2.0411,-2.0566,-2.0937,-2.184,-2.3859,-2.4734,-2.5905,0.0,0.0,0.0,-2.851,-2.851,-2.851,-2.851,-2.851,-2.851,-2.851,-2.9445,-3.0291,-3.085,-3.2825,-3.4317,-3.5137,-3.5956,-3.664,-3.7187,-3.7094,-3.7262,-3.7701,-3.7815,-3.8005,-3.8202,-3.8412,-3.8375,-3.8277,-3.9391,-4.074,-4.2045,-4.1492,-4.1868,-4.2711,-4.2696,-4.2867,-4.3113,-4.3174,-4.3295,-4.3462,-4.3539,-4.3432,-4.3446,-4.4202,-4.4541,-4.4872,-4.5945,-4.6137,-4.6087,-4.6637,0.0,0.0,0.0,0.0,0.0,-4.6405,-4.6235,-4.6013,-4.5735,-4.5701,-4.5624,-4.545,-4.5829,-4.6062,-4.5693,-4.6062,-4.6435,-4.656,-4.6584,-4.689,-4.7695,-4.7795,-4.7935,-4.8267,-4.8306,-4.8306,-4.8306,-4.8476,-4.8587,-4.8605,-4.8767,-4.8874,-4.8909,-4.8909,-4.8909,-4.8909,-4.8909,-4.8909,-4.8909,-4.8909,-4.8909,-4.8926,-4.9257,-4.9544,-4.9798,-5.0068,-5.038,-5.0712,-5.0712,-5.0712,-5.0712,-5.0712,-5.0712,-5.0712,-5.0712,-5.0712,-5.0712,-2.0294,-2.0381,-2.0342,-2.0566,-2.1085,-2.2123,-2.4172,-2.5036,-2.616,0.0,0.0,0.0,-2.851,-2.851,-2.851,-2.851,-2.8816,-2.8843,-2.851,-2.9549,-3.0433,-3.1033,-3.2579,-3.4034,-3.5383,-3.582,-3.6426,-3.7264,-3.7124,-3.7291,-3.7739,-3.7915,-3.8104,-3.8202,-3.8202,-3.8546,-3.9139,-3.9733,-4.0622,-4.1624,-4.1211,-4.1672,-4.2602,-4.2602,-4.2711,-4.2929,-4.3052,-4.3235,-4.3402,-4.3568,-4.3658,-4.3759,-4.4047,-4.4373,-4.4763,-4.5572,-4.5844,-4.5988,-4.6518,-4.6637,-4.6637,-4.6778,0.0,0.0,-4.6477,-4.6308,-4.6087,-4.5727,-4.5624,-4.5589,-4.5423,-4.5829,-4.6013,-4.5502,-4.6013,-4.6411,-4.6235,-4.6211,-4.6483,-4.7226,-4.7485,-4.7695,-4.7975,-4.8191,-4.8306,-4.8306,-4.8495,-4.8623,-4.8732,-4.8838,-4.8909,-4.8909,-4.8909,-4.8909,-4.8909,-4.8909,-4.8909,-4.8909,-4.8909,-4.8959,-4.911,-4.9321,-4.9598,-4.9987,-5.0135,-5.038,-5.0712,-5.0712,-5.0712,-5.0712,-5.0712,-5.0712,-5.0712,-5.0712,-5.0712,-5.0712,0.0,-2.0264,-2.0342,-2.0566,-2.128,-2.2391,-2.4131,-2.5149,-2.6364,0.0,-2.8474,-2.851,-2.851,-2.851,-2.855,-2.8618,-2.9223,-2.9289,-2.8657,-3.0062,-3.1121,-3.1771,-3.2502,-3.3998,-3.6339,-3.5493,-3.5873,-3.7625,-3.7068,-3.7195,-3.7891,-3.8066,-3.824,-3.83,-3.824,-3.903,-4.0347,-3.9626,-3.9753,-4.0519,-4.0519,-4.1377,-4.2634,-4.2602,-4.2602,-4.2665,-4.2959,-4.3113,-4.3174,-4.3462,-4.3776,-4.3981,-4.3641,-4.3989,-4.4586,-4.4818,-4.5169,-4.558,-4.6062,-4.6357,-4.6566,-4.659,-4.6795,0.0,-4.6381,-4.6284,-4.6154,-4.5641,-4.5537,-4.5511,-4.5485,-4.5879,-4.6038,-4.5563,-4.62,-4.6631,-4.6161,-4.6161,-4.6339,-4.6771,-4.7204,-4.7485,-4.7611,-4.7995,-4.8249,-4.8325,-4.8495,-4.8714,-4.8891,-4.8909,-4.8909,-4.8909,-4.8909,-4.8909,-4.8909,-4.8909,-4.8909,-4.8909,-4.8943,-4.911,-4.9415,-4.9457,-4.9754,-5.0206,-5.023,-5.0421,-5.0712,-5.0712,-5.0712,-5.0712,-5.0712,-5.0712,-5.0712,-5.0712,-5.0712,-5.0712,-2.0147,-2.0147,-2.0098,-2.0527,-2.128,-2.2275,-2.3662,-2.4912,-2.6209,-2.7672,-2.8246,-2.851,-2.851,-2.851,-2.8776,-2.9406,-2.904,-2.8961,-2.9433,-3.0223,-3.0991,-3.1698,-3.362,-3.5182,-3.6286,-3.6782,-3.7214,-3.7625,-3.7496,-3.7587,-3.7891,-3.7929,-3.8375,-3.9066,-3.8472,-3.903,-4.0347,-3.9626,-4.0069,-4.1278,-4.1278,-4.19,-4.2837,-4.2665,-4.2696,-4.2868,-4.293,-4.3099,-4.3342,-4.3402,-4.3462,-4.3641,-4.4259,-4.4541,-4.4845,-4.5649,-4.597,-4.6062,-4.6161,-4.6235,-4.6332,-4.6542,-4.6637,0.0,-4.6819,-4.6842,-4.6731,-4.6447,-4.6374,-4.6301,-4.6087,-4.6137,-4.6161,-4.6062,-4.6038,-4.5912,-4.5589,-4.593,-4.6235,-4.6332,-4.6411,-4.6799,-4.7671,-4.7754,-4.7957,-4.8495,-4.8678,-4.8786,-4.8891,-4.8909,-4.8909,-4.8909,-4.8909,-4.8909,-4.8909,-4.8909,-4.8909,-4.8909,-4.9176,-4.9337,-4.9396,-4.9844,-5.0111,-5.0206,-5.0483,-5.0634,-5.0712,-5.0712,-5.0712,-5.0712,-5.0712,-5.0712,-5.0712,-5.0712,-5.0712,-5.0712,-1.9942,-1.9981,-2.002,-2.0372,-2.1538,-2.2698,-2.3591,-2.5173,-2.6647,-2.7579,-2.8186,-2.851,-2.851,-2.8843,-2.9106,-2.9106,-2.9484,-2.9635,-2.9527,-3.0553,-3.1627,-3.2544,-3.4151,-3.5609,-3.678,-3.7211,-3.7495,-3.7625,-3.7701,-3.7815,-3.7891,-3.7991,-3.8486,-3.9269,-3.8921,-3.9555,-4.0927,-4.0554,-4.1095,-4.2142,-4.1705,-4.2013,-4.2728,-4.2634,-4.2728,-4.2899,-4.2899,-4.3115,-4.3402,-4.3402,-4.3625,-4.4018,-4.4328,-4.4828,-4.5302,-4.5572,-4.5819,-4.5963,-4.5829,-4.5905,-4.6038,-4.6161,-4.6308,0.0,0.0,-4.6501,-4.6501,-4.6259,-4.6308,-4.6357,-4.6211,-4.6211,-4.6211,-4.6211,-4.6168,-4.6126,-4.607,-4.5912,-4.5905,-4.6161,-4.6291,-4.6566,-4.7097,-4.7609,-4.8132,-4.866,-4.8769,-4.884,-4.8909,-4.8909,-4.8909,-4.8909,-4.8909,-4.8909,-4.8909,-4.8909,-4.8909,-4.8909,-4.9241,-4.9472,-4.9612,-5.0025,-5.0294,-5.0472,-5.0624,-5.0712,-5.0712,-5.0712,-5.0712,-5.0712,-5.0712,-5.0712,-5.0712,-5.0712,-5.0712,-5.0712,-1.9696,-1.9942,-2.0059,-2.0294,-2.1832,-2.3126,-2.352,-2.5469,-2.7126,-2.775,-2.8352,-2.8736,-2.8736,-2.9484,-2.9768,-2.9289,-3.0329,-3.0764,-3.0096,-3.15,-3.2801,-3.3847,-3.4908,-3.6097,-3.7429,-3.7457,-3.7572,-3.7739,-3.7891,-3.7967,-3.7967,-3.8127,-3.8694,-3.952,-3.9341,-4.0209,-4.1689,-4.1558,-4.2013,-4.2775,-4.2013,-4.2077,-4.2665,-4.2602,-4.2696,-4.2868,-4.293,-4.3146,-4.3402,-4.3402,-4.3802,-4.4305,-4.4299,-4.492,-4.5615,-4.5337,-4.552,-4.5811,-4.5502,-4.5563,-4.5752,-4.5786,-4.5963,-4.6087,0.0,0.0,0.0,-4.5912,-4.6087,-4.6284,-4.6284,-4.6308,-4.6304,-4.6139,-4.6353,-4.6537,-4.6598,-4.6007,-4.5778,-4.6339,-4.6376,-4.6478,-4.6763,-4.7733,-4.8457,-4.8769,-4.8804,-4.8839,-4.8909,-4.8909,-4.8909,-4.8909,-4.8909,-4.8909,-4.8909,-4.8909,-4.8925,-4.8993,-4.9334,-4.9612,-4.9897,-5.0159,-5.0442,-5.0712,-5.0712,-5.0712,-5.0712,-5.0712,-5.0712,-5.0712,-5.0712,-5.0712,-5.0712,-5.0712,-5.0712,-5.0712,-1.9824,-2.0098,-2.0303,-2.0527,-2.1907,-2.3016,-2.306,-2.5237,-2.7246,-2.8294,-2.9069,-2.9549,-2.9549,-3.0443,-3.1291,-3.1878,-3.1659,-3.1827,-3.279,-3.3707,-3.4499,-3.5239,-3.6763,-3.7729,-3.8089,-3.8089,-3.8127,-3.8127,-3.8165,-3.8179,-3.8165,-3.8202,-3.8936,-4.0243,-3.9591,-4.0485,-4.2429,-4.177,-4.1933,-4.2634,-4.2523,-4.2634,-4.2837,-4.2665,-4.2602,-4.2665,-4.2959,-4.3204,-4.3402,-4.3402,-4.3462,-4.3654,-4.4401,-4.4882,-4.5241,-4.5615,-4.5938,-4.6038,-4.5537,-4.5423,-4.5511,-4.5735,-4.5837,-4.5912,-4.6112,0.0,-4.6186,-4.6161,0.0,-4.6566,-4.6566,0.0,0.0,-4.5962,-4.6246,-4.6506,-4.6295,-4.6171,-4.6346,-4.6995,-4.6382,-4.6406,-4.7797,-4.8476,-4.8821,-4.8804,-4.8875,-4.8891,-4.8909,-4.8909,-4.8909,-4.8909,-4.8909,-4.8909,-4.8909,-4.8909,-4.9044,-4.9352,-4.9627,-4.991,-5.0171,-5.0493,-5.0663,-5.0712,-5.0712,-5.0712,-5.0712,-5.0712,-5.0712,-5.0712,-5.0712,-5.0712,-5.0712,-5.0712,-5.0712,-5.0712,-2.0069,-2.0108,-2.0255,-2.0867,-2.1973,-2.2936,-2.3438,-2.5427,-2.7282,-2.8366,-2.9184,-2.9704,-2.9704,-3.0919,-3.1659,-3.1549,-3.1842,-3.2307,-3.3011,-3.3382,-3.4297,-3.588,-3.6381,-3.7003,-3.7825,-3.7839,-3.7915,-3.8028,-3.8127,-3.8202,-3.8202,-3.8202,-3.9009,-4.0382,-4.0069,-4.0943,-4.2571,-4.2285,-4.2317,-4.2602,-4.2602,-4.2665,-4.2728,-4.2634,-4.2665,-4.279,-4.2945,-4.316,-4.3372,-4.3281,-4.3595,-4.4162,-4.4838,-4.5258,-4.5589,-4.5938,-4.6013,-4.5887,-4.5511,-4.5511,-4.5624,-4.5589,-4.5675,-4.5786,-4.5752,-4.5854,-4.6013,-4.6161,0.0,0.0,0.0,0.0,0.0,0.0,-4.6448,-4.6676,-4.691,-4.611,-4.59,-4.691,-4.6753,-4.7026,-4.8154,-4.8477,-4.866,-4.8787,-4.8856,-4.8891,-4.8839,-4.8874,-4.8909,-4.8909,-4.8909,-4.8909,-4.8909,-4.8909,-4.8959,-4.9127,-4.9579,-4.987,-4.9981,-5.0472,-5.0712,-5.0712,-5.0712,-5.0712,-5.0712,-5.0712,-5.0712,-5.0712,-5.0712,-5.0712,-5.0702,-5.0784,-5.0819,-5.0819,-2.0108,-2.0216,-2.0479,-2.1165,-2.2199,-2.3368,-2.4558,-2.5973,-2.7282,-2.8366,-2.9184,-2.9704,-2.9704,-3.118,-3.1965,-3.1365,-3.2382,-3.3243,-3.3641,-3.3871,-3.4829,-3.666,-3.6506,-3.6716,-3.7404,-3.7649,-3.7725,-3.7649,-3.8014,-3.8202,-3.8202,-3.8412,-3.9175,-4.0416,-4.0622,-4.1426,-4.2602,-4.2602,-4.2602,-4.2602,-4.2602,-4.2602,-4.2602,-4.2602,-4.2728,-4.2899,-4.2899,-4.3068,-4.3281,-4.3113,-4.3489,-4.4145,-4.4756,-4.5161,-4.5494,-4.5945,-4.6013,-4.5837,-4.5572,-4.5649,-4.5735,-4.5476,-4.5537,-4.5649,-4.5432,-4.5563,-4.5752,-4.5955,-4.6235,0.0,0.0,0.0,-4.6863,-4.6447,0.0,-4.6705,-4.6701,-4.5863,-4.5622,-4.6739,-4.683,-4.7021,-4.7571,-4.7795,-4.8051,-4.8435,-4.8522,-4.8651,-4.8786,-4.8856,-4.8909,-4.8909,-4.8909,-4.8909,-4.8909,-4.8909,-4.896,-4.9044,-4.955,-4.9844,-4.9936,-5.0462,-5.0712,-5.0712,-5.0712,-5.0712,-5.0712,-5.0712,-5.0712,-5.0712,-5.0712,-5.0712,-5.0712,-5.081,-5.0841,-5.0841,-1.9863,-2.0595,-2.1242,-2.1461,-2.2809,-2.4512,-2.6494,-2.6873,-2.7282,-2.8366,-2.9184,-2.9704,-2.9704,-3.1291,-3.2362,-3.2362,-3.3831,-3.4982,-3.5581,-3.6421,-3.7178,-3.7825,-3.8014,-3.772,-3.6936,-3.7758,-3.7772,-3.6936,-3.7772,-3.8202,-3.8202,-3.8936,-3.9662,-4.0416,-4.1145,-4.1868,-4.2602,-4.2602,-4.2602,-4.2602,-4.2602,-4.2602,-4.2602,-4.2602,-4.2728,-4.2899,-4.2899,-4.2976,-4.3082,-4.2945,-4.293,-4.3068,-4.3798,-4.4226,-4.4629,-4.552,-4.5988,-4.6137,-4.5862,-4.5786,-4.5735,-4.5476,-4.5397,-4.5397,-4.5397,-4.5397,-4.5423,-4.5423,-4.5854,-4.6211,-4.6211,-4.6637,-4.673,-4.594,-4.648,0.0,0.0,-4.5316,-4.6026,-4.6728,-4.636,-4.5938,-4.5714,-4.6226,-4.6852,-4.7582,-4.7687,-4.8057,-4.8767,-4.8856,-4.8909,-4.8909,-4.8909,-4.8909,-4.8909,-4.8909,-4.9061,-4.9399,-4.9684,-4.9949,-5.0195,-5.0544,-5.0712,-5.0712,-5.0712,-5.0712,-5.0712,-5.0712,-5.0712,-5.0712,-5.0712,-5.0712,-5.0693,-5.0693,-5.0721,-5.0721,-2.0167,-2.1001,-2.1652,-2.1869,-2.2872,-2.4354,-2.6568,-2.736,-2.8102,-2.9153,-3.0443,-3.1304,-3.1304,-3.2318,-3.3002,-3.3002,-3.398,-3.4867,-3.5514,-3.5648,-3.6328,-3.7825,-3.6439,-3.6227,-3.7519,-3.7144,-3.7144,-3.7558,-3.7976,-3.8202,-3.8202,-3.8449,-3.9247,-4.0416,-4.0656,-4.1459,-4.2602,-4.2602,-4.2602,-4.2602,-4.2602,-4.2602,-4.2602,-4.2602,-4.2728,-4.2868,-4.2728,-4.2867,-4.3082,-4.2961,-4.3099,-4.3489,-4.4231,-4.4524,-4.4773,-4.5563,-4.5752,-4.5667,-4.5563,-4.5675,-4.5735,-4.5476,-4.5537,-4.5624,-4.545,-4.5397,-4.545,-4.5624,-4.5811,-4.5938,-4.5938,-4.6357,-4.6572,-4.6141,-4.6594,-4.6605,0.0,-4.4767,-4.4157,-4.385,-4.4959,-4.5773,-4.5847,-4.6379,-4.6911,-4.7422,-4.7776,-4.8163,-4.8641,-4.8821,-4.8909,-4.8909,-4.8909,-4.8909,-4.8909,-4.8909,-4.896,-4.9077,-4.9565,-4.9857,-4.9943,-5.0462,-5.0712,-5.0712,-5.0712,-5.0712,-5.0712,-5.0712,-5.0712,-5.0712,-5.0712,-5.0712,-5.0702,-5.0801,-5.0825,-5.0825,-2.0731,-2.1413,-2.1983,-2.2499,-2.3452,-2.4769,-2.6605,-2.7558,-2.8485,-2.9553,-3.0857,-3.1673,-3.1673,-3.239,-3.286,-3.286,-3.4034,-3.4949,-3.5469,-3.5693,-3.6413,-3.7725,-3.6281,-3.6082,-3.7404,-3.7067,-3.7067,-3.7558,-3.7976,-3.8202,-3.8202,-3.8486,-3.9247,-4.0416,-4.0656,-4.1444,-4.2602,-4.2602,-4.2602,-4.2602,-4.2602,-4.2602,-4.2602,-4.2602,-4.2665,-4.2775,-4.2634,-4.2743,-4.2929,-4.3021,-4.3248,-4.3621,-4.444,-4.4708,-4.4845,-4.5589,-4.5675,-4.5537,-4.5537,-4.5675,-4.5735,-4.5476,-4.5537,-4.5598,-4.545,-4.5397,-4.5476,-4.5735,-4.5811,-4.5862,-4.6062,-4.6284,-4.6453,-4.6495,-4.6684,-4.6514,0.0,-4.4053,-4.2876,-4.2361,-4.3632,-4.4725,-4.5094,-4.5443,-4.5993,-4.6777,-4.7278,-4.7758,-4.8328,-4.8695,-4.8909,-4.8909,-4.8909,-4.8909,-4.8909,-4.8909,-4.8909,-4.8909,-4.9521,-4.9803,-4.983,-5.041,-5.0712,-5.0712,-5.0712,-5.0712,-5.0712,-5.0712,-5.0712,-5.0712,-5.0712,-5.0712,-5.0702,-5.0793,-5.0816,-5.0816,-2.1489,-2.1869,-2.2274,-2.3379,-2.4492,-2.5637,-2.6729,-2.7594,-2.8522,-2.963,-3.0481,-3.1007,-3.1007,-3.1709,-3.216,-3.22,-3.4057,-3.5277,-3.554,-3.6623,-3.738,-3.7586,-3.7534,-3.725,-3.6702,-3.7443,-3.7558,-3.6936,-3.781,-3.8202,-3.8202,-3.8972,-3.9682,-4.0416,-4.1178,-4.19,-4.2602,-4.2602,-4.2602,-4.2602,-4.2602,-4.2602,-4.2602,-4.2602,-4.2602,-4.2602,-4.2634,-4.2618,-4.2711,-4.3171,-4.3336,-4.3469,-4.4412,-4.4708,-4.4845,-4.558,-4.5786,-4.5786,-4.5786,-4.5786,-4.5727,-4.5459,-4.5397,-4.5397,-4.5397,-4.5397,-4.5459,-4.5727,-4.5786,-4.5963,-4.6447,-4.6357,-4.6357,-4.6865,-4.6713,-4.6099,-4.4777,-4.3304,-4.2343,-4.2308,-4.255,-4.2918,-4.3399,-4.356,-4.4236,-4.566,-4.6213,-4.6907,-4.7868,-4.8513,-4.8872,-4.8909,-4.8909,-4.8909,-4.8909,-4.8909,-4.8909,-4.8909,-4.9506,-4.979,-4.9803,-5.0388,-5.0673,-5.0673,-5.0683,-5.0712,-5.0712,-5.0712,-5.0712,-5.0712,-5.0712,-5.0712,-5.0712,-5.0712,-5.0712,-5.0712,-2.1603,-2.2894,-2.3886,-2.4177,-2.4514,-2.5155,-2.6504,-2.7864,-2.9215,-3.0439,-3.1809,-3.2668,-3.2668,-3.286,-3.3161,-3.3606,-3.4579,-3.5423,-3.5925,-3.6672,-3.7226,-3.7586,-3.6847,-3.6858,-3.7772,-3.7222,-3.7159,-3.7649,-3.8014,-3.8127,-3.8005,-3.8899,-3.9682,-4.0416,-4.1178,-4.19,-4.2602,-4.2602,-4.2602,-4.2602,-4.2602,-4.2602,-4.2602,-4.2602,-4.2602,-4.2665,-4.3005,-4.3111,-4.3202,-4.3663,-4.381,-4.3927,-4.4496,-4.4708,-4.4818,-4.5336,-4.5511,-4.5511,-4.5511,-4.5511,-4.5502,-4.5423,-4.5397,-4.5397,-4.5397,-4.5397,-4.5423,-4.5485,-4.5675,-4.5786,-4.5718,-4.598,-4.6186,-4.6112,-4.5863,-4.5437,-4.4706,-4.3804,-4.2965,-4.2358,-4.2721,-4.2962,-4.2918,-4.3645,-4.4494,-4.5411,-4.5892,-4.6744,-4.8118,-4.8069,-4.8277,-4.889,-4.8909,-4.8909,-4.8909,-4.8909,-4.8909,-4.889,-4.9318,-4.9499,-4.9514,-5.0081,-5.0336,-5.0347,-5.0604,-5.0712,-5.0712,-5.0712,-5.0712,-5.0712,-5.0712,-5.0712,-5.0712,-5.0712,-5.0712,-5.0712,-2.2031,-2.3434,-2.4381,-2.4381,-2.4942,-2.5756,-2.6941,-2.8161,-2.9535,-3.1222,-3.2209,-3.2895,-3.3241,-3.329,-3.3529,-3.4147,-3.4801,-3.5456,-3.6061,-3.668,-3.7109,-3.7341,-3.6769,-3.6925,-3.7915,-3.7352,-3.7327,-3.7891,-3.7991,-3.7991,-3.7891,-3.8449,-3.9305,-4.0416,-4.0826,-4.1591,-4.2602,-4.2602,-4.2602,-4.2602,-4.2602,-4.2602,0.0,-4.2602,-4.2602,-4.268,-4.3366,-4.3456,-4.3396,-4.4071,-4.4316,-4.4401,-4.4862,-4.5015,-4.5069,-4.53,-4.5397,-4.5397,-4.5397,-4.5397,-4.5397,-4.5397,-4.5397,-4.5397,-4.5397,-4.5397,-4.5423,-4.5563,-4.5598,-4.5649,-4.5727,-4.5803,-4.5854,-4.5811,-4.5585,-4.5285,-4.4978,-4.411,-4.334,-4.2876,-4.2768,-4.2685,-4.253,-4.3601,-4.4466,-4.4892,-4.5477,-4.6297,-4.7373,-4.7609,-4.7986,-4.8659,-4.882,-4.8909,-4.8909,-4.8909,-4.8909,-4.8909,-4.9241,-4.9399,-4.9396,-4.983,-5.0038,-5.0031,-5.0347,-5.0483,-5.0493,-5.0634,-5.0712,-5.0712,-5.0712,-5.0712,-5.0712,-5.0712,-5.0712,-5.0712,-2.2381,-2.3409,-2.3959,-2.4152,-2.5456,-2.6809,-2.7764,-2.861,-2.9873,-3.1847,-3.2196,-3.2511,-3.3206,-3.3206,-3.3451,-3.4259,-3.4769,-3.5372,-3.6188,-3.6722,-3.7017,-3.7017,-3.7017,-3.7226,-3.7586,-3.7625,-3.7701,-3.7815,-3.7853,-3.7853,-3.7815,-3.7967,-3.8863,-4.0366,-4.0451,-4.1278,-4.2602,-4.2602,-4.2602,-4.2602,-4.2602,-4.2602,-4.2602,-4.2602,-4.2602,-4.2711,-4.368,-4.3722,-4.3545,-4.4485,-4.479,-4.4845,-4.5274,-4.5397,-4.5397,-4.5397,-4.5397,-4.5397,-4.5397,-4.5397,-4.5397,-4.5397,-4.5397,-4.5397,-4.5397,-4.5397,-4.5476,-4.5701,-4.5572,-4.5589,-4.603,-4.5701,-4.5485,-4.576,-4.5607,-4.5435,-4.5398,-4.4445,-4.3725,-4.364,-4.3016,0.0,-4.2448,-4.3497,-4.4196,-4.424,-4.4979,-4.5674,-4.6266,-4.7059,-4.7752,-4.8328,-4.866,-4.8874,-4.8909,-4.8909,-4.8909,-4.8909,-4.9193,-4.9318,-4.9334,-4.9627,-4.9749,-4.9762,-5.0019,-5.0171,-5.0218,-5.0504,-5.0663,-5.0712,-5.0712,-5.077,-5.0866,-5.0866,-5.0943,-5.102,-2.1766,-2.2107,-2.2633,-2.397,-2.5397,-2.6844,-2.832,-2.9735,-3.0989,-3.1956,-3.2668,-3.3122,-3.3276,-3.2704,-3.3059,-3.4862,-3.4547,-3.4958,-3.6715,-3.6922,-3.707,-3.7226,-3.7264,-3.7341,-3.7586,-3.7777,-3.7701,-3.7419,-3.7739,-3.7739,-3.7419,-3.8211,-3.9145,-4.0178,-4.0795,-4.1641,-4.2602,-4.2602,-4.2602,-4.2602,-4.2602,-4.2602,-4.2602,-4.2602,-4.2602,-4.2711,-4.368,-4.3943,-4.403,-4.4961,-4.5274,-4.5274,-4.5371,-4.5397,-4.5397,-4.5397,-4.5397,-4.5397,-4.5397,-4.5397,-4.5397,-4.5397,-4.5397,-4.5397,-4.5397,-4.5397,-4.5423,-4.5459,-4.5598,-4.5701,-4.5563,-4.5476,-4.5485,-4.576,-4.5765,-4.5649,-4.5423,-4.5214,-4.4897,-4.4456,-4.4147,-4.3784,-4.3337,-4.3507,-4.3719,-4.396,-4.4357,-4.5109,-4.623,-4.6286,-4.6875,0.0,-4.8364,-4.8623,0.0,0.0,-4.8909,-4.8909,-4.8959,-4.8976,-4.8993,-4.9318,-4.9472,-4.9488,-4.9749,-5.0012,-5.0206,-5.0272,-5.0442,-5.0712,-5.0712,-5.1106,-5.1692,-5.1692,-5.2145,-5.2664,-2.1652,-2.2145,-2.2906,-2.4496,-2.6298,-2.7925,-2.9091,-3.0927,-3.2323,-3.2662,-3.2704,-3.286,-3.3241,-3.2583,-3.2942,-3.5003,-3.4475,-3.4832,-3.6869,-3.6978,-3.7017,-3.7148,-3.7148,-3.7226,-3.7419,-3.7534,-3.7495,-3.7303,-3.7495,-3.7495,-3.7303,-3.7886,-3.8818,-4.0128,-4.1395,-4.2174,-4.2602,-4.2602,-4.2602,-4.2602,-4.2602,-4.2602,-4.2602,-4.2602,-4.2602,-4.2711,-4.368,-4.4001,-4.4145,-4.5069,-4.5397,-4.5397,-4.5397,-4.5397,-4.5397,-4.5397,-4.5397,-4.5397,-4.5397,-4.5397,-4.5397,-4.5397,-4.5397,-4.5397,-4.5397,-4.5397,-4.5397,-4.5397,-4.5511,-4.5563,-4.5423,-4.5194,-4.5079,-4.5222,-4.5135,-4.5103,-4.5246,-4.4878,-4.4714,-4.4981,-4.4433,-4.4062,-4.4082,-4.4226,-4.4135,-4.3722,-4.4243,-4.4944,-4.5842,0.0,-4.6541,0.0,0.0,0.0,-4.8477,0.0,-4.8856,-4.8909,-4.8909,-4.8909,-4.8909,-4.9061,-4.9144,-4.916,-4.9469,-4.967,-4.979,-4.9949,-5.0087,-5.0294,-5.0878,-5.1344,-5.1757,-5.2373,-5.3126,-5.376,-2.168,-2.2333,-2.3319,-2.5041,-2.6956,-2.8547,-2.9404,-3.1406,-3.286,-3.3016,-3.2497,-3.2354,-3.298,-3.2282,-3.2674,-3.498,-3.441,-3.4763,-3.6869,-3.6978,-3.69,-3.673,-3.69,-3.6978,-3.6978,-3.7173,-3.7303,-3.7303,-3.7303,-3.7303,-3.7303,-3.7419,-3.8405,-4.0109,-4.1819,-4.2602,-4.2602,-4.2602,-4.2602,-4.2602,-4.2602,-4.2602,-4.2602,-4.2602,-4.2602,-4.2711,-4.368,-4.4001,-4.4145,-4.5069,-4.5397,-4.5397,-4.5397,-4.5397,-4.5397,-4.5397,-4.5397,-4.5397,-4.5397,-4.5397,-4.5397,-4.5397,-4.5397,-4.5397,-4.5397,-4.5397,-4.5397,-4.5397,-4.5397,-4.5371,-4.5274,-4.4944,-4.468,-4.4569,-4.4423,-4.4462,-4.4875,-4.4399,-4.432,-4.5172,-4.4369,-4.3968,-4.4573,-4.4721,-4.4545,-4.3953,-4.4453,-4.4997,-4.547,0.0,0.0,0.0,0.0,-4.7879,-4.8173,0.0,-4.8715,-4.8803,-4.8874,-4.8909,-4.8909,-4.8909,-4.8909,-4.8907,-4.9176,-4.9318,-4.9411,-4.9679,-4.9898,-5.0153,-5.104,-5.1611,-5.2017,-5.2928,-5.3854,-5.457,-2.1773,-2.2038,-2.2837,-2.5152,-2.6231,-2.7222,-2.8537,-3.0107,-3.1378,-3.2123,-3.216,-3.2123,-3.2196,-3.1289,-3.1863,-3.4938,-3.4185,-3.454,-3.6858,-3.6978,-3.6652,-3.587,-3.6573,-3.6652,-3.587,-3.6808,-3.7303,-3.7303,-3.7303,-3.7303,-3.7303,-3.7148,-3.8055,-3.9899,-4.1754,-4.2602,-4.2602,-4.2602,-4.2602,-4.2602,-4.2602,-4.2602,-4.2602,-4.2602,-4.2602,-4.2711,-4.368,-4.4001,-4.4145,-4.5069,-4.5397,-4.5397,-4.5397,-4.5397,-4.5397,-4.5397,-4.5397,-4.5397,-4.5397,-4.5397,-4.5397,-4.5397,-4.5397,-4.5397,-4.5397,-4.5397,-4.5397,-4.5397,-4.5397,-4.5274,-4.4845,-4.4735,-4.4569,-4.4128,-4.4059,-4.4128,-4.4434,-4.4395,-4.4466,-4.4822,-4.4127,-4.3898,-4.4617,-4.4125,-4.415,-4.5161,-4.5129,-4.5198,-4.5493,0.0,0.0,-4.7132,-4.716,-4.7567,-4.8364,-4.8231,-4.8269,-4.8439,-4.8767,-4.8909,-4.8909,-4.8909,-4.8909,-4.8909,-4.8925,-4.9127,-4.9411,-4.9679,-5.0239,-5.0908,-5.1011,-5.1973,-5.3319,-5.3424,-5.4226,-5.5192,-2.2446,-2.2697,-2.346,-2.5622,-2.6756,-2.7742,-2.9074,-3.0188,-3.0857,-3.067,-3.1082,-3.1378,-3.1378,-3.083,-3.1564,-3.4259,-3.3383,-3.3705,-3.6082,-3.6203,-3.5816,-3.4897,-3.6229,-3.6573,-3.5709,-3.6652,-3.7109,-3.7109,-3.7109,-3.7109,-3.7134,-3.7758,-3.9022,-4.0878,-4.2077,-4.2602,-4.2602,-4.2602,-4.2602,-4.2602,-4.2602,-4.2602,-4.2602,-4.2602,-4.2602,-4.2711,-4.368,-4.381,-4.3722,-4.4652,-4.5167,-4.5397,-4.5397,-4.5397,-4.5397,-4.5397,-4.5397,-4.5397,-4.5397,-4.5397,-4.5397,-4.5397,-4.5397,-4.5397,-4.5397,-4.5397,-4.5397,-4.5397,-4.5397,-4.5247,-4.479,-4.4468,-4.4128,-4.3663,-4.3353,-4.3292,-4.3676,-4.3604,-4.3764,-4.4484,-4.413,-4.4065,-4.469,-4.4883,-4.518,-4.5666,-4.5583,-4.5646,-4.5917,0.0,0.0,-4.6595,0.0,-4.6822,-4.7363,-4.7572,-4.7759,-4.7919,-4.8365,-4.8605,-4.8605,-4.8803,-4.8909,-4.8909,-4.8909,-4.8995,-4.9148,-4.9744,-5.0167,-5.0576,-5.1779,-5.2667,-5.334,-5.4031,-5.4528,-5.4914,-2.299,-2.3498,-2.4377,-2.6103,-2.7132,-2.805,-2.9102,-2.973,-2.9909,-2.9316,-2.9768,-3.0215,-3.0519,-3.045,-3.1242,-3.3415,-3.2881,-3.3226,-3.517,-3.5278,-3.4856,-3.3972,-3.5642,-3.6203,-3.5332,-3.6401,-3.7017,-3.7109,-3.7017,-3.7134,-3.7366,-3.8686,-3.9984,-4.1311,-4.219,-4.2602,-4.2602,-4.2602,-4.2602,-4.2602,-4.2602,-4.2602,-4.2602,-4.2602,-4.2602,-4.2711,-4.3502,-4.3575,-4.3456,-4.4384,-4.4917,-4.5177,-4.5177,-4.5274,-4.5397,-4.5397,-4.5397,-4.5397,-4.5397,-4.5397,-4.5397,-4.5397,-4.5397,-4.5397,-4.5397,-4.5397,-4.5397,-4.5397,-4.5274,-4.5042,-4.4597,-4.41,-4.3634,-4.3171,-4.2836,-4.2711,-4.305,-4.2929,-4.3082,-4.3794,-4.3689,-4.3818,-4.4406,-4.4942,-4.5356,-4.5562,-4.554,-4.5651,-4.5985,0.0,0.0,0.0,0.0,0.0,-4.6707,-4.6945,-4.719,-4.7442,-4.7939,-4.8251,-4.8421,-4.875,-4.8909,-4.8909,-4.8909,-4.9057,-4.9317,-4.9875,-5.0395,-5.097,-5.2409,-5.3111,-5.339,-5.4206,-5.449,-5.45,-2.3254,-2.4323,-2.5485,-2.6439,-2.7038,-2.76,-2.8136,-2.8219,-2.8207,-2.8219,-2.8219,-2.8593,-2.9626,-2.9943,-3.0787,-3.2475,-3.2829,-3.3352,-3.4264,-3.4306,-3.393,-3.3066,-3.4746,-3.5278,-3.4347,-3.6056,-3.7109,-3.7303,-3.7109,-3.7404,-3.824,-3.9894,-4.069,-4.0758,-4.2029,-4.2602,-4.2602,-4.2602,-4.2602,-4.2602,-4.2602,-4.2602,-4.2602,-4.2602,-4.2602,-4.2649,-4.3141,-4.3306,-4.3456,-4.4384,-4.4708,-4.4708,-4.4708,-4.5042,-4.5397,-4.5397,-4.5397,-4.5397,-4.5397,-4.5397,-4.5397,-4.5397,-4.5397,-4.5397,-4.5397,-4.5397,-4.5397,-4.5397,-4.5042,-4.4569,-4.4088,-4.3634,-4.3155,-4.268,0.0,-4.2602,-4.2602,-4.2602,-4.2602,-4.2634,-4.2634,-4.2896,-4.3626,-4.3698,-4.4028,-4.4763,-4.48,-4.5022,-4.5468,-4.5953,0.0,-4.562,-4.5742,0.0,-4.6683,-4.643,-4.659,-4.7107,-4.7442,-4.7879,-4.8421,-4.875,-4.8909,-4.8909,-4.8909,-4.9392,-5.0172,-5.0116,-5.1082,-5.2568,-5.2605,-5.3088,-5.3794,-5.3794,-5.3944,-5.4102,-2.3886,-2.4616,-2.5422,-2.6086,-2.6741,-2.736,-2.7919,-2.8002,-2.803,-2.8179,-2.8219,-2.8367,-2.8843,-2.9612,-3.0563,-3.1688,-3.1985,-3.2488,-3.3352,-3.3395,-3.3023,-3.2164,-3.3817,-3.4609,-3.4306,-3.548,-3.6455,-3.7109,-3.7017,-3.7682,-3.8957,-3.9484,-4.0416,-4.1688,-4.2061,-4.2381,-4.2602,-4.2602,-4.2602,-4.2602,-4.2602,-4.2602,-4.2602,-4.2602,-4.2602,-4.2649,-4.3141,-4.308,-4.2912,-4.3545,-4.3956,-4.4231,-4.4231,-4.4752,-4.5397,-4.5397,-4.5397,-4.5397,-4.5397,-4.5397,-4.5397,-4.5397,-4.5397,-4.5397,-4.5397,-4.5397,-4.5397,-4.5397,-4.5042,-4.4569,-4.4088,-4.3604,-4.3141,-4.268,-4.2602,-4.2602,-4.2602,-4.2602,-4.2602,-4.2602,-4.2602,-4.268,-4.2927,-4.3406,-4.3785,-4.4028,-4.4517,-4.4871,-4.5022,0.0,0.0,0.0,-4.5214,0.0,-4.6094,-4.6175,-4.6315,-4.6483,-4.7196,-4.7749,-4.8132,-4.823,-4.8383,-4.8569,-4.8569,-4.9159,-5.019,-5.0748,-5.1621,-5.2661,-5.32,-5.3571,-5.3793,-5.3735,-5.3698,-5.37,-2.4356,-2.4705,-2.5245,-2.6159,-2.6839,-2.7373,-2.7701,-2.7748,-2.7777,-2.7926,-2.7926,-2.8059,-2.8339,-2.9145,-3.0024,-3.0857,-3.1381,-3.1913,-3.2488,-3.2488,-3.2283,-3.1705,-3.3066,-3.3972,-3.4306,-3.5237,-3.6123,-3.6978,-3.7211,-3.7947,-3.9118,-3.9463,-4.0378,-4.172,-4.1851,-4.2045,-4.2238,-4.2365,-4.2397,-4.2429,-4.2539,-4.2602,-4.2602,-4.2602,-4.2602,-4.2618,-4.2943,-4.2851,-4.2649,-4.3141,-4.3486,-4.3752,-4.3943,-4.4513,-4.515,-4.5344,-4.5397,-4.5397,-4.5397,-4.5397,-4.5397,-4.5397,-4.5371,-4.5327,-4.5327,-4.5327,-4.5344,-4.5397,-4.4906,-4.4344,-4.4059,-4.3472,-4.2943,-4.2665,-4.2602,-4.2602,-4.2602,-4.2602,-4.2602,-4.2602,-4.2602,-4.2602,-4.2602,-4.3003,-4.3273,-4.3273,-4.3714,-4.397,0.0,0.0,-4.4473,-4.465,-4.4701,-4.4927,-4.5381,-4.5819,-4.6112,-4.6211,-4.708,-4.76,-4.7809,-4.7951,-4.8073,-4.8267,-4.8543,-4.9246,-5.0285,-5.1096,-5.2004,-5.2897,-5.3358,-5.362,-5.3754,-5.3657,-5.3538,-5.3461,-2.4547,-2.4652,-2.4959,-2.6409,-2.7117,-2.7482,-2.7482,-2.7482,-2.7482,-2.7522,-2.7522,-2.7684,-2.8139,-2.8643,-2.9249,-2.9996,-3.1023,-3.1669,-3.1705,-3.1705,-3.1705,-3.1705,-3.2488,-3.3365,-3.4264,-3.5156,-3.607,-3.6978,-3.7544,-3.8188,-3.8819,-3.9672,-4.0459,-4.1104,-4.1423,-4.1588,-4.1621,-4.1948,-4.2077,-4.2077,-4.2397,-4.2539,-4.2571,-4.2571,-4.2571,-4.2571,-4.2602,-4.2602,-4.2618,-4.3111,-4.3276,-4.3366,-4.381,-4.4316,-4.4807,-4.522,-4.5371,-4.5397,-4.5397,-4.5397,-4.5397,-4.5397,-4.5274,-4.5194,-4.5194,-4.5194,-4.522,-4.5344,-4.4642,-4.3972,-4.3972,-4.3248,-4.2602,-4.2602,-4.2602,-4.2602,-4.2602,-4.2602,-4.2602,-4.2602,-4.2602,-4.2602,-4.2602,-4.2602,-4.2602,-4.2602,-4.2602,-4.2602,0.0,0.0,-4.398,-4.3336,-4.4157,-4.4635,-4.4708,-4.5433,-4.5938,-4.6259,-4.7098,-4.7468,-4.7468,-4.7788,-4.7951,-4.8008,-4.8753,-4.9594,-5.0474,-5.1198,-5.2172,-5.3217,-5.3096,-5.3261,-5.3558,-5.342,-5.332,-5.3238,-2.3678,-2.4227,-2.4711,-2.5389,-2.6459,-2.726,-2.726,-2.726,-2.733,-2.7482,-2.7522,-2.7603,-2.7962,-2.8462,-2.8982,-2.952,-3.0503,-3.1271,-3.1681,-3.1705,-3.1705,-3.1705,-3.1913,-3.2735,-3.4264,-3.4513,-3.54,-3.6978,-3.7134,-3.7772,-3.8819,-3.9038,-3.9849,-4.1104,-4.1189,-4.1357,-4.1621,-4.1687,-4.172,-4.172,-4.1818,-4.198,-4.2206,-4.2206,-4.2206,-4.2238,-4.2508,-4.2445,-4.227,-4.2649,-4.2988,-4.3306,-4.3426,-4.4042,-4.4708,-4.4818,-4.5123,-4.5397,-4.5397,-4.5397,-4.5371,-4.5274,-4.514,-4.5059,-4.5059,-4.5059,-4.5059,-4.5086,-4.4435,-4.386,-4.386,-4.3157,-4.2602,-4.2602,-4.2602,-4.2602,-4.2602,-4.2602,-4.2602,-4.2602,-4.2602,-4.2602,-4.2602,-4.2602,-4.2602,0.0,-4.2602,-4.2602,-4.2602,-4.2881,-4.3111,-4.3306,-4.3515,-4.3985,-4.4708,-4.5294,-4.6003,-4.6801,-4.7025,-4.7116,-4.7116,-4.7205,-4.7381,-4.7654,-4.845,-4.9419,-5.0474,-5.1198,-5.1897,-5.2544,-5.2481,-5.2413,-5.2322,-5.2183,-5.2363,-5.2692,-2.3139,-2.3484,-2.3977,-2.5196,-2.6049,-2.6704,-2.7138,-2.719,-2.7219,-2.733,-2.7371,-2.7452,-2.7708,-2.7994,-2.8503,-2.9327,-3.0236,-3.0977,-3.1492,-3.1617,-3.1705,-3.1705,-3.1705,-3.2544,-3.4264,-3.4306,-3.5183,-3.6978,-3.6978,-3.7481,-3.8412,-3.8671,-3.94,-4.0474,-4.073,-4.0935,-4.1122,-4.129,-4.1357,-4.139,-4.1522,-4.172,-4.1883,-4.1883,-4.1883,-4.1883,-4.2077,-4.2045,-4.1916,-4.2077,-4.2317,-4.2538,-4.271,-4.341,-4.4169,-4.4259,-4.478,-4.53,-4.53,-4.5247,-4.5167,-4.5059,-4.4951,-4.4913,-4.4913,-4.4913,-4.494,-4.4978,-4.4248,-4.3562,-4.3562,-4.2789,-4.2142,-4.2142,-4.2142,-4.2206,-4.2333,-4.2365,-4.2445,-4.2571,-4.2602,-4.2602,-4.2602,-4.2602,-4.2602,-4.2602,-4.2602,0.0,-4.2602,-4.2602,-4.2711,-4.2958,-4.3202,-4.3529,-4.4071,-4.502,-4.5885,-4.6637,-4.6888,-4.6998,-4.6998,-4.6998,-4.7093,-4.7343,-4.8355,-4.9211,-4.9952,-5.0832,-5.1515,-5.206,-5.1868,-5.1801,-5.1808,-5.1679,-5.1837,-5.2078,-2.2615,-2.2659,-2.315,-2.5241,-2.5694,-2.6133,-2.7056,-2.719,-2.719,-2.719,-2.719,-2.726,-2.7441,-2.7441,-2.7905,-2.907,-2.9902,-3.0644,-3.127,-3.1528,-3.1705,-3.1705,-3.1705,-3.2544,-3.4264,-3.4555,-3.548,-3.6978,-3.6978,-3.7327,-3.7924,-3.8412,-3.9038,-3.9732,-4.0176,-4.042,-4.0524,-4.0851,-4.1003,-4.1037,-4.1323,-4.1456,-4.1522,-4.1522,-4.1522,-4.1522,-4.1588,-4.1555,-4.1522,-4.1588,-4.1588,-4.1654,-4.1948,-4.2632,-4.3363,-4.3651,-4.4316,-4.5015,-4.5123,-4.5059,-4.4923,-4.4831,-4.4776,-4.4776,-4.4776,-4.4776,-4.4803,-4.4913,-4.4133,-4.3383,-4.3276,-4.2459,-4.172,-4.1621,-4.1588,-4.1687,-4.198,0.0,-4.2206,-4.2492,-4.2571,-4.2602,-4.2602,-4.2602,-4.2602,-4.2602,-4.2602,-4.2602,-4.2602,-4.2602,-4.2602,-4.2602,-4.3005,-4.3246,-4.338,-4.4722,-4.5657,-4.6211,-4.6661,-4.6911,-4.6998,-4.6998,-4.7051,-4.7247,-4.8429,-4.9146,-4.9499,-5.0462,-5.1158,-5.1533,-5.121,-5.1226,-5.1429,-5.1381,-5.1416,-5.1493,-2.1678,-2.2242,-2.2981,-2.4448,-2.5326,-2.6133,-2.7056,-2.719,-2.719,-2.719,-2.719,-2.7231,-2.7219,-2.726,-2.7502,-2.8172,-2.8905,-2.9906,-3.1202,-3.1528,-3.1705,-3.1705,-3.1705,-3.2544,-3.4264,-3.5816,-3.673,-3.6978,-3.6978,-3.7327,-3.7886,-3.8,-3.8634,-3.9681,-3.9788,-4.0071,-4.0489,-4.0558,-4.0593,-4.0593,-4.0662,-4.0867,-4.1171,-4.1171,-4.1171,-4.1189,-4.1489,-4.1423,-4.1223,-4.1489,-4.1588,-4.1621,-4.1654,-4.2045,-4.2615,-4.3216,-4.3693,-4.4174,-4.4852,-4.4923,-4.4831,-4.4803,-4.4709,-4.4626,-4.4626,-4.4626,-4.4626,-4.4654,-4.4298,-4.3818,-4.3218,-4.2741,-4.2269,-4.1687,-4.1588,-4.1621,-4.1687,0.0,-4.2109,-4.2174,-4.2445,-4.2602,-4.2602,-4.2602,-4.2602,-4.2602,-4.2602,-4.2602,-4.2602,-4.2602,-4.2602,-4.2602,-4.2649,-4.308,-4.3864,-4.4507,-4.5284,-4.6211,-4.6284,-4.6566,-4.6998,-4.6998,-4.7377,-4.8074,-4.8877,-4.9515,-5.0057,-5.0883,-5.0972,-5.0602,-5.0564,-5.0425,-5.0274,-5.0246,-5.0537,-5.0937,-2.1198,-2.1749,-2.2404,-2.3544,-2.452,-2.5411,-2.631,-2.688,-2.719,-2.719,-2.719,-2.719,-2.719,-2.719,-2.7438,-2.7931,-2.8395,-2.9176,-3.0411,-3.1107,-3.1528,-3.1705,-3.1705,-3.2544,-3.4264,-3.6056,-3.6978,-3.6978,-3.6978,-3.7134,-3.7429,-3.7734,-3.8375,-3.9235,-3.9538,-4.0001,-4.0489,-4.0489,-4.0489,-4.0489,-4.0489,-4.0627,-4.0765,-4.0765,-4.0765,-4.0799,-4.0953,-4.0901,-4.0799,-4.0969,-4.0987,-4.107,-4.1256,-4.1655,-4.211,-4.2522,-4.3456,-4.4406,-4.472,-4.4737,-4.4682,-4.4682,-4.4654,-4.4615,-4.4615,-4.4615,-4.4468,-4.4076,-4.3885,-4.3456,-4.2427,-4.211,-4.1803,-4.1122,-4.0987,-4.1088,-4.129,-4.1456,-4.1621,-4.1818,-4.2142,-4.2333,-4.2333,-4.2126,-4.2013,-4.2013,-4.1624,-4.1591,-4.1981,-4.2013,-4.219,-4.2602,-4.2602,-4.2881,-4.3515,-4.4054,-4.4646,-4.5302,-4.5572,-4.5835,-4.6084,-4.6084,-4.6498,-4.7269,-4.8237,-4.9002,-4.9661,-5.0495,-5.0665,-5.0387,-5.0235,-5.0109,-5.0011,-5.0011,-5.0166,-5.0359,-2.1034,-2.1403,-2.1989,-2.2931,-2.3714,-2.452,-2.561,-2.6393,-2.6962,-2.719,-2.719,-2.719,-2.719,-2.719,-2.7392,-2.777,-2.8064,-2.863,-2.959,-3.0479,-3.1131,-3.1617,-3.1869,-3.2834,-3.4609,-3.5976,-3.6783,-3.6978,-3.6978,-3.6978,-3.7017,-3.7467,-3.8,-3.8598,-3.9075,-3.9595,-4.0126,-4.0246,-4.0316,-4.0316,-4.0455,-4.0489,-4.0489,-4.0489,-4.0489,-4.0489,-4.0489,-4.0489,-4.0489,-4.0489,-4.0489,-4.0558,-4.0867,-4.1207,-4.1541,-4.1867,-4.3185,-4.4508,-4.457,-4.4615,-4.4615,-4.4615,-4.4615,-4.4615,-4.4615,-4.4615,-4.4384,-4.3647,-4.3512,-4.3106,-4.1739,-4.1492,-4.1276,-4.0627,0.0,-4.0593,-4.0935,-4.1037,-4.1223,-4.1555,-4.1883,-4.2077,-4.1964,-4.1672,-4.1426,-4.1245,-4.0724,-4.0656,-4.1211,-4.1245,-4.1492,-4.2077,-4.2429,-4.2759,-4.3052,-4.3545,-4.4013,-4.4429,-4.4892,-4.5188,-4.5303,-4.5303,-4.5793,-4.6724,-4.776,-4.8641,-4.9417,-5.0164,-5.0415,-5.0291,-5.008,-5.0011,-5.0011,-5.0011,-5.0011,-5.0011,-2.1034,-2.1403,-2.1989,-2.2931,-2.3139,-2.378,-2.5526,-2.5872,-2.6216,-2.7097,-2.719,-2.719,-2.719,-2.719,-2.7201,-2.7247,-2.7713,-2.8334,-2.9102,-2.9645,-3.0355,-3.1282,-3.2358,-3.3746,-3.5575,-3.5749,-3.6203,-3.6978,-3.6978,-3.6978,-3.6978,-3.707,-3.7404,-3.7962,-3.8,-3.8375,-3.8965,-3.9523,-3.9753,-3.9788,-4.0281,-4.0489,-4.0489,-4.0489,-4.0489,-4.0489,-4.0489,-4.0489,-4.0489,-4.0489,-4.0489,-4.0489,-4.0524,-4.0558,-4.0715,-4.1376,-4.252,-4.3735,-4.4412,-4.4615,-4.4615,-4.4615,-4.4615,-4.4615,-4.4615,-4.4615,-4.4384,-4.3647,-4.3512,-4.3106,-4.1739,-4.1492,-4.1276,-4.0627,0.0,0.0,-4.0524,-4.0867,-4.1223,-4.1555,-4.1883,-4.1964,-4.1558,-4.1525,-4.1211,-4.0519,-4.0416,-4.0416,-4.0485,-4.0485,-4.0519,-4.0554,-4.1868,-4.2696,-4.2899,-4.3082,-4.3532,-4.4226,-4.4457,-4.4828,-4.5303,-4.5303,-4.6113,-4.7538,-4.8172,-4.8992,-4.989,-5.054,-5.0481,-5.004,-5.0011,-5.0011,-5.0011,-5.0011,-5.0011,-5.0011,-2.1321,-2.1586,-2.182,-2.2157,-2.2711,-2.3347,-2.4029,-2.5094,-2.5913,-2.631,-2.6839,-2.719,-2.719,-2.719,-2.719,-2.719,-2.7403,-2.7766,-2.8368,-2.8993,-2.9948,-3.1226,-3.2401,-3.3564,-3.4815,-3.5413,-3.6123,-3.6978,-3.6978,-3.6978,-3.6978,-3.6978,-3.7327,-3.7886,-3.7886,-3.8449,-3.9379,-3.961,-3.9681,-3.9753,-4.0281,-4.0281,-4.0036,-4.0385,-4.0489,-4.0489,-4.0489,-4.0489,-4.0489,-4.0489,-4.0489,-4.0489,-4.0489,-4.0489,-4.0612,-4.1309,-4.2141,-4.3045,-4.3722,-4.4236,-4.4615,-4.4615,-4.4615,-4.4615,-4.4615,-4.4615,-4.4384,-4.3647,-4.3869,-4.3634,-4.1836,-4.1836,-4.1771,-4.0681,0.0,-4.0489,-4.0489,-4.0627,-4.0867,-4.1256,-4.1174,-4.1125,-4.116,-4.0554,-4.0034,-3.9733,-3.9269,-3.9247,-3.9682,-4.0139,-4.0382,-4.0382,-4.106,-4.1738,-4.2332,-4.2834,-4.3339,-4.3814,-4.3919,-4.4047,-4.4259,-4.4259,-4.5067,-4.6524,-4.7016,-4.7868,-4.8886,-4.9415,-4.9385,-4.9012,-4.9012,-4.9012,-4.9043,-4.9394,-4.9303,-4.9104,-2.1531,-2.1696,-2.1696,-2.1696,-2.2246,-2.2755,-2.3052,-2.4157,-2.5147,-2.5746,-2.6351,-2.688,-2.719,-2.719,-2.719,-2.719,-2.719,-2.7438,-2.7954,-2.8811,-3.0032,-3.1633,-3.2519,-3.3534,-3.4733,-3.5359,-3.6123,-3.6978,-3.6978,-3.6978,-3.6978,-3.6978,-3.7211,-3.762,-3.762,-3.8075,-3.8855,-3.9053,-3.9126,-3.9199,-3.9737,-3.9737,-3.9451,-3.9844,-3.9985,-3.9985,-3.9985,-4.0091,-4.0246,-4.0246,-4.0351,-4.0489,-4.0489,-4.0489,-4.0578,-4.1057,-4.1641,-4.2332,-4.3015,-4.3722,-4.431,-4.4542,-4.4615,-4.4615,-4.4615,-4.4615,-4.4384,-4.3647,-4.3898,-4.3768,-4.2126,-4.2013,-4.1885,-4.0956,-4.0646,-4.0489,-4.0489,-4.0489,-4.0662,-4.107,-4.0699,-4.0478,-4.0653,-3.9768,-3.9124,-3.8957,-3.8486,-3.8412,-3.8936,-3.9412,-3.9733,-3.9804,-4.0384,-4.1031,-4.1743,-4.2286,-4.2761,-4.3193,-4.3488,-4.3725,-4.3922,-4.4169,-4.497,-4.616,-4.6653,-4.7371,-4.8242,-4.8728,-4.8728,-4.8416,-4.848,-4.8448,-4.8431,-4.8793,-4.8731,-4.8511,-2.1531,-2.1696,-2.1696,-2.1696,-2.1696,-2.1989,-2.2974,-2.3096,-2.3737,-2.5526,-2.5788,-2.6133,-2.7097,-2.719,-2.719,-2.719,-2.719,-2.7438,-2.7954,-2.9124,-3.0624,-3.2513,-3.2852,-3.3872,-3.5669,-3.5709,-3.6123,-3.6978,-3.6978,-3.6978,-3.6978,-3.6978,-3.6978,-3.6978,-3.6978,-3.6978,-3.707,-3.7658,-3.7886,-3.7962,-3.856,-3.8782,-3.8782,-3.8782,-3.8782,-3.8782,-3.8782,-3.9199,-3.9681,-3.9681,-4.0071,-4.0489,-4.0489,-4.0489,-4.0489,-4.0489,-4.0956,-4.1641,-4.2332,-4.2984,-4.3676,-4.4412,-4.4615,-4.4615,-4.4615,-4.4615,-4.4395,-4.3676,-4.3512,-4.3287,-4.2645,-4.1949,-4.1525,-4.1492,-4.0922,-4.0489,-4.0489,-4.0489,-4.0662,-4.107,-4.0562,-4.0095,-3.994,-3.9326,-3.876,-3.824,-3.8202,-3.8202,-3.8202,-3.8202,-3.8292,-3.8493,-3.9861,-4.0777,-4.1189,-4.1264,-4.1653,-4.2325,-4.3232,-4.401,-4.4625,-4.5434,-4.6195,-4.6891,-4.7376,-4.7809,-4.8242,-4.8852,-4.8821,-4.8416,-4.8591,-4.856,-4.8385,-4.84,-4.84,-4.8385,-2.1487,-2.1696,-2.1696,-2.1696,-2.1696,-2.1776,-2.2078,-2.2668,-2.3313,-2.3823,-2.501,-2.5913,-2.6174,-2.6798,-2.719,-2.719,-2.719,-2.7438,-2.7954,-2.8927,-2.9904,-3.085,-3.2093,-3.3636,-3.5669,-3.5709,-3.6123,-3.6978,-3.6978,-3.6978,-3.6978,-3.6978,-3.6978,-3.6978,-3.6978,-3.725,-3.762,-3.781,-3.7886,-3.7962,-3.856,-3.856,-3.8225,-3.8634,-3.8782,-3.8782,-3.8782,-3.9199,-3.9681,-3.9681,-4.0071,-4.0489,-4.0489,-4.0489,-4.0489,-4.0489,-4.0956,-4.1641,-4.2332,-4.2984,-4.3676,-4.4412,-4.4615,-4.4615,-4.4615,-4.4615,-4.4542,-4.431,-4.4281,-4.4047,-4.3317,-4.2629,-4.2046,-4.1591,-4.0922,-4.0489,-4.0489,-4.0489,-4.0662,-4.107,-4.0111,-3.9544,-3.9854,-3.8899,-3.824,-3.8202,-3.8202,-3.8202,-3.8202,-3.8652,-3.8975,-3.9188,-4.0185,-4.0881,-4.1123,-4.2113,-4.2815,-4.3138,-4.3432,-4.3663,-4.382,-4.4074,-4.4593,-4.5317,-4.5893,-4.6483,-4.7118,-4.7737,-4.782,-4.7555,-4.7621,-4.7505,-4.7404,-4.777,-4.7671,-4.7455,-2.1487,-2.1651,-2.1607,-2.1696,-2.1696,-2.1696,-2.1696,-2.2157,-2.2668,-2.3052,-2.4382,-2.5411,-2.5746,-2.6663,-2.719,-2.719,-2.719,-2.7357,-2.7667,-2.8362,-2.932,-3.0535,-3.1975,-3.3489,-3.5102,-3.587,-3.6494,-3.6978,-3.6978,-3.6978,-3.6978,-3.6978,-3.6978,-3.6978,-3.6978,-3.7211,-3.7544,-3.7544,-3.7544,-3.7582,-3.7962,-3.7886,-3.7582,-3.7962,-3.8075,-3.8075,-3.8075,-3.8486,-3.9002,-3.9271,-3.9844,-4.0489,-4.0489,-4.0489,-4.0489,-4.0489,-4.0783,-4.1243,-4.1933,-4.2395,-4.2953,-4.3914,-4.4367,-4.4615,-4.4615,-4.4615,-4.4615,-4.4615,-4.4615,-4.4468,-4.4001,-4.3363,-4.2769,-4.2363,-4.1525,-4.0904,-4.0904,-4.0681,-4.0593,-4.0833,-3.995,-3.9415,-3.9565,-3.8723,-3.8142,-3.8202,-3.8449,-3.8609,-3.8609,-3.9204,-3.9707,-4.0015,-4.0763,-4.1311,-4.162,-4.2357,-4.2851,-4.3061,-4.335,-4.3617,-4.3919,-4.422,-4.4618,-4.5065,-4.5349,-4.5709,-4.6143,-4.6442,-4.6617,-4.6738,-4.6738,-4.6807,-4.6945,-4.7252,-4.7184,-4.6979,-2.1353,-2.1499,-2.1482,-2.1651,-2.1696,-2.1696,-2.1696,-2.1696,-2.1989,-2.2843,-2.3887,-2.4787,-2.5621,-2.6569,-2.719,-2.719,-2.719,-2.719,-2.719,-2.7697,-2.888,-3.0864,-3.2166,-3.3247,-3.4173,-3.6029,-3.6978,-3.6978,-3.6978,-3.6978,-3.6978,-3.6978,-3.6978,-3.6978,-3.6978,-3.6978,-3.6978,-3.6978,-3.6978,-3.6978,-3.6978,-3.6978,-3.6978,-3.6978,-3.6978,-3.6978,-3.6978,-3.7404,-3.8,-3.8598,-3.9523,-4.042,-4.042,-4.0455,-4.0489,-4.0489,-4.0489,-4.0646,-4.1393,-4.1558,-4.1836,-4.3243,-4.4047,-4.4514,-4.457,-4.4615,-4.4615,-4.4615,-4.4615,-4.4615,-4.4615,-4.4001,-4.3512,-4.3512,-4.2363,-4.1492,-4.1492,-4.0938,-4.0489,-4.0489,-4.0036,-3.9538,-3.9141,-3.8701,-3.8396,-3.8289,-3.8855,-3.9218,-3.9276,-3.9857,-4.0387,-4.0846,-4.1479,-4.1977,-4.233,-4.2122,-4.2122,-4.2354,-4.3054,-4.3684,-4.432,-4.511,-4.5478,-4.5478,-4.5369,-4.5332,-4.5295,-4.5169,-4.5442,-4.5929,-4.5877,-4.6214,-4.6703,-4.6703,-4.6703,-4.6703,-2.0605,-2.1087,-2.1392,-2.1482,-2.1607,-2.1696,-2.1696,-2.1696,-2.1776,-2.1989,-2.3464,-2.4584,-2.4744,-2.6238,-2.719,-2.719,-2.719,-2.719,-2.719,-2.7801,-2.839,-2.8892,-3.1093,-3.266,-3.3422,-3.5783,-3.6978,-3.6978,-3.6978,-3.6978,-3.6978,-3.6978,-3.6978,-3.6978,-3.6978,-3.6978,-3.6978,-3.6978,-3.6978,-3.6978,-3.6978,-3.6978,-3.6978,-3.6978,-3.6978,-3.6978,-3.6978,-3.7404,-3.8,-3.8598,-3.9271,-3.9859,-3.9859,-4.0176,-4.0489,-4.0489,-4.0489,-4.0783,-4.1949,-4.1901,-4.1965,-4.3885,-4.4047,-4.3885,-4.4468,-4.4615,-4.4615,-4.4615,-4.4615,-4.4615,-4.4615,-4.4001,-4.3512,-4.3512,-4.2363,-4.1492,-4.1492,-4.0938,-4.0489,-4.0489,-4.0036,-3.9538,-3.9141,-3.8441,-3.8245,-3.8698,-3.904,-3.9407,-3.9871,-4.0525,-4.0993,-4.1257,-4.2063,-4.228,-4.1857,-4.1932,-4.2041,-4.2073,-4.2262,-4.2416,-4.2589,-4.3442,-4.381,-4.3849,-4.4434,-4.4699,-4.4737,-4.5101,-4.5264,-4.5295,-4.5116,-4.5042,-4.5036,-4.5036,-4.5036,-4.5036,-2.0332,-2.0739,-2.1078,-2.1365,-2.1571,-2.1696,-2.1696,-2.1696,-2.1865,-2.229,-2.3627,-2.4659,-2.5073,-2.6362,-2.719,-2.719,-2.719,-2.719,-2.719,-2.7545,-2.7963,-2.8471,-3.0344,-3.172,-3.2355,-3.4551,-3.6085,-3.6978,-3.6978,-3.6978,-3.6978,-3.6978,-3.6978,-3.6978,-3.6978,-3.6978,-3.6978,-3.6978,-3.6978,-3.6978,-3.6978,-3.6978,-3.6978,-3.6978,-3.6978,-3.6978,-3.6978,-3.7404,-3.7962,-3.8263,-3.8965,-3.9681,-3.9681,-4.0071,-4.0489,-4.0489,-4.0489,-4.0646,-4.1376,-4.1276,-4.1442,-4.3169,-4.332,-4.3303,-4.4355,-4.4615,-4.4615,-4.4615,-4.4615,-4.4615,-4.4615,-4.4265,-4.403,-4.403,-4.2862,-4.1981,-4.1981,-4.1109,-4.0489,-4.0489,-4.0246,-3.9824,-3.9177,-3.8568,-3.8404,-3.8851,-3.9638,-4.0234,-4.0554,-4.1207,-4.1692,-4.1865,-4.2324,-4.224,-4.1506,-4.1757,-4.1408,-4.0532,-4.1085,-4.1338,-4.1338,-4.1796,-4.2003,-4.2044,-4.2449,-4.2581,-4.2471,-4.2643,-4.3135,-4.3689,-4.3464,-4.3821,-4.451,-4.451,-4.451,-4.451,-1.9981,-2.0306,-2.0589,-2.115,-2.1427,-2.1642,-2.1909,-2.1909,-2.2201,-2.3226,-2.4145,-2.4999,-2.5735,-2.6663,-2.719,-2.719,-2.719,-2.719,-2.719,-2.719,-2.7563,-2.8414,-2.9725,-3.0735,-3.1332,-3.329,-3.4976,-3.6406,-3.6503,-3.6612,-3.6783,-3.6783,-3.6861,-3.6978,-3.6978,-3.6978,-3.6978,-3.6978,-3.6978,-3.6978,-3.6978,-3.6978,-3.6978,-3.6978,-3.6978,-3.6978,-3.6978,-3.7327,-3.7734,-3.7734,-3.8486,-3.9415,-3.9502,-3.993,-4.0385,-4.0455,-4.0489,-4.0524,-4.0646,-4.0593,-4.0836,-4.23,-4.2567,-4.2862,-4.4281,-4.4615,-4.4615,-4.4615,-4.4615,-4.4615,-4.4615,-4.4615,-4.4615,-4.4615,-4.341,-4.252,-4.252,-4.1343,-4.0489,-4.0489,-4.0408,-4.0046,-3.9304,-3.8919,-3.8846,-3.9157,-4.035,-4.1108,-4.1265,-4.1802,-4.2175,-4.2366,-4.2392,-4.1937,-4.1,-4.1408,-4.0589,-3.8594,-3.9694,-4.0289,-4.0375,-4.0504,-4.0603,-4.0603,-4.0603,-4.0447,-4.0204,-3.9972,-4.0632,-4.1722,-4.1473,-4.2254,-4.3603,-4.3603,-4.3696,-4.3812,-1.88,-1.954,-2.0237,-2.0562,-2.0873,-2.1526,-2.2711,-2.2702,-2.2965,-2.4145,-2.5073,-2.5652,-2.5788,-2.6663,-2.719,-2.719,-2.719,-2.719,-2.719,-2.719,-2.726,-2.7412,-2.8958,-3.0108,-3.0705,-3.324,-3.4351,-3.3966,-3.4427,-3.5061,-3.587,-3.587,-3.6282,-3.6978,-3.6978,-3.6978,-3.6978,-3.6978,-3.6978,-3.6978,-3.6978,-3.6978,-3.6978,-3.6978,-3.6978,-3.6978,-3.6978,-3.7056,-3.7134,-3.7134,-3.7582,-3.8225,-3.8745,-3.9343,-3.9895,-4.0351,-4.0489,-4.0627,-4.1209,-4.0922,-4.0956,-4.2876,-4.2923,-4.2862,-4.4281,-4.4615,-4.4615,-4.4615,-4.4615,-4.4615,-4.4615,-4.4615,-4.4615,-4.4615,-4.341,-4.252,-4.252,-4.1343,-4.0489,-4.0489,-4.0076,-3.9772,-3.9622,-3.9312,-3.9449,-4.0208,-4.0613,-4.1163,-4.1932,-4.2049,-4.2092,-4.2133,-4.2325,-4.1563,-3.9853,-4.0831,-3.9986,-3.7387,-3.8328,-3.8988,-3.9417,-4.0246,-4.0603,-4.0603,-4.0603,-4.0447,-4.0204,-3.9972,-3.9871,-3.983,-3.9653,-3.9697,-3.9915,-3.9915,-4.0433,-4.1127,-1.8545,-1.9081,-1.9634,-2.0193,-2.0536,-2.1192,-2.2663,-2.278,-2.3294,-2.4988,-2.5579,-2.5997,-2.6528,-2.7278,-2.7626,-2.7231,-2.7545,-2.7736,-2.7736,-2.7736,-2.7898,-2.8235,-2.9289,-2.9907,-2.9911,-3.1759,-3.2568,-3.2327,-3.466,-3.5521,-3.4938,-3.5454,-3.591,-3.6282,-3.6282,-3.6533,-3.6978,-3.6978,-3.6978,-3.6978,-3.6978,-3.6978,-3.6978,-3.6978,-3.6978,-3.6978,-3.6978,-3.6978,-3.6978,-3.6978,-3.739,-3.8,-3.8598,-3.9199,-3.9803,-4.0351,-4.0489,-4.0558,-4.087,-4.0715,-4.0904,-4.2552,-4.2738,-4.2862,-4.4281,-4.4615,-4.4615,-4.4615,-4.4615,-4.4615,-4.4615,-4.4615,-4.4615,-4.4615,-4.341,-4.252,-4.252,-4.1343,-4.0643,-4.1078,-4.0297,-3.985,-4.0203,-3.992,-3.9907,-4.0439,-4.0988,-4.1526,-4.2078,-4.2092,-4.2092,-4.2092,-4.2175,-4.1577,-4.0187,-4.1324,-4.076,-3.849,-3.9563,-3.9329,-3.8024,-3.8464,-3.8644,-3.8644,-3.8644,-3.8482,-3.8243,-3.8166,-3.8315,-3.8527,-3.8464,-3.872,-3.921,-3.921,-3.9461,-3.9812]},{"header":{"parameterUnit":"m.s-1","parameterCategory":1,"la1":30.6,"la2":28.766,"lo1":-90.7593,"lo2":-88.6598,"dy":0.0162,"dx":0.0183,"nx":116,"ny":114,"refTime":"2024-03-01T06:00:00:Z","depth":0,"parameterNumber":3,"parameterNumberName":"V-component_of_WINDS"},"data":[0.0,0.0,0.0,0.0,0.0,0.0,0.0,0.0,0.0,0.0,0.0,0.0,0.0,0.0,0.0,0.0,0.0,0.0,0.0,0.0,0.0,0.0,0.0,0.0,0.0,0.0,0.0,0.0,0.0,0.0,0.0,0.0,0.0,0.0,0.0,0.0,0.0,0.0,0.0,0.0,0.0,0.0,0.0,0.0,0.0,0.0,0.0,0.0,0.0,0.0,0.0,0.0,0.0,0.0,0.0,0.0,0.0,0.0,0.0,0.0,0.0,0.0,0.0,0.0,0.0,0.0,0.0,0.0,0.0,0.0,0.0,0.0,0.0,0.0,0.0,0.0,0.0,0.0,0.0,0.0,0.0,0.0,0.0,0.0,0.0,0.0,0.0,0.0,0.0,0.0,0.0,0.0,0.0,0.0,0.0,0.0,0.0,0.0,0.0,0.0,0.0,0.0,0.0,0.0,0.0,0.0,0.0,0.0,0.0,0.0,0.0,0.0,0.0,0.0,0.0,0.0,0.0,0.0,0.0,0.0,0.0,0.0,0.0,0.0,0.0,0.0,0.0,0.0,0.0,0.0,0.0,0.0,0.0,0.0,0.0,0.0,0.0,0.0,0.0,0.0,0.0,0.0,0.0,0.0,0.0,0.0,0.0,0.0,0.0,0.0,0.0,0.0,0.0,0.0,0.0,0.0,0.0,0.0,0.0,0.0,0.0,0.0,0.0,0.0,0.0,0.0,0.0,0.0,0.0,0.0,0.0,0.0,0.0,0.0,0.0,0.0,0.0,0.0,0.0,0.0,0.0,0.0,0.0,0.0,0.0,0.0,0.0,0.0,0.0,0.0,0.0,0.0,0.0,0.0,0.0,0.0,0.0,0.0,0.0,0.0,0.0,0.0,0.0,0.0,0.0,0.0,0.0,0.0,0.0,0.0,0.0,0.0,0.0,0.0,0.0,0.0,0.0,0.0,0.0,0.0,0.0,0.0,0.0,0.0,0.0,0.0,0.0,0.0,0.0,0.0,0.0,0.0,0.0,0.0,0.0,0.0,0.0,0.0,0.0,0.0,0.0,0.0,0.0,0.0,0.0,0.0,0.0,0.0,0.0,0.0,0.0,0.0,0.0,0.0,0.0,0.0,0.0,0.0,0.0,0.0,0.0,0.0,0.0,0.0,0.0,0.0,0.0,0.0,0.0,0.0,0.0,0.0,0.0,0.0,0.0,0.0,0.0,0.0,0.0,0.0,0.0,0.0,0.0,0.0,0.0,0.0,0.0,0.0,0.0,0.0,0.0,0.0,0.0,0.0,0.0,0.0,0.0,0.0,0.0,0.0,0.0,0.0,0.0,0.0,0.0,0.0,0.0,0.0,0.0,0.0,0.0,0.0,0.0,0.0,0.0,0.0,0.0,0.0,0.0,0.0,0.0,0.0,0.0,0.0,0.0,0.0,0.0,0.0,0.0,0.0,0.0,0.0,0.0,0.0,0.0,0.0,0.0,0.0,0.0,0.0,0.0,0.0,0.0,0.0,0.0,0.0,0.0,0.0,0.0,0.0,0.0,0.0,0.0,0.0,0.0,0.0,0.0,0.0,0.0,0.0,0.0,0.0,0.0,0.0,0.0,0.0,0.0,0.0,0.0,0.0,0.0,0.0,0.0,0.0,0.0,0.0,0.0,0.0,0.0,0.0,0.0,0.0,0.0,0.0,0.0,0.0,0.0,0.0,0.0,0.0,0.0,0.0,0.0,0.0,0.0,0.0,0.0,0.0,0.0,0.0,0.0,0.0,0.0,0.0,0.0,0.0,0.0,0.0,0.0,0.0,0.0,0.0,0.0,0.0,0.0,0.0,0.0,0.0,0.0,0.0,0.0,0.0,0.0,0.0,0.0,0.0,0.0,0.0,0.0,0.0,0.0,0.0,0.0,0.0,0.0,0.0,0.0,0.0,0.0,0.0,0.0,0.0,0.0,0.0,0.0,0.0,0.0,0.0,0.0,0.0,0.0,0.0,0.0,0.0,0.0,0.0,0.0,0.0,0.0,0.0,0.0,0.0,0.0,0.0,0.0,0.0,0.0,0.0,0.0,0.0,0.0,0.0,0.0,0.0,0.0,0.0,0.0,0.0,0.0,0.0,0.0,0.0,0.0,0.0,0.0,0.0,0.0,0.0,0.0,0.0,0.0,0.0,0.0,0.0,0.0,0.0,0.0,0.0,0.0,0.0,0.0,0.0,0.0,0.0,0.0,0.0,0.0,0.0,0.0,0.0,0.0,0.0,0.0,0.0,0.0,0.0,0.0,0.0,0.0,0.0,0.0,0.0,0.0,0.0,0.0,0.0,0.0,0.0,0.0,0.0,0.0,0.0,0.0,0.0,0.0,0.0,0.0,0.0,0.0,0.0,0.0,0.0,0.0,0.0,0.0,0.0,0.0,0.0,0.0,0.0,0.0,0.0,0.0,0.0,0.0,0.0,0.0,0.0,0.0,0.0,0.0,0.0,0.0,0.0,0.0,0.0,0.0,0.0,0.0,0.0,0.0,0.0,0.0,0.0,0.0,0.0,0.0,0.0,0.0,0.0,0.0,0.0,0.0,0.0,0.0,0.0,0.0,0.0,0.0,0.0,0.0,0.0,0.0,0.0,0.0,0.0,0.0,0.0,0.0,0.0,0.0,0.0,0.0,0.0,0.0,0.0,0.0,0.0,0.0,0.0,0.0,0.0,0.0,0.0,0.0,0.0,0.0,0.0,0.0,0.0,0.0,0.0,0.0,0.0,0.0,0.0,0.0,0.0,0.0,0.0,0.0,0.0,0.0,0.0,0.0,0.0,0.0,0.0,0.0,0.0,0.0,0.0,0.0,0.0,0.0,0.0,0.0,0.0,0.0,0.0,0.0,0.0,0.0,0.0,0.0,0.0,0.0,0.0,0.0,0.0,0.0,0.0,0.0,0.0,0.0,0.0,0.0,0.0,0.0,0.0,0.0,0.0,0.0,0.0,0.0,0.0,0.0,0.0,0.0,0.0,0.0,0.0,0.0,0.0,0.0,0.0,0.0,0.0,0.0,0.0,0.0,0.0,0.0,0.0,0.0,0.0,0.0,0.0,0.0,0.0,0.0,0.0,0.0,0.0,0.0,0.0,0.0,0.0,0.0,0.0,0.0,0.0,0.0,0.0,0.0,0.0,0.0,0.0,0.0,0.0,0.0,0.0,0.0,0.0,0.0,0.0,0.0,0.0,0.0,0.0,0.0,0.0,0.0,0.0,0.0,0.0,0.0,0.0,0.0,0.0,0.0,0.0,0.0,0.0,0.0,0.0,0.0,0.0,0.0,0.0,0.0,0.0,0.0,0.0,0.0,0.0,0.0,0.0,0.0,0.0,0.0,0.0,0.0,0.0,0.0,0.0,0.0,0.0,0.0,0.0,0.0,0.0,0.0,0.0,0.0,0.0,0.0,0.0,0.0,0.0,0.0,0.0,0.0,0.0,0.0,0.0,0.0,0.0,0.0,0.0,0.0,0.0,0.0,0.0,0.0,0.0,0.0,0.0,0.0,0.0,0.0,0.0,0.0,0.0,0.0,0.0,0.0,0.0,0.0,0.0,0.0,0.0,0.0,0.0,0.0,0.0,0.0,0.0,0.0,0.0,0.0,0.0,0.0,0.0,0.0,0.0,0.0,0.0,0.0,0.0,0.0,0.0,0.0,0.0,0.0,0.0,0.0,0.0,0.0,0.0,0.0,0.0,0.0,0.0,0.0,0.0,0.0,0.0,0.0,0.0,0.0,0.0,0.0,0.0,0.0,0.0,0.0,0.0,0.0,0.0,0.0,0.0,0.0,0.0,0.0,0.0,0.0,0.0,0.0,0.0,0.0,0.0,0.0,0.0,0.0,0.0,0.0,0.0,0.0,0.0,0.0,0.0,0.0,0.0,0.0,0.0,0.0,0.0,0.0,0.0,0.0,0.0,0.0,0.0,0.0,0.0,0.0,0.0,0.0,0.0,0.0,0.0,0.0,0.0,0.0,0.0,0.0,0.0,0.0,0.0,0.0,0.0,0.0,0.0,0.0,0.0,0.0,0.0,0.0,0.0,0.0,0.0,0.0,0.0,0.0,0.0,0.0,0.0,0.0,0.0,0.0,0.0,0.0,0.0,0.0,0.0,0.0,0.0,0.0,0.0,0.0,0.0,0.0,0.0,0.0,0.0,0.0,0.0,0.0,0.0,0.0,0.0,0.0,0.0,0.0,0.0,0.0,0.0,0.0,0.0,0.0,0.0,0.0,0.0,0.0,0.0,0.0,0.0,0.0,0.0,0.0,0.0,0.0,0.0,0.0,0.0,0.0,0.0,0.0,0.0,0.0,0.0,0.0,0.0,0.0,0.0,0.0,0.0,0.0,0.0,0.0,0.0,0.0,0.0,0.0,0.0,0.0,0.0,0.0,0.0,0.0,0.0,0.0,0.0,0.0,0.0,0.0,0.0,0.0,0.0,0.0,0.0,0.0,0.0,0.0,0.0,0.0,0.0,0.0,0.0,0.0,0.0,0.0,0.0,0.0,0.0,0.0,0.0,0.0,0.0,0.0,0.0,0.0,0.0,0.0,0.0,0.0,0.0,0.0,0.0,0.0,0.0,0.0,0.0,0.0,0.0,0.0,0.0,0.0,0.0,0.0,0.0,0.0,0.0,0.0,0.0,0.0,0.0,0.0,0.0,0.0,0.0,0.0,0.0,0.0,0.0,0.0,0.0,0.0,0.0,0.0,0.0,0.0,0.0,0.0,0.0,0.0,0.0,0.0,0.0,0.0,0.0,0.0,0.0,0.0,0.0,0.0,0.0,0.0,0.0,0.0,0.0,0.0,0.0,0.0,0.0,0.0,0.0,0.0,0.0,0.0,0.0,0.0,0.0,0.0,0.0,0.0,0.0,0.0,0.0,0.0,0.0,0.0,0.0,0.0,0.0,0.0,0.0,0.0,0.0,0.0,0.0,0.0,0.0,0.0,0.0,0.0,0.0,0.0,0.0,0.0,0.0,0.0,0.0,0.0,0.0,0.0,0.0,0.0,0.0,0.0,0.0,0.0,0.0,0.0,0.0,0.0,0.0,0.0,0.0,0.0,0.0,0.0,0.0,0.0,0.0,0.0,0.0,0.0,0.0,0.0,0.0,0.0,0.0,0.0,0.0,0.0,0.0,0.0,0.0,0.0,0.0,0.0,0.0,0.0,0.0,0.0,0.0,0.0,0.0,0.0,0.0,0.0,0.0,0.0,0.0,0.0,0.0,0.0,0.0,0.0,0.0,0.0,0.0,0.0,0.0,0.0,0.0,0.0,0.0,0.0,0.0,0.0,0.0,0.0,0.0,0.0,0.0,0.0,0.0,0.0,0.0,0.0,0.0,0.0,0.0,0.0,0.0,0.0,0.0,0.0,0.0,0.0,0.0,0.0,0.0,0.0,0.0,0.0,0.0,0.0,0.0,0.0,0.0,0.0,0.0,0.0,0.0,0.0,0.0,0.0,0.0,0.0,0.0,0.0,0.0,0.0,0.0,0.0,0.0,0.0,0.0,0.0,0.0,0.0,0.0,0.0,0.0,0.0,0.0,0.0,0.0,0.0,0.0,0.0,0.0,0.0,0.0,0.0,0.0,0.0,0.0,0.0,0.0,0.0,0.0,0.0,0.0,0.0,0.0,0.0,0.0,0.0,0.0,0.0,0.0,0.0,0.0,0.0,0.0,0.0,0.0,0.0,0.0,0.0,0.0,0.0,0.0,0.0,0.0,0.0,0.0,0.0,0.0,0.0,0.0,0.0,0.0,0.0,0.0,0.0,0.0,0.0,0.0,0.0,0.0,0.0,0.0,0.0,0.0,0.0,0.0,0.0,0.0,0.0,0.0,0.0,0.0,0.0,0.0,0.0,0.0,0.0,0.0,0.0,0.0,0.0,0.0,0.0,0.0,0.0,0.0,0.0,0.0,0.0,0.0,0.0,0.0,0.0,0.0,0.0,0.0,0.0,0.0,0.0,0.0,0.0,0.0,0.0,0.0,0.0,0.0,0.0,0.0,0.0,0.0,0.0,0.0,0.0,0.0,0.0,0.0,0.0,0.0,0.0,0.0,0.0,0.0,0.0,0.0,1.4245,1.2601,0.0,0.0,0.0,0.0,0.0,0.0,0.0,0.0,0.0,0.0,0.0,0.0,0.0,0.0,0.0,0.0,0.0,0.0,0.0,0.0,0.0,0.0,0.0,0.0,0.0,0.0,0.0,0.0,0.0,0.0,0.0,0.0,0.0,0.0,3.1707,3.094,3.0405,3.0104,2.9749,2.9435,2.9135,2.9737,3.0675,3.1911,0.0,0.0,0.0,0.0,0.0,0.0,0.0,0.0,0.0,0.0,0.0,0.0,0.0,0.0,0.0,0.0,0.0,0.0,0.0,0.0,0.0,0.0,0.0,0.0,0.0,0.0,0.0,0.0,0.0,0.0,0.0,0.0,0.0,0.0,0.0,0.0,0.0,0.0,0.0,0.0,0.0,0.0,0.0,0.0,0.0,0.0,0.0,0.0,0.0,0.0,0.0,0.0,0.0,0.0,0.0,0.0,0.0,0.0,0.0,0.0,0.0,0.0,0.0,0.0,0.0,0.0,0.0,0.0,0.0,0.0,1.4097,1.3112,0.0,0.0,0.0,0.0,0.0,0.0,0.0,0.0,0.0,0.0,0.0,0.0,0.0,0.0,0.0,0.0,0.0,0.0,0.0,0.0,0.0,0.0,0.0,3.6262,3.5876,3.4887,3.4407,3.4086,0.0,0.0,0.0,0.0,0.0,3.1633,3.1678,3.0418,2.9691,2.9498,2.8903,2.8587,2.8587,2.8587,2.9521,3.117,3.1187,0.0,0.0,0.0,0.0,0.0,0.0,0.0,0.0,0.0,0.0,0.0,0.0,0.0,0.0,0.0,0.0,0.0,0.0,0.0,0.0,0.0,0.0,0.0,0.0,0.0,0.0,0.0,0.0,0.0,0.0,0.0,0.0,0.0,0.0,0.0,0.0,0.0,0.0,0.0,0.0,0.0,0.0,0.0,0.0,0.0,0.0,0.0,0.0,0.0,0.0,0.0,0.0,0.0,0.0,0.0,0.0,0.0,0.0,0.0,0.0,0.0,0.0,0.0,1.4117,1.4277,1.4162,1.3943,1.4048,1.4428,1.4331,1.4188,1.3862,1.206,0.0,0.0,0.0,0.0,0.0,0.0,0.0,0.0,0.0,0.0,0.0,0.0,0.0,0.0,0.0,0.0,0.0,0.0,0.0,0.0,0.0,3.5975,3.57,3.4864,3.4857,3.4415,3.3365,3.3177,3.3198,3.3373,3.263,3.2227,3.229,3.133,3.0356,2.9512,2.891,2.8587,2.8587,2.8587,2.8734,2.9012,2.9421,3.007,3.0822,0.0,0.0,0.0,0.0,0.0,0.0,0.0,0.0,0.0,0.0,0.0,0.0,0.0,0.0,0.0,0.0,0.0,0.0,0.0,0.0,0.0,0.0,0.0,0.0,0.0,0.0,0.0,0.0,0.0,0.0,0.0,0.0,0.0,0.0,0.0,0.0,0.0,0.0,0.0,0.0,0.0,1.8285,1.7252,0.0,0.0,0.0,0.0,0.0,0.0,0.0,0.0,0.0,0.0,0.0,0.0,0.0,1.3646,1.3682,1.4468,1.4468,1.3688,1.4734,1.4965,1.4462,1.4419,1.4465,1.4576,1.4786,0.0,1.2881,1.2583,0.0,0.0,0.0,0.0,0.0,0.0,0.0,0.0,0.0,0.0,0.0,0.0,0.0,0.0,0.0,0.0,0.0,0.0,0.0,0.0,0.0,3.5627,3.5138,3.4407,3.4477,3.419,3.3365,3.371,3.3778,3.3425,3.2629,3.2026,3.1636,3.0766,3.0112,2.9678,2.9409,2.9255,2.9289,2.939,2.9457,2.9457,2.9791,3.0011,3.016,3.0523,0.0,0.0,0.0,0.0,0.0,0.0,0.0,0.0,0.0,0.0,0.0,0.0,0.0,0.0,0.0,0.0,0.0,0.0,0.0,0.0,0.0,0.0,0.0,0.0,0.0,0.0,0.0,0.0,0.0,0.0,0.0,0.0,0.0,0.0,0.0,0.0,0.0,0.0,0.0,1.8459,1.7838,1.6988,1.6134,1.5201,0.0,0.0,0.0,0.0,0.0,0.0,0.0,0.0,0.0,1.3957,1.4015,1.4144,1.4331,1.4512,1.4344,1.4007,1.4482,1.4592,1.4333,1.4495,1.4585,1.4623,1.4859,1.4623,1.3956,1.3312,1.204,1.0466,0.0,0.0,0.0,0.0,0.8237,0.7985,0.0,0.0,0.0,0.0,0.0,0.0,0.0,0.0,0.0,0.0,0.0,0.0,3.5766,3.5513,3.4961,3.4117,3.4324,3.4262,3.3732,3.3952,3.3954,3.3586,3.2544,3.1783,3.1459,3.051,3.0015,2.9945,2.9856,2.9789,2.9789,2.995,3.0019,3.0019,3.0219,3.0245,3.0101,3.0647,3.0838,3.0814,0.0,0.0,0.0,0.0,0.0,0.0,0.0,0.0,0.0,0.0,0.0,0.0,0.0,0.0,0.0,0.0,0.0,0.0,0.0,0.0,0.0,0.0,0.0,0.0,0.0,0.0,0.0,0.0,0.0,0.0,0.0,0.0,0.0,0.0,0.0,0.0,0.0,1.8117,1.7505,1.6382,1.5433,1.4413,0.0,0.0,0.0,0.0,0.0,0.0,1.3306,1.3571,1.3946,1.4354,1.4241,1.4441,1.4851,1.4161,1.3868,1.4072,1.3929,1.3958,1.4059,1.445,1.458,1.4613,1.4728,1.4747,1.4631,1.399,1.3051,1.1969,1.0789,0.9652,0.867,0.8725,0.8725,0.878,0.0,0.0,0.0,0.0,0.0,0.0,0.0,0.0,0.0,0.0,0.0,3.5915,3.5305,3.577,3.5597,3.4297,3.4877,3.5096,3.4472,3.3602,3.3362,3.4036,3.2486,3.1928,3.2607,3.1312,3.0578,3.0362,2.9985,2.9789,2.9789,2.9824,2.9824,2.9824,3.0033,3.0392,3.0879,3.1411,3.1447,3.1205,3.1728,0.0,0.0,0.0,0.0,0.0,0.0,0.0,0.0,0.0,0.0,0.0,0.0,0.0,0.0,0.0,0.0,0.0,0.0,0.0,0.0,0.0,0.0,0.0,0.0,0.0,0.0,0.0,0.0,0.0,0.0,0.0,0.0,0.0,0.0,0.0,0.0,0.0,0.0,1.5377,1.5267,0.0,0.0,0.0,0.0,1.3085,1.3103,1.3306,1.3832,1.389,1.398,1.4205,1.3709,1.3716,1.4224,1.3223,1.302,1.373,1.3205,1.3219,1.3737,1.4309,1.46,1.4591,1.4263,1.4052,1.3899,1.4606,1.4392,1.3507,1.2316,1.1366,1.0459,0.9654,0.9332,0.9384,0.0,0.0,0.0,0.0,0.0,0.0,0.0,0.0,3.5115,3.5549,3.5052,3.4822,3.5283,3.5149,3.5015,3.4916,3.4687,3.4486,3.4254,3.3733,3.3391,3.32,3.2387,3.1713,3.1246,3.0751,3.0524,3.0574,3.044,3.0088,2.9553,3.037,3.0406,2.9764,3.0675,3.1245,3.1512,3.1274,3.1236,3.1367,3.1896,3.2067,0.0,0.0,0.0,0.0,0.0,0.0,0.0,0.0,0.0,0.0,0.0,0.0,0.0,0.0,0.0,0.0,0.0,0.0,0.0,0.0,0.0,0.0,0.0,0.0,0.0,0.0,0.0,0.0,0.0,0.0,0.0,0.0,0.0,0.0,0.0,0.0,0.0,1.5025,1.5035,0.0,1.3231,1.3397,1.359,1.3599,1.3605,1.3558,1.3371,1.3235,1.3008,1.2774,1.2907,1.3023,1.3218,1.3148,1.3248,1.348,1.3331,1.3324,1.3493,1.3907,1.408,1.4066,1.3498,1.3217,1.3148,1.3116,1.258,1.171,1.1331,1.0508,0.9537,0.943,0.9379,0.9434,0.0,0.0,0.0,0.0,0.0,0.0,0.0,0.0,3.474,3.5283,3.4775,3.4609,3.5315,3.4895,3.4757,3.5232,3.451,3.4165,3.4453,3.3763,3.3143,3.2739,3.2005,3.1233,3.0406,3.0406,3.033,3.0165,3.0165,2.9883,2.9303,2.9884,2.9909,2.964,3.0558,3.106,3.1244,3.1159,3.1302,3.1598,3.2066,3.2154,3.2051,0.0,0.0,0.0,0.0,0.0,0.0,0.0,0.0,0.0,0.0,0.0,0.0,0.0,0.0,0.0,0.0,0.0,0.0,0.0,0.0,0.0,0.0,0.0,0.0,0.0,0.0,0.0,0.0,0.0,0.0,0.0,0.0,0.0,0.0,1.6084,1.5829,1.4586,1.4646,1.4379,1.3343,1.3642,1.3828,1.364,1.3646,1.3488,1.3098,1.2916,1.272,1.2469,1.2585,1.2748,1.2946,1.2903,1.2993,1.3221,1.307,1.3008,1.3085,1.3445,1.3625,1.3577,1.2631,1.225,1.2141,1.1105,1.0288,0.9853,1.0453,1.0186,0.9482,0.9323,0.9213,0.9268,0.0,0.0,0.0,0.0,0.0,0.0,3.4769,3.5005,3.5224,3.4926,3.5166,3.5341,3.5356,3.5069,3.4958,3.5156,3.4412,3.4279,3.507,3.3555,3.2632,3.2632,3.1384,3.0584,3.0406,3.0368,2.9922,2.9081,2.9042,2.9042,2.9003,2.8176,2.8335,2.9289,2.9563,2.9782,3.0024,3.1123,3.1626,3.177,3.2158,3.2019,3.1665,0.0,0.0,0.0,0.0,0.0,0.0,0.0,0.0,0.0,0.0,0.0,0.0,0.0,0.0,0.0,0.0,0.0,0.0,0.0,0.0,0.0,0.0,0.0,0.0,0.0,0.0,0.0,0.0,0.0,0.0,0.0,0.0,0.0,1.4311,1.4893,1.4996,1.4032,1.4082,1.4004,1.3538,1.3744,1.367,1.3162,1.3133,1.3104,1.3087,1.3064,1.3177,1.3362,1.2859,1.2807,1.3326,1.2353,1.2196,1.2871,1.2356,1.2198,1.2441,1.2989,1.3261,1.3152,1.1714,1.1051,1.0832,0.8809,0.7989,0.8152,0.9908,1.0617,1.0457,0.9316,0.8881,0.8937,0.0,0.0,0.0,0.0,0.0,0.0,3.4341,3.4018,3.4124,3.4812,3.4547,3.4425,3.4788,3.4636,3.4467,3.4325,3.3531,3.3136,3.3381,3.2187,3.1334,3.106,3.052,3.0164,2.9972,2.9353,2.8976,2.887,2.8251,2.7585,2.6924,2.7522,2.7522,2.7046,2.8585,2.9123,2.8942,3.0482,3.0906,3.0598,3.187,3.2569,3.2833,0.0,0.0,0.0,0.0,0.0,0.0,0.0,0.0,0.0,0.0,0.0,0.0,0.0,0.0,0.0,0.0,0.0,0.0,0.0,0.0,0.0,0.0,0.0,0.0,0.0,0.0,0.0,0.0,0.0,0.0,0.0,1.4862,1.4935,1.4544,1.469,1.4582,1.3966,1.3904,1.3755,1.3471,1.3513,1.3458,1.3318,1.3324,1.3127,1.2751,1.2756,1.2577,1.223,1.223,1.2317,1.247,1.2302,1.2353,1.2513,1.241,1.2335,1.2387,1.255,1.2273,1.1673,1.0621,0.9798,0.914,0.81,0.7715,0.7771,0.8484,0.8758,0.8758,0.865,0.8712,0.894,0.0,0.0,0.0,0.0,0.0,0.0,3.4,3.3846,3.4053,3.4789,3.4764,3.4675,3.4791,3.4383,3.4072,3.3945,3.2818,3.2309,3.281,3.1776,3.0861,3.0292,3.0152,2.9844,2.9248,2.8752,2.8171,2.7557,2.7058,2.6524,2.5986,2.6265,2.6318,2.6205,2.7319,2.7752,2.7711,2.9459,3.0024,2.9833,3.0782,3.1613,3.2345,3.2345,3.2381,3.2417,3.1982,3.1639,3.1387,3.099,0.0,0.0,0.0,0.0,0.0,0.0,0.0,0.0,0.0,0.0,0.0,0.0,0.0,0.0,0.0,0.0,0.0,0.0,0.0,0.0,0.0,0.0,0.0,0.0,1.5175,1.5319,1.518,1.4922,1.4703,1.4593,1.4206,1.3891,1.3743,1.3505,1.3316,1.3059,1.3059,1.2895,1.2415,1.2372,1.2307,1.2072,1.2147,1.2212,1.2212,1.2325,1.2387,1.2387,1.2005,1.1841,1.1837,1.1505,1.1008,1.0515,0.9636,0.8978,0.8429,0.7712,0.7438,0.749,0.0,0.0,0.0,0.0,0.8488,0.8712,0.0,0.0,0.0,0.0,0.0,0.0,3.3832,3.4165,3.4577,3.4966,3.5402,3.5493,3.5035,3.425,3.3685,3.3541,3.2187,3.174,3.2668,3.1763,3.0861,3.0113,2.9998,2.947,2.8542,2.8291,2.7395,2.5777,2.5704,2.5663,2.5621,2.4861,2.5031,2.6019,2.6058,2.6171,2.6442,2.8267,2.9108,2.9201,2.9291,2.9935,3.0861,3.0697,3.0772,3.091,3.0657,3.0219,2.9729,2.9494,0.0,0.0,0.0,0.0,0.0,0.0,0.0,0.0,0.0,0.0,0.0,0.0,0.0,0.0,0.0,0.0,0.0,0.0,0.0,0.0,0.0,0.0,0.0,0.0,1.5911,1.5929,1.5922,1.5363,1.5089,1.5317,1.4655,1.4111,1.4055,1.358,1.3086,1.2615,1.2563,1.2439,1.2162,1.2123,0.0,0.0,0.0,1.2387,1.2387,1.2387,1.2387,1.2382,1.1509,1.1072,1.1072,1.0186,0.9743,0.9633,0.8813,0.8429,0.8318,0.7543,0.721,0.7265,0.7709,0.7934,0.7934,0.7934,0.8156,0.8429,0.0,0.0,0.0,0.0,0.0,0.0,3.4165,3.4187,3.4544,3.5564,3.5563,3.5123,3.4292,3.4109,3.3402,3.1896,3.1656,3.1447,3.1161,3.0785,3.0444,3.0113,2.9263,2.87,2.8502,2.7058,2.6152,2.5777,2.5105,2.4743,2.4743,2.4583,2.4625,2.4871,2.5537,2.5621,2.5348,2.781,2.845,2.7947,2.8609,2.9316,2.9858,2.9005,2.8691,2.863,2.8065,2.777,2.7613,2.7215,2.6523,2.5824,2.563,2.4996,0.0,0.0,0.0,0.0,0.0,0.0,0.0,0.0,0.0,0.0,0.0,0.0,0.0,0.0,0.0,0.0,0.0,0.0,0.0,1.5876,1.6062,1.6132,1.5937,1.5403,1.4838,1.452,1.4092,1.3692,1.3215,1.2801,1.2534,1.2426,1.2426,1.2391,1.2325,1.2325,1.2344,1.2387,1.2387,1.2387,1.2387,1.2387,1.2387,1.2382,1.1509,0.0,1.1072,1.0186,0.9416,0.8758,0.8595,0.8097,0.7432,0.7265,0.721,0.721,0.7321,0.749,0.7662,0.7662,0.7881,0.8156,0.0,0.0,0.0,0.0,0.0,0.0,3.4081,3.4573,3.5116,3.5727,3.5798,3.5454,3.4551,3.4056,3.3262,3.1946,3.1606,3.1174,3.0609,3.0444,3.0254,2.9972,2.8897,2.8159,2.7799,2.6265,2.5358,2.5137,2.4615,2.4411,2.4497,2.4411,2.4411,2.4497,2.4861,2.4893,2.4828,2.6577,2.7313,2.7313,2.718,2.7574,2.8191,2.7775,2.7695,2.774,2.715,2.6843,2.6616,2.615,2.5558,2.4983,2.4918,2.428,2.3416,0.0,0.0,0.0,0.0,0.0,0.0,0.0,0.0,0.0,0.0,0.0,0.0,0.0,0.0,1.6817,1.6573,0.0,1.6356,1.651,1.6392,1.6271,1.6125,1.5707,1.5264,1.4687,1.3975,1.341,1.3138,1.2704,1.2387,1.2387,1.2001,1.1728,1.1728,1.1341,1.1118,1.1118,1.1509,1.1728,1.1728,1.2164,1.2164,1.1728,1.0848,1.0241,0.975,0.892,0.826,0.7875,0.7875,0.7598,0.721,0.721,0.721,0.721,0.721,0.7268,0.7379,0.7379,0.7657,0.8045,0.0,0.0,0.0,0.0,0.0,0.0,0.0,3.4881,3.5582,3.5827,3.5906,3.5672,3.4909,3.4158,3.3367,3.2489,3.1629,3.0936,3.0444,3.033,3.0113,2.974,2.853,2.7574,2.6987,2.5599,2.4691,2.4368,2.4196,2.4196,2.4368,2.4196,2.4196,2.4368,2.4196,2.4196,2.4401,2.5337,2.611,2.6648,2.5819,2.5902,2.6483,2.6442,2.6607,2.6719,2.6248,2.5917,2.563,2.5169,2.4683,2.4287,2.4237,2.3652,2.2878,2.2611,2.2057,0.0,0.0,0.0,0.0,0.0,0.0,0.0,0.0,1.8432,1.8245,1.7779,1.7831,1.7825,1.7286,1.6951,1.6789,1.7014,1.6643,1.6271,1.6217,1.5838,1.5351,1.4654,1.3905,1.331,1.2935,1.2436,1.2055,1.1891,1.1232,1.0852,1.0852,1.0186,0.9798,0.9798,1.0464,1.0852,1.0852,1.1559,1.1559,1.0848,0.9966,0.9196,0.8484,0.7598,0.721,0.721,0.721,0.721,0.721,0.721,0.721,0.721,0.721,0.721,0.721,0.721,0.749,0.7878,0.0,0.0,0.0,0.0,0.0,0.0,0.0,0.0,3.5123,3.6261,3.5595,3.4942,3.4662,3.4528,3.3919,3.2511,3.1246,3.0482,3.0406,3.0075,2.974,2.947,2.7827,2.6853,2.6565,2.4829,2.3917,2.3884,2.3841,2.3841,2.3884,2.3841,2.3841,2.3884,2.3841,2.3841,2.396,2.5073,2.5431,2.5336,2.5431,2.5431,2.521,2.4456,2.4166,2.4157,2.3727,2.3595,2.3493,2.3002,2.2676,2.2431,2.2216,2.1938,2.1716,2.1876,2.184,2.1826,2.2148,2.167,2.0919,2.0315,1.9452,1.8792,0.0,1.8279,1.7741,1.7911,1.76,1.7285,1.7233,1.6929,1.663,1.643,1.6324,1.6217,1.5998,1.503,1.4056,1.3236,1.3732,1.3354,1.1509,1.1291,1.0903,1.0127,1.0017,0.9962,0.9962,0.9853,0.9798,0.9798,0.9908,0.9962,0.9962,1.0017,1.0017,0.9908,0.9085,0.8595,0.8484,0.7598,0.721,0.721,0.721,0.721,0.721,0.721,0.721,0.721,0.721,0.721,0.721,0.721,0.721,0.7376,0.0,0.0,0.0,0.0,0.0,0.0,0.0,0.0,0.0,3.6212,3.5026,3.4225,3.4562,3.3616,3.2684,3.1955,3.0872,3.0228,3.0228,2.9972,2.9702,2.9419,2.7626,2.6607,2.6524,2.4445,2.3537,2.3797,2.3667,2.3677,2.3797,2.3667,2.3667,2.3797,2.3667,2.3667,2.3841,2.4294,2.4734,2.5041,2.4531,2.4563,2.4819,2.3917,2.356,2.3546,2.3244,2.3054,0.0,2.258,2.2558,2.2674,2.2533,2.2627,2.2739,2.2564,2.2591,2.259,2.2134,2.1522,2.0742,1.9313,1.8838,1.8471,1.7649,1.7226,1.7055,1.7003,1.6944,1.685,1.669,1.6582,1.6424,1.6324,1.6164,1.6051,1.5945,1.519,1.4223,1.3019,1.2911,1.2259,1.0515,1.0351,1.0186,0.9853,0.9306,0.903,0.903,0.8589,0.8312,0.8312,0.8754,0.903,0.903,0.9523,0.9523,0.9034,0.865,0.8208,0.7709,0.7376,0.721,0.721,0.721,0.721,0.721,0.721,0.721,0.721,0.721,0.721,0.721,0.721,0.7324,0.7493,0.0,0.0,0.0,0.0,0.0,0.0,0.0,0.0,0.0,0.0,3.4514,3.3561,3.3993,3.267,3.1649,3.1516,3.0659,3.0113,3.0113,2.9895,2.9663,2.9341,2.7504,2.6431,2.6318,2.4188,2.3266,2.3624,2.345,2.345,2.3624,2.345,2.3563,2.3803,2.3638,2.3741,2.3983,2.4027,2.4348,2.4743,2.4051,2.4051,2.4402,2.3738,2.3419,2.3372,2.33,2.315,2.3016,2.2837,2.2945,2.3182,2.309,2.3316,2.3439,2.2787,2.2499,2.218,2.1347,2.0744,1.9985,1.8461,1.8067,1.7762,1.6575,1.6464,1.6506,1.6361,1.6434,1.6514,1.6156,1.6128,1.6164,1.5951,1.5945,1.5838,1.5678,1.4922,1.3889,1.2472,1.1546,1.0507,0.9192,0.9302,0.9357,0.9082,0.8481,0.8152,0.8152,0.7543,0.721,0.721,0.782,0.8152,0.8152,0.8754,0.8754,0.8152,0.8152,0.782,0.721,0.721,0.721,0.721,0.721,0.721,0.721,0.721,0.721,0.721,0.721,0.721,0.721,0.721,0.7324,0.7549,0.0,0.0,0.0,0.0,0.0,0.0,0.0,0.0,0.0,0.0,0.0,0.0,0.0,3.1951,3.1516,3.1516,3.0659,3.0113,3.0113,2.9895,2.9585,2.9131,2.7424,2.6276,2.5819,2.4016,2.3101,2.3135,2.3135,2.3135,2.3135,2.3091,2.3359,2.3814,2.3769,2.3994,2.4375,2.4661,2.4477,2.4042,2.4283,2.4117,2.3728,2.3691,2.3505,2.3364,2.3588,2.3682,2.3682,2.3682,2.3691,2.3654,2.3364,2.328,2.3071,2.1905,2.0853,2.0053,1.9752,1.9088,1.838,1.8101,1.716,1.6381,1.6329,1.6329,1.6329,1.6323,1.6283,1.6158,1.5607,1.5719,1.5731,1.5148,1.5517,1.5678,1.5089,1.3781,1.2358,1.0941,0.9471,0.8263,0.7376,0.8042,0.8208,0.7321,0.7265,0.7265,0.7265,0.721,0.721,0.721,0.721,0.7265,0.7265,0.7265,0.7265,0.7265,0.7265,0.721,0.721,0.721,0.721,0.721,0.721,0.721,0.721,0.721,0.721,0.721,0.721,0.721,0.721,0.721,0.721,0.7265,0.0,0.0,0.0,0.0,0.0,0.0,0.0,0.0,0.0,0.0,0.0,0.0,0.0,0.0,0.0,0.0,3.0355,2.9895,2.9895,2.9689,2.9392,2.9091,2.725,2.6088,2.5819,2.4016,2.3047,2.2882,2.3162,2.3207,2.3028,2.3369,2.3589,2.3733,2.3888,2.3919,2.3934,2.4193,2.41,2.3794,2.3887,2.385,2.3701,2.3777,2.3537,2.319,0.0,2.3094,2.2641,2.2641,2.2584,2.2421,2.1773,2.1739,2.1753,2.0806,2.0,1.9369,1.8902,1.8342,1.7686,1.6827,1.6451,1.6213,1.5857,1.5325,1.4792,1.4363,1.3869,1.3288,1.2699,1.2959,1.3231,1.3014,1.3176,1.3231,1.3014,1.2091,1.0996,0.9892,0.9027,0.8152,0.7265,0.7487,0.7543,0.721,0.721,0.721,0.721,0.721,0.721,0.721,0.721,0.721,0.721,0.721,0.721,0.721,0.721,0.721,0.721,0.721,0.721,0.721,0.721,0.721,0.721,0.721,0.721,0.721,0.721,0.721,0.721,0.721,0.7324,0.7493,0.0,0.0,0.0,0.0,0.0,0.0,0.0,0.0,0.0,0.0,0.0,0.0,0.0,0.0,0.0,0.0,0.0,2.9753,2.965,2.9509,2.9145,2.8542,2.6953,2.5863,2.5434,2.3954,2.3181,2.3121,2.3389,2.3421,2.3248,2.3541,2.3795,2.3937,2.405,2.4136,2.4155,2.4269,2.4174,2.3965,2.3765,2.3621,2.3544,2.3463,2.3211,0.0,2.2991,2.2557,2.1993,2.2188,2.2207,2.1968,2.1162,2.0542,1.9996,1.9472,1.87,1.7955,1.7592,1.7213,1.6709,1.6068,1.5898,1.5682,1.5047,1.4374,1.363,1.2888,1.2203,1.1656,1.1048,1.145,1.1755,1.1546,1.1705,1.1755,1.1546,1.0777,0.9896,0.913,0.8423,0.782,0.7265,0.721,0.721,0.721,0.721,0.721,0.721,0.721,0.721,0.721,0.721,0.721,0.721,0.721,0.721,0.721,0.721,0.721,0.721,0.721,0.721,0.721,0.721,0.721,0.721,0.721,0.721,0.721,0.721,0.721,0.721,0.721,0.7324,0.7493,0.0,0.0,0.0,0.0,0.0,0.0,0.0,0.0,0.0,0.0,0.0,0.0,0.0,0.0,0.0,0.0,0.0,0.0,2.938,2.938,2.8806,2.7545,2.6573,2.5625,2.469,2.384,2.3503,2.3673,2.3692,2.3701,2.3701,2.373,2.3938,2.4316,2.4306,2.4523,2.4883,2.4883,2.4686,2.4381,2.3877,2.3529,2.3179,2.2677,2.2476,2.2476,2.2476,2.2123,2.1725,2.2224,2.2325,2.2114,2.1387,1.9635,1.7877,1.7877,1.6929,1.5872,1.5903,1.5719,1.5551,1.5765,1.5415,1.4777,1.3901,1.3367,1.2783,1.173,1.1397,1.1143,1.0613,1.0988,1.1143,1.0613,1.0988,1.1143,1.0613,0.9786,0.9016,0.8484,0.7709,0.721,0.721,0.721,0.721,0.721,0.721,0.721,0.721,0.721,0.721,0.721,0.721,0.721,0.721,0.721,0.721,0.721,0.721,0.721,0.721,0.721,0.721,0.721,0.721,0.721,0.721,0.721,0.721,0.721,0.721,0.721,0.721,0.721,0.721,0.7321,0.0,0.0,0.0,0.0,0.0,0.0,0.0,0.0,0.0,0.0,0.0,0.0,0.0,0.0,0.0,0.0,0.0,0.0,2.9197,2.9157,2.8581,2.7279,2.6213,2.5264,2.4468,2.357,2.3219,2.3383,2.3682,2.3736,2.3544,2.3906,2.4149,2.4242,2.438,2.4445,2.4399,2.4538,2.4233,2.3578,2.3479,2.3129,2.2677,2.2577,2.2274,2.1928,2.1928,2.1573,2.107,2.1054,1.9901,1.8596,1.9027,1.7884,1.6418,1.6418,1.6063,1.5626,1.5864,1.5703,1.5285,1.4537,1.4063,1.3503,1.2394,1.1239,1.0317,0.9961,0.9212,0.8478,0.8146,0.853,0.8865,0.8702,0.9027,0.9137,0.8758,0.8481,0.8149,0.7598,0.749,0.7438,0.721,0.721,0.721,0.721,0.721,0.721,0.721,0.721,0.721,0.721,0.721,0.721,0.721,0.721,0.721,0.721,0.721,0.721,0.721,0.721,0.721,0.721,0.721,0.721,0.721,0.721,0.721,0.721,0.721,0.721,0.721,0.7438,0.7604,0.7878,0.0,0.0,0.0,0.0,0.0,0.0,0.0,0.0,0.0,0.0,0.0,0.0,0.0,0.0,0.0,0.0,0.0,0.0,0.0,2.8673,2.7799,2.6461,2.5583,2.4756,2.3942,2.3548,2.3486,2.3675,2.3897,2.3804,2.3412,2.3687,2.3696,2.3438,2.3578,2.3587,2.3438,2.3578,2.3379,0.0,0.0,2.2426,2.2123,2.1878,2.1623,2.1318,2.1224,2.0763,2.0248,2.055,1.9346,1.7786,1.8265,1.7259,1.5867,1.5753,1.5692,1.565,1.5572,1.5523,1.5343,1.4699,1.4223,1.3509,1.2107,1.0833,0.9678,0.8731,0.7928,0.7379,0.721,0.7546,0.7768,0.7654,0.7878,0.7989,0.7712,0.7768,0.7657,0.7265,0.7438,0.7493,0.721,0.721,0.721,0.721,0.721,0.721,0.721,0.721,0.721,0.721,0.721,0.721,0.721,0.721,0.721,0.721,0.721,0.721,0.721,0.721,0.721,0.721,0.721,0.721,0.721,0.721,0.721,0.721,0.721,0.721,0.721,0.7379,0.7546,0.7712,0.0,0.0,0.0,0.0,0.0,0.0,0.0,0.0,0.0,0.0,0.0,0.0,0.0,0.0,0.0,0.0,0.0,0.0,0.0,0.0,2.7017,2.5526,2.5065,2.4341,2.328,2.3632,2.3934,2.4202,2.4102,2.3786,2.3279,2.3229,2.2929,2.2476,2.2476,2.2476,2.2476,2.2476,2.2476,2.2375,2.1878,2.1674,2.1522,0.0,2.0873,2.0822,2.0514,1.9998,1.9532,2.0514,1.9776,1.8422,1.8422,1.7312,1.6003,1.5672,1.5686,1.5747,1.5324,1.5354,1.5453,1.5274,1.4815,1.3916,1.1996,1.1,0.9853,0.7934,0.7379,0.721,0.721,0.7438,0.7549,0.7324,0.7493,0.7549,0.7324,0.7493,0.7549,0.7268,0.7493,0.7549,0.7268,0.7265,0.7265,0.721,0.7265,0.7265,0.721,0.721,0.721,0.721,0.721,0.721,0.721,0.721,0.721,0.721,0.721,0.721,0.721,0.721,0.721,0.721,0.721,0.7265,0.7265,0.7265,0.7265,0.7265,0.7265,0.721,0.721,0.7265,0.7265,0.7268,0.0,0.0,0.0,0.0,0.0,0.0,0.0,0.0,0.0,0.0,2.983,2.9792,0.0,0.0,0.0,0.0,0.0,0.0,0.0,0.0,0.0,2.5252,2.539,2.4725,2.2989,2.3345,2.3797,2.4202,2.3687,2.3379,2.3279,2.2828,2.2577,2.2476,2.2476,2.2476,2.2476,2.2476,2.2224,2.1818,2.1725,2.142,2.1027,2.0917,0.0,0.0,2.0292,2.0086,2.0034,2.0411,1.9576,1.8422,1.8422,1.7733,1.6823,1.6043,1.5698,1.5596,1.5722,1.5626,1.5234,1.3998,1.3449,1.2537,1.0006,0.914,0.8592,0.7487,0.721,0.721,0.721,0.7438,0.766,0.7823,0.7878,0.7934,0.7878,0.7878,0.7826,0.7549,0.7771,0.7826,0.7549,0.7712,0.7657,0.721,0.7601,0.7654,0.721,0.721,0.721,0.721,0.721,0.721,0.721,0.721,0.721,0.721,0.721,0.721,0.721,0.721,0.721,0.721,0.7438,0.7549,0.7551,0.7768,0.7712,0.7549,0.7549,0.7379,0.721,0.7438,0.7549,0.7549,0.0,0.0,0.0,0.0,0.0,0.0,0.0,3.0746,2.9895,2.9792,2.9792,2.9792,2.9792,2.9792,2.9689,0.0,0.0,0.0,0.0,0.0,0.0,0.0,2.5365,2.4679,2.3253,2.3657,2.396,2.4202,0.0,2.3179,2.2878,2.2325,2.192,2.1674,2.1674,2.1674,2.1674,2.1674,2.1522,2.1275,2.1275,2.1121,2.0873,0.0,0.0,0.0,2.0086,2.0027,1.9828,1.9509,1.8982,1.8408,1.8422,1.7838,1.6956,1.5617,1.5217,1.5176,1.4894,1.4841,1.4716,1.4298,1.3894,1.3019,1.1,1.0069,0.9196,0.7712,0.7324,0.721,0.721,0.7438,0.7604,0.7601,0.7712,0.7771,0.7771,0.7934,0.7934,0.7826,0.81,0.8156,0.7826,0.7934,0.7878,0.7657,0.7878,0.7823,0.7438,0.7546,0.7601,0.7601,0.7601,0.7601,0.7601,0.749,0.749,0.7601,0.749,0.749,0.7601,0.7601,0.7601,0.7601,0.7771,0.7826,0.7826,0.7934,0.7826,0.7607,0.7607,0.7438,0.721,0.7324,0.7379,0.7438,0.0,0.0,0.0,0.0,0.0,0.0,0.0,3.0633,2.9792,2.9792,2.9792,2.9792,2.9792,2.9792,2.9702,0.0,0.0,0.0,0.0,0.0,0.0,0.0,0.0,0.0,2.3952,0.0,0.0,2.4202,2.3587,0.0,0.0,0.0,0.0,0.0,2.0968,2.0925,2.0925,2.0925,2.0925,0.0,0.0,2.0925,2.0873,0.0,0.0,0.0,0.0,1.9776,1.9524,1.8871,1.8655,1.861,1.8251,1.7621,1.6679,1.5118,1.4828,1.4835,1.4214,1.419,1.4439,1.4767,1.4606,1.3894,1.22,1.1219,1.0123,0.8045,0.7379,0.721,0.721,0.7379,0.7438,0.7324,0.7438,0.7549,0.766,0.7826,0.7934,0.81,0.8318,0.8374,0.8156,0.8156,0.8156,0.7989,0.8045,0.7989,0.7715,0.7881,0.7989,0.7989,0.7989,0.7989,0.7989,0.7771,0.7771,0.7989,0.7771,0.7771,0.7989,0.7989,0.7989,0.7989,0.81,0.81,0.81,0.8156,0.7992,0.7662,0.7662,0.7493,0.721,0.721,0.721,0.721,0.0,0.0,0.0,0.0,0.0,0.0,0.0,2.9895,2.9792,2.9792,2.9792,2.9792,2.9792,2.9792,2.9792,0.0,0.0,0.0,0.0,0.0,0.0,0.0,0.0,0.0,0.0,0.0,0.0,2.4202,2.3587,0.0,0.0,0.0,0.0,0.0,0.0,2.0925,2.0925,2.0925,0.0,0.0,0.0,0.0,0.0,0.0,0.0,0.0,0.0,1.9376,1.9376,1.9524,1.9569,1.9302,1.772,1.6823,1.6187,1.5221,1.4965,1.4982,1.49,1.4911,1.4821,1.4385,1.4606,1.4272,1.176,1.0941,1.0123,0.8045,0.7379,0.721,0.721,0.721,0.7324,0.7549,0.7379,0.7435,0.7878,0.7771,0.7826,0.8374,0.8484,0.8484,0.8429,0.8657,0.8602,0.8045,0.8263,0.8318,0.7989,0.7989,0.7989,0.7989,0.7989,0.7989,0.7989,0.7989,0.7989,0.7989,0.7989,0.7989,0.7989,0.7989,0.7989,0.7989,0.8322,0.8429,0.8484,0.8712,0.8491,0.7989,0.7989,0.7657,0.721,0.721,0.721,0.721,0.0,0.0,0.0,0.0,0.0,0.0,3.1942,3.1071,3.0406,3.0305,2.9857,2.956,2.956,2.956,2.956,2.956,0.0,0.0,0.0,0.0,0.0,0.0,0.0,0.0,0.0,0.0,2.4341,2.4202,2.3587,0.0,0.0,0.0,0.0,0.0,0.0,2.0925,2.0925,2.0925,0.0,0.0,0.0,0.0,0.0,0.0,0.0,0.0,0.0,0.0,1.922,1.8632,1.8422,1.8101,1.6027,1.5441,1.5334,1.4277,1.3964,1.3905,1.3521,1.3413,1.3576,1.4062,1.4385,1.4272,1.3181,1.2028,1.0769,0.9247,0.7983,0.721,0.721,0.721,0.721,0.7324,0.7268,0.7321,0.7715,0.766,0.7826,0.8429,0.8484,0.8543,0.8712,0.8826,0.8826,0.8549,0.8657,0.8657,0.8549,0.8546,0.8546,0.8546,0.8546,0.8546,0.8546,0.8377,0.8377,0.8546,0.8377,0.8377,0.8546,0.8546,0.8546,0.8549,0.8657,0.8768,0.8768,0.8881,0.8657,0.8318,0.8318,0.8042,0.7657,0.7657,0.7657,0.7712,0.0,0.0,0.0,0.0,0.0,3.3108,3.2897,3.1696,3.0745,3.0607,2.9871,2.9314,2.9314,2.9314,2.9314,2.9314,2.9157,0.0,0.0,0.0,0.0,0.0,0.0,0.0,0.0,0.0,2.439,2.4301,2.3786,2.3587,0.0,0.0,2.2173,2.2131,0.0,0.0,0.0,0.0,0.0,0.0,0.0,0.0,0.0,0.0,0.0,0.0,0.0,0.0,0.0,0.0,0.0,1.7733,1.582,1.5446,1.5441,1.3797,1.3315,1.3261,1.298,1.2925,1.3197,1.4169,1.4546,1.4541,1.3835,1.2512,1.1088,0.9574,0.8146,0.721,0.721,0.721,0.721,0.721,0.721,0.7268,0.7551,0.7607,0.7771,0.8318,0.8374,0.8488,0.8768,0.8826,0.8885,0.8885,0.8885,0.8885,0.8885,0.8885,0.8885,0.8885,0.8885,0.8885,0.8885,0.8712,0.8712,0.8885,0.8712,0.8712,0.8885,0.8885,0.8885,0.8885,0.8885,0.8885,0.8885,0.8885,0.8768,0.8484,0.8484,0.8318,0.7989,0.7989,0.7989,0.7989,0.0,0.0,0.0,0.0,0.0,0.0,3.2218,3.1267,3.0607,3.0607,2.9729,2.9091,2.9091,2.9091,2.9091,2.9091,2.9091,0.0,0.0,0.0,0.0,0.0,0.0,0.0,0.0,0.0,2.4291,2.448,2.4301,2.4202,2.4202,2.3587,2.3279,2.3279,0.0,0.0,0.0,0.0,0.0,0.0,0.0,0.0,0.0,0.0,0.0,0.0,0.0,0.0,0.0,0.0,0.0,0.0,0.0,1.7582,1.6995,1.4116,1.3315,1.3423,1.4008,1.4169,1.4331,1.4874,1.5464,1.5292,1.296,1.1969,1.0815,0.8481,0.7598,0.721,0.721,0.721,0.721,0.721,0.721,0.7268,0.7551,0.7607,0.7715,0.7989,0.7989,0.8156,0.8484,0.8768,0.8885,0.8885,0.8885,0.8885,0.8885,0.8885,0.8885,0.8885,0.8885,0.8885,0.8885,0.8885,0.8885,0.8885,0.8885,0.8885,0.8885,0.8885,0.8885,0.8885,0.8885,0.8885,0.8885,0.8885,0.8768,0.8484,0.8484,0.8318,0.7989,0.7989,0.7989,0.8045,0.0,0.0,0.0,0.0,0.0,0.0,0.0,3.2569,3.1723,3.0895,3.0037,2.9328,2.8922,2.8882,2.9029,2.9394,2.9431,0.0,0.0,0.0,0.0,0.0,0.0,0.0,0.0,2.5606,2.4784,2.448,2.444,2.4341,2.4202,2.3587,2.3279,2.3279,2.2728,2.2173,0.0,0.0,0.0,0.0,0.0,0.0,2.0771,0.0,0.0,0.0,0.0,0.0,0.0,0.0,0.0,0.0,0.0,0.0,0.0,1.5547,1.4541,1.3792,1.3142,1.3251,1.3743,1.4331,1.4874,1.5196,1.4857,1.328,1.1647,1.0891,0.9137,0.7712,0.7493,0.7493,0.7438,0.721,0.721,0.721,0.7324,0.7493,0.7718,0.7989,0.838,0.8657,0.8768,0.8826,0.8885,0.8885,0.8885,0.8885,0.8885,0.8885,0.8885,0.8885,0.8885,0.8885,0.8885,0.8885,0.8885,0.8885,0.8885,0.8885,0.8885,0.8885,0.8885,0.8885,0.8885,0.8885,0.8885,0.8885,0.8826,0.8768,0.8768,0.8712,0.8605,0.8605,0.8605,0.8605,0.0,0.0,0.0,0.0,0.0,0.0,0.0,3.3115,3.2196,3.1044,3.0114,2.9442,2.9043,2.8987,2.9205,2.9738,2.9968,0.0,0.0,0.0,0.0,0.0,0.0,0.0,2.6418,2.546,2.4883,2.4627,2.4489,2.4341,2.4202,2.3845,2.3637,2.3637,2.3288,2.2837,0.0,0.0,0.0,0.0,0.0,0.0,2.0873,0.0,0.0,0.0,0.0,0.0,0.0,0.0,0.0,0.0,0.0,0.0,0.0,0.0,1.6133,1.5334,1.4051,1.3684,1.3851,1.4654,1.5083,1.5303,1.5244,1.3555,1.1873,1.1433,0.9578,0.7934,0.7771,0.766,0.7551,0.7379,0.7324,0.7324,0.7324,0.7604,0.7826,0.7989,0.8436,0.8768,0.8768,0.8826,0.8885,0.8885,0.8885,0.8885,0.8885,0.8885,0.8885,0.8885,0.8885,0.8885,0.8885,0.8885,0.8885,0.8885,0.8885,0.8885,0.8885,0.8885,0.8885,0.8885,0.8885,0.8885,0.0,0.8885,0.8885,0.8885,0.8885,0.8885,0.8885,0.8885,0.8885,0.8885,0.0,0.0,0.0,0.0,0.0,0.0,0.0,3.2995,3.211,3.1119,3.0152,2.9549,2.9435,2.941,2.961,3.014,0.0,0.0,0.0,0.0,0.0,0.0,0.0,0.0,2.5781,2.4932,2.4637,2.4883,2.444,2.4202,2.4202,2.4202,2.4202,2.4202,2.4202,2.3845,0.0,0.0,0.0,0.0,2.0968,2.0968,0.0,0.0,0.0,0.0,0.0,0.0,0.0,0.0,0.0,0.0,0.0,0.0,0.0,0.0,0.0,0.0,0.0,1.519,1.4595,1.5565,1.5891,1.5618,1.4541,1.3127,0.0,1.0613,0.914,0.8045,0.8045,0.7826,0.7662,0.7607,0.7607,0.7607,0.7607,0.7881,0.8045,0.8045,0.8322,0.854,0.854,0.8768,0.8885,0.8885,0.8885,0.8885,0.8885,0.8885,0.8885,0.8885,0.8885,0.8885,0.8885,0.8885,0.8885,0.8885,0.8885,0.8885,0.8885,0.8885,0.8885,0.8885,0.8885,0.8885,0.8885,0.8885,0.8885,0.8885,0.8885,0.8885,0.8885,0.8885,0.8885,0.8885,0.0,0.0,0.0,0.0,0.0,0.0,0.0,0.0,0.0,0.0,3.1463,3.1203,3.0719,3.0343,3.0349,0.0,0.0,0.0,0.0,0.0,0.0,0.0,0.0,0.0,2.6254,2.5314,2.4735,2.4578,2.4489,2.4341,2.4202,2.4202,2.4202,2.4202,2.4202,2.3845,0.0,0.0,0.0,0.0,2.1674,2.1776,0.0,0.0,0.0,0.0,2.0968,2.0617,0.0,0.0,0.0,0.0,0.0,0.0,0.0,0.0,1.8468,1.7884,1.7371,0.0,1.5713,1.5303,1.5571,1.5838,0.0,1.383,1.2254,1.1923,1.0186,0.8602,0.8429,0.8322,0.8211,0.7937,0.7878,0.7878,0.7878,0.8156,0.8432,0.8657,0.8771,0.8826,0.8826,0.8881,0.8885,0.8885,0.8885,0.8885,0.8885,0.8885,0.8885,0.8885,0.8885,0.8885,0.8885,0.8885,0.8885,0.8885,0.8885,0.8885,0.8885,0.8885,0.8885,0.8885,0.8885,0.8885,0.8885,0.8885,0.8885,0.8885,0.8885,0.8885,0.8885,0.8885,0.8885,0.8885,0.0,0.0,0.0,0.0,0.0,0.0,0.0,0.0,0.0,0.0,0.0,3.2593,3.2542,3.1945,0.0,0.0,0.0,0.0,0.0,0.0,0.0,0.0,0.0,2.8294,2.7163,2.5926,2.5216,2.5069,2.4587,2.4301,2.4202,2.3895,2.3945,2.4202,2.4202,2.3845,0.0,0.0,0.0,2.2476,2.2173,0.0,0.0,0.0,0.0,0.0,2.1471,2.1173,0.0,2.0617,2.0411,2.0248,0.0,0.0,0.0,0.0,1.9413,1.9042,1.8527,1.7364,1.614,1.5565,1.5678,1.5891,1.5891,1.4099,1.2417,1.2417,1.0515,0.8881,0.8712,0.8706,0.8595,0.8263,0.8488,0.8657,0.8657,0.8654,0.8712,0.8881,0.8885,0.8885,0.8885,0.8885,0.8885,0.8885,0.8885,0.8885,0.8885,0.8885,0.8885,0.8885,0.8885,0.8885,0.8885,0.8885,0.8885,0.8885,0.8885,0.8885,0.8885,0.8885,0.8885,0.8885,0.8885,0.8885,0.8885,0.8885,0.8885,0.8885,0.8885,0.8885,0.8885,0.8885,0.8885,0.8885,0.0,0.0,0.0,0.0,0.0,0.0,0.0,0.0,0.0,0.0,0.0,0.0,0.0,0.0,0.0,0.0,0.0,0.0,0.0,0.0,0.0,0.0,2.9875,2.9013,2.7882,2.6504,2.5684,2.5645,2.4677,2.4152,2.4053,2.3538,2.3538,2.3945,2.3945,2.3646,2.3179,2.3179,2.2979,2.2627,2.2426,0.0,0.0,0.0,0.0,0.0,0.0,0.0,0.0,2.0917,2.0624,2.0514,2.0241,0.0,0.0,0.0,0.0,0.0,1.9376,1.7996,1.6723,1.6205,1.5992,1.5891,1.5891,1.4207,1.2689,1.2689,1.0789,0.9265,0.9482,0.9147,0.8923,0.8923,0.9206,0.9489,0.9706,0.932,0.9047,0.8992,0.8992,0.894,0.8885,0.8937,0.8992,0.8992,0.8995,0.9047,0.9047,0.9047,0.8992,0.8992,0.8992,0.8937,0.8885,0.8885,0.8885,0.8885,0.8885,0.8885,0.8885,0.8885,0.8885,0.8885,0.8885,0.8885,0.8885,0.8885,0.8885,0.8885,0.8885,0.8885,0.8885,0.8885,0.8885,0.8885,0.0,0.0,0.0,0.0,0.0,0.0,0.0,0.0,0.0,0.0,0.0,0.0,0.0,0.0,0.0,0.0,0.0,0.0,0.0,0.0,0.0,3.1472,3.0374,2.898,2.7342,2.6416,2.5761,2.5343,2.4578,2.3945,2.3429,2.3329,2.3129,2.2778,2.2778,2.2728,2.2627,2.2627,2.2828,2.3079,2.2182,0.0,0.0,0.0,0.0,0.0,0.0,0.0,0.0,2.1573,2.1224,2.0771,2.0514,0.0,0.0,0.0,0.0,0.0,1.8624,1.8677,1.8833,1.7358,1.6465,1.5891,1.5891,1.4863,1.3894,1.3894,1.2037,1.0777,1.1964,1.0398,0.9316,1.0507,0.997,0.9812,1.1,1.03,0.9596,0.9323,0.9323,0.9213,0.8937,0.9158,0.9323,0.9323,0.9541,0.9651,0.9651,0.9651,0.9544,0.9323,0.9323,0.9213,0.8885,0.8885,0.8885,0.8885,0.8885,0.8885,0.8885,0.8885,0.8885,0.8885,0.8885,0.8885,0.8885,0.8885,0.8885,0.8885,0.8885,0.8885,0.8885,0.8885,0.8885,0.8885,0.0,0.0,0.0,0.0,0.0,0.0,0.0,0.0,0.0,0.0,0.0,0.0,0.0,0.0,0.0,0.0,0.0,0.0,0.0,0.0,3.2413,3.1749,3.1149,3.0181,2.8841,2.7793,2.6989,2.6532,2.5392,2.4667,2.4353,2.3619,2.3029,2.2476,2.2476,2.2476,2.2476,2.2476,2.2627,2.2828,0.0,0.0,0.0,0.0,0.0,0.0,0.0,0.0,0.0,0.0,2.1326,2.1275,2.0873,0.0,0.0,0.0,0.0,0.0,1.9768,1.9309,1.884,1.8199,1.7417,1.6736,1.6418,1.5452,1.4589,1.4422,1.3058,1.2018,1.2665,1.1973,1.1601,1.2571,1.2028,1.176,1.2566,1.2136,1.1651,1.1542,1.1487,1.1433,1.1269,1.1433,1.1219,1.057,1.0625,1.0464,0.9816,0.9816,0.9761,0.9596,0.9599,0.9541,0.9375,0.997,0.9809,0.8885,0.8885,0.8885,0.8885,0.8885,0.8885,0.8885,0.8885,0.8885,0.8885,0.8885,0.8885,0.8885,0.8885,0.8885,0.8885,0.8885,0.8885,0.8885,0.0,0.0,0.0,0.0,0.0,0.0,0.0,0.0,0.0,0.0,0.0,0.0,0.0,0.0,0.0,0.0,0.0,0.0,0.0,3.3534,3.2821,3.1969,3.1793,3.1306,3.0397,2.9119,2.8236,2.7767,2.6099,2.5148,2.4796,2.352,2.2728,2.2325,2.2173,2.2131,2.2131,2.2131,2.2173,2.2274,0.0,0.0,0.0,0.0,0.0,0.0,0.0,0.0,0.0,0.0,0.0,0.0,0.0,0.0,0.0,2.0925,2.0925,2.0873,2.0668,1.9828,1.8885,1.8617,1.7838,1.7107,1.6783,1.598,1.5286,1.5114,1.4132,1.3426,1.3637,1.3706,1.3825,1.4245,1.3809,1.3593,1.4132,1.3809,1.348,1.3372,1.3372,1.3372,1.3318,1.3378,1.2994,1.2082,1.2082,1.1705,1.0844,1.0789,1.0789,1.0735,1.0735,1.068,1.0629,1.1487,1.1105,0.9537,0.9699,0.9699,0.9427,0.9375,0.9154,0.8885,0.8885,0.8885,0.8885,0.8885,0.8885,0.8885,0.8885,0.8885,0.8885,0.8885,0.8885,0.8885,0.0,0.0,0.0,0.0,0.0,0.0,0.0,0.0,0.0,0.0,0.0,0.0,0.0,0.0,0.0,0.0,0.0,0.0,0.0,3.3843,3.2914,3.2624,3.2013,3.1439,3.0859,2.9635,2.8795,2.8226,2.6292,2.4658,2.3429,2.2325,2.1776,2.1725,2.1224,2.1019,2.1019,2.1019,2.1326,2.1725,2.1224,0.0,0.0,0.0,0.0,0.0,0.0,0.0,0.0,0.0,0.0,0.0,0.0,0.0,2.0925,2.0925,2.0925,2.0719,1.999,2.0248,2.0241,1.8206,1.6842,1.6152,1.6624,1.6418,1.6264,1.6518,1.5654,1.5167,1.6246,1.5547,1.49,1.4959,1.4245,1.4186,1.5535,1.4781,1.397,1.3701,1.3647,1.3588,1.3318,1.3534,1.3647,1.3539,1.3755,1.3863,1.3809,1.3809,1.3701,1.3431,1.3431,1.3324,1.3048,1.3107,1.2566,1.1324,1.2127,1.1964,1.0945,1.0672,0.997,0.8885,0.8885,0.8885,0.8885,0.8885,0.8885,0.8885,0.8885,0.8885,0.8885,0.8885,0.8885,0.8885,0.0,0.0,0.0,0.0,0.0,0.0,0.0,0.0,0.0,0.0,0.0,0.0,0.0,0.0,0.0,0.0,0.0,0.0,0.0,3.4733,3.4095,3.3343,3.2655,3.2232,3.2013,3.0836,2.9829,2.9048,2.7484,2.6003,2.4501,2.38,2.3161,2.2677,2.2123,2.1869,2.1869,2.1869,2.2021,2.2173,2.1623,2.1623,0.0,0.0,0.0,0.0,0.0,0.0,0.0,0.0,2.1275,2.1326,2.1027,2.0925,2.0925,2.0925,2.0925,2.0917,2.096,2.0806,2.049,1.9805,1.8401,1.7153,1.706,1.6908,1.6855,1.673,1.6524,1.6418,1.6677,1.667,1.6564,1.6418,1.624,1.634,1.6882,1.6558,1.6234,1.6121,1.6127,1.6068,1.5962,1.6068,1.5855,1.5102,1.5156,1.4888,1.4132,1.4078,1.4024,1.397,1.397,1.3917,1.3809,1.4352,1.4358,1.3927,1.3378,1.2403,1.1105,1.1,1.0406,0.943,0.9047,0.8995,0.9213,0.8992,0.8885,0.8885,0.8885,0.8885,0.8885,0.8885,0.8885,0.8885,0.0,0.0,0.0,0.0,0.0,0.0,0.0,0.0,0.0,0.0,0.0,0.0,0.0,0.0,0.0,0.0,0.0,0.0,3.5494,3.5251,3.4759,3.405,3.3373,3.2927,3.2711,3.1869,3.0982,2.9943,2.8527,2.7105,2.5674,2.5129,2.459,2.4057,2.3452,2.3253,2.3253,2.3253,2.3253,2.3194,2.2844,2.2652,0.0,0.0,0.0,0.0,0.0,0.0,0.0,0.0,2.1121,2.1369,2.1019,2.0925,2.0925,2.0925,2.1019,2.1224,2.1623,2.131,2.0893,2.0987,1.9901,1.8662,1.8304,1.7582,1.7113,1.7411,1.7265,1.7008,1.6895,1.7107,1.7265,1.7226,1.743,1.7582,1.7582,1.7582,1.7582,1.7582,1.7582,1.7582,1.7582,1.7582,1.7259,1.6505,1.6452,1.6074,1.5263,1.5209,1.5209,1.5209,1.5108,1.5055,1.5055,1.5547,1.5767,1.5666,1.4787,1.3593,1.2191,1.2141,1.1387,1.0194,0.9699,0.9427,0.9379,0.9047,0.8885,0.8885,0.8885,0.8885,0.8885,0.8885,0.8885,0.8885,0.0,0.0,0.0,0.0,0.0,0.0,0.0,0.0,0.0,0.0,0.0,0.0,0.0,0.0,0.0,0.0,0.0,0.0,3.571,3.5087,3.4716,3.4716,3.405,3.3386,3.2711,3.2711,3.2101,3.0892,2.9165,2.7673,2.6504,2.5954,2.5693,2.5703,2.5081,2.4827,2.4827,2.4827,2.4827,2.4827,2.4827,2.47,2.4384,0.0,0.0,0.0,0.0,0.0,0.0,0.0,2.0925,2.0925,2.0925,2.0925,2.0925,2.0925,2.1275,2.1674,2.1725,2.1725,2.1615,2.1395,2.0885,2.0526,2.0436,1.8478,1.7199,1.8864,1.7877,1.6789,1.712,1.6955,1.6842,1.7173,1.743,1.7582,1.7582,1.7582,1.7582,1.7582,1.7582,1.7582,1.7582,1.7582,1.7582,1.7582,1.7582,1.7582,1.7582,1.7582,1.7582,1.7582,1.7331,1.7179,1.7179,1.6842,1.6577,1.6324,1.6577,1.5974,1.4578,1.432,1.3073,1.1051,1.0781,1.019,0.9379,0.9047,0.8885,0.8885,0.8885,0.8885,0.8885,0.8885,0.8885,0.8885,0.0,0.0,0.0,0.0,0.0,0.0,0.0,0.0,0.0,0.0,0.0,0.0,0.0,0.0,0.0,0.0,0.0,0.0,3.5683,3.5507,3.5386,3.5386,3.4758,3.4259,3.3894,3.2599,3.1415,3.0397,2.9244,2.8164,2.7258,2.7105,2.6771,2.6254,2.6099,2.5993,2.5993,2.5993,2.5993,2.5945,2.5586,2.5402,2.5266,0.0,0.0,0.0,0.0,0.0,0.0,0.0,0.0,0.0,2.0925,2.0925,2.0925,2.0925,2.1019,2.1224,2.1623,2.1979,2.2224,2.2165,2.1895,2.1785,2.2291,2.0084,1.7877,1.7793,1.7378,1.7067,1.7173,1.7272,1.7318,1.7226,1.743,1.7582,1.7582,1.7582,1.7582,1.7582,1.7582,1.7582,1.7582,1.7582,1.7582,1.7582,1.7582,1.7582,1.7582,1.7582,1.7529,1.7331,1.7226,1.7067,1.6842,1.6583,1.6377,1.6324,1.6211,1.5179,1.3393,1.3275,1.2087,1.0139,0.9644,0.943,0.9379,0.9047,0.8885,0.8885,0.8885,0.8885,0.8885,0.8885,0.8885,0.8885,0.0,0.0,0.0,0.0,0.0,0.0,0.0,0.0,0.0,0.0,3.5142,3.466,0.0,0.0,0.0,0.0,0.0,0.0,0.0,3.5588,3.571,3.571,3.5304,3.4922,3.4522,3.2432,3.108,3.0588,2.9566,2.8735,2.807,2.807,2.7835,2.741,2.741,2.741,2.741,2.741,2.741,2.741,2.7057,2.6809,2.6532,0.0,0.0,0.0,0.0,0.0,0.0,0.0,0.0,0.0,2.0925,2.0925,2.0917,2.1173,2.1377,2.1674,2.2182,2.2577,2.2878,2.3138,2.287,2.2601,2.2811,2.1014,1.902,1.7635,1.7279,1.7226,1.7331,1.7378,1.743,1.7384,1.7483,1.7582,1.7582,1.7582,1.7582,1.7582,1.7582,1.7582,1.7582,1.7582,1.7582,1.7582,1.7582,1.7582,1.7582,1.7582,1.7483,1.7232,1.7067,1.6849,1.6524,1.6264,1.6164,1.6164,1.5998,1.5024,1.3403,1.3388,1.2521,1.0958,0.9647,0.9158,0.9213,0.8992,0.8885,0.8885,0.8885,0.8885,0.8885,0.8885,0.8992,0.9103,0.0,0.0,3.9049,3.7863,0.0,0.0,0.0,0.0,0.0,0.0,3.6164,3.5593,0.0,0.0,0.0,0.0,0.0,0.0,0.0,3.529,3.5655,3.571,3.5669,3.5345,3.4662,3.2289,3.1057,3.1134,3.0,2.9209,2.8803,2.8803,2.8803,2.8803,2.8803,2.8803,2.8803,2.8803,2.8803,2.8803,2.8803,2.8513,2.7987,2.7237,0.0,0.0,0.0,0.0,0.0,0.0,0.0,0.0,2.0917,2.0925,2.1019,2.1471,2.203,2.2526,2.3029,2.3229,2.3429,2.3994,2.3737,2.317,2.235,2.1591,2.0416,1.8304,1.7589,1.7483,1.7687,1.7483,1.7331,1.7582,1.7582,1.7582,1.7582,1.7582,1.7582,1.7582,1.7582,1.7582,1.7582,1.7582,1.7582,1.7582,1.7582,1.7582,1.7582,1.7582,1.743,1.7179,1.6842,1.6524,1.6271,1.5998,1.5891,1.5891,1.5891,1.5351,1.4331,1.4277,1.3673,1.2585,1.0304,0.9158,0.8885,0.8885,0.8885,0.8885,0.8885,0.8885,0.8885,0.8937,0.9158,0.9379,0.0,0.0,3.9156,3.8446,0.0,0.0,0.0,0.0,0.0,0.0,0.0,0.0,0.0,0.0,0.0,0.0,0.0,0.0,0.0,3.491,3.5181,3.5696,3.5562,3.5046,3.4165,3.2882,3.1697,3.0676,2.9498,2.8896,2.8803,2.8803,2.8803,2.8803,2.8803,2.8803,2.8803,2.8803,2.8803,2.8803,2.8803,2.8746,2.8606,2.8186,2.8102,0.0,0.0,0.0,0.0,0.0,0.0,0.0,2.1173,2.0925,2.0925,2.1019,2.1471,2.1928,2.2021,2.2677,2.3329,2.3488,2.3737,2.3746,2.2677,2.2266,2.17,2.0135,1.9265,1.8767,1.8871,1.8101,1.7529,1.7582,1.7582,1.7582,1.7582,1.7582,1.7582,1.7582,1.7582,1.7582,1.7582,1.7582,1.7582,1.7582,1.7582,1.7582,1.7582,1.7378,1.7113,1.6842,1.653,1.6271,1.5998,1.5945,1.5891,1.5891,1.5891,1.5785,1.5512,1.46,1.3073,1.1109,0.9647,0.8995,0.8885,0.8885,0.8885,0.8885,0.8885,0.8885,0.8937,0.9213,0.9323,0.9379,0.0,0.0,0.0,0.0,0.0,0.0,0.0,0.0,0.0,0.0,0.0,0.0,0.0,3.5059,0.0,0.0,3.4029,3.4071,3.3971,3.4516,3.5059,3.5683,3.5521,3.5209,3.48,3.3704,3.2827,3.2197,3.0687,2.9543,2.8803,2.9035,2.9035,2.8803,2.8803,2.8803,2.8803,2.8664,2.8617,2.8617,2.8466,2.8326,2.8243,2.8196,2.8055,2.782,2.7315,0.0,0.0,0.0,0.0,0.0,0.0,0.0,2.1912,2.2156,2.1962,2.1827,2.2325,2.2878,2.3379,2.3637,2.3945,2.4044,2.3438,2.3288,2.3129,2.2391,2.1014,2.0004,2.0004,1.9131,1.8356,1.8356,1.7943,1.7582,1.7582,1.7582,1.7582,1.7582,1.7582,1.7582,1.7582,1.7582,1.7582,1.7582,1.7582,1.7529,1.743,1.7279,1.7014,1.653,1.6371,1.6164,1.5891,1.5891,1.5891,1.5891,1.5891,1.5891,1.5838,1.4708,1.2911,1.0672,1.0021,0.9427,0.8885,0.8885,0.8885,0.8885,0.8885,0.8885,0.8937,0.9268,0.9379,0.9379,0.0,0.0,0.0,0.0,0.0,0.0,0.0,0.0,0.0,0.0,0.0,0.0,0.0,3.5593,3.5059,0.0,0.0,0.0,3.3505,3.4418,3.5203,3.5694,3.5534,3.5521,3.571,3.4483,3.3872,3.3943,3.2308,3.0654,2.9071,2.9347,2.9255,2.8803,2.8803,2.8803,2.8803,2.8581,2.8488,2.8441,2.8196,2.7961,2.7773,2.7951,2.7762,2.7489,2.7857,2.7315,2.635,2.634,0.0,0.0,0.0,0.0,2.2894,2.3343,2.266,2.1869,2.2778,2.3179,2.3429,2.4053,2.4202,2.4202,2.4202,2.4202,2.4202,2.4202,2.2568,2.1191,2.1191,2.0261,1.9435,1.9228,1.8461,1.7786,1.7635,1.7582,1.7582,1.7582,1.7582,1.7582,1.7582,1.7582,1.7582,1.7582,1.7582,1.7483,1.7226,1.7173,1.6855,1.6324,1.6271,1.6105,1.5891,1.5891,1.5891,1.5891,1.5891,1.5891,1.5891,1.4922,1.3236,1.1,1.0781,1.0021,0.8885,0.8885,0.8885,0.8885,0.8885,0.8885,0.8937,0.9268,0.9379,0.9379,0.0,0.0,0.0,0.0,0.0,0.0,0.0,0.0,0.0,0.0,3.6831,3.646,3.6352,3.6352,3.6022,3.519,3.5166,3.5148,3.4934,0.0,0.0,3.5868,3.5744,3.5669,3.571,3.4799,3.4121,3.3746,3.3091,3.1821,2.9988,2.9658,2.9255,2.8803,2.8803,2.8803,2.8803,2.8757,2.8757,2.871,2.843,2.8348,2.8254,2.8045,2.7951,2.7904,2.7998,2.7762,2.7289,2.6446,2.5868,0.0,0.0,0.0,2.2568,2.2627,2.2224,2.1725,2.1869,2.2577,2.3429,2.4053,2.4202,2.4202,2.4202,2.4202,2.4202,2.4202,2.3188,2.2274,2.2274,2.1395,2.0364,1.9383,1.9072,1.8662,1.7733,1.7582,1.7582,1.7582,1.7582,1.7582,1.7582,1.7582,1.7582,1.7582,1.7582,1.7483,1.7226,1.6902,1.663,1.6324,1.6051,1.5945,1.5891,1.5891,1.5891,1.5891,1.5891,1.5891,1.5891,1.5731,1.4369,1.2146,1.1109,1.0021,0.8885,0.8885,0.8885,0.8885,0.8885,0.8885,0.8937,0.9268,0.9379,0.9379,0.0,0.0,0.0,0.0,0.0,0.0,0.0,0.0,0.0,0.0,0.0,3.6492,3.6492,3.6492,3.6211,3.5464,3.54,3.5325,3.5212,3.5404,3.5634,3.5867,3.5814,3.5794,3.571,3.5223,3.4922,3.4814,3.3462,3.2289,3.1344,3.0091,2.9255,2.8803,2.8803,2.8803,2.8803,2.8617,2.8581,2.8524,2.829,2.8102,2.7961,2.7998,2.7904,2.7809,2.7951,2.7998,2.7961,2.7363,2.7173,2.7088,2.6484,0.0,0.0,0.0,2.2518,2.1369,2.1979,2.2728,2.3429,2.4053,2.4202,2.4202,2.4202,2.4202,2.4202,2.4202,2.3795,2.3438,2.3438,2.2577,2.1446,2.0313,1.9642,1.8819,1.7733,1.7582,1.7582,1.7582,1.7582,1.7582,1.7582,1.7582,1.7582,1.7582,1.7582,1.7483,1.7226,1.6895,1.6577,1.6324,1.6051,1.5891,1.5891,1.5891,1.5891,1.5891,1.5891,1.5891,1.5891,1.5891,1.497,1.3344,1.2146,1.1,0.986,0.9154,0.8885,0.8885,0.8885,0.8885,0.8937,0.9268,0.9379,0.9379,0.0,0.0,0.0,0.0,0.0,0.0,0.0,0.0,0.0,0.0,0.0,3.6492,3.6492,0.0,0.0,0.0,3.5672,3.5642,3.5539,3.5307,3.541,3.5916,3.5749,3.5636,3.5696,3.5521,3.548,3.5642,3.4011,3.3011,3.2513,3.1134,3.0125,2.9509,2.9244,2.929,2.9509,2.9244,2.8978,2.8746,2.8466,2.8045,2.7631,2.7809,2.7715,2.7536,2.7762,2.7961,2.816,2.7951,2.8102,2.8243,2.7857,2.634,0.0,0.0,0.0,2.1522,2.2426,2.2878,2.3279,2.3994,2.4093,2.3994,2.4152,2.4202,2.4202,2.4202,2.4202,2.4202,2.4202,2.3497,2.2467,2.114,2.021,1.9183,1.7793,1.7582,1.7582,1.7582,1.7582,1.7582,1.7582,1.7582,1.7582,1.7582,1.7582,1.743,1.7067,1.6842,1.6524,1.6217,1.5998,1.5891,1.5891,1.5891,1.5891,1.5891,1.5891,1.5891,1.5891,1.5618,1.4976,1.411,1.2906,1.1601,1.0186,0.9265,0.8885,0.8885,0.8885,0.8885,0.8937,0.9158,0.9268,0.9268,0.0,0.0,0.0,0.0,0.0,0.0,0.0,0.0,0.0,0.0,0.0,3.6492,3.6492,3.6492,3.6492,3.646,3.6445,3.6429,3.6444,3.5648,3.5456,3.6057,3.5298,0.0,3.571,3.5521,3.5399,3.544,3.5113,3.4371,3.3267,3.3126,3.2525,3.14,3.0519,3.0609,3.1444,3.1247,3.0576,2.9726,2.952,2.8699,2.7584,2.7631,2.7489,2.7309,2.7309,2.7452,2.7641,2.7631,2.7809,2.7904,2.7183,2.6167,2.5099,0.0,0.0,0.0,2.3129,2.2929,2.2828,2.3895,2.3786,2.3488,2.4053,2.4202,2.4202,2.4202,2.4202,2.4202,2.4202,2.4152,2.3388,2.1242,2.0834,2.0063,1.7891,1.7582,1.7582,1.7582,1.7582,1.7582,1.7582,1.7582,1.7582,1.7582,1.7582,1.7318,1.6783,1.673,1.6471,1.5945,1.5891,1.5891,1.5891,1.5891,1.5891,1.5891,1.5891,1.5891,1.5838,1.4761,1.4277,1.411,1.2906,1.1114,0.8992,0.8937,0.8885,0.8885,0.8885,0.8885,0.8885,0.894,0.8937,0.8937,0.0,0.0,0.0,0.0,0.0,0.0,0.0,0.0,0.0,0.0,0.0,0.0,0.0,3.6492,3.6492,3.6492,3.6492,3.6492,3.6492,3.5754,3.5379,3.552,3.5156,3.4981,3.514,3.5278,3.548,3.5602,3.4483,3.3788,3.3534,3.2624,3.2321,3.242,3.0878,3.0384,3.0654,3.0,2.9463,2.9152,2.9071,2.8664,2.8102,2.829,2.8092,2.7762,2.7762,2.7809,2.7809,2.7489,2.7536,2.7678,2.7299,2.5974,2.4196,2.2518,2.2021,2.203,2.2224,2.2375,2.2577,2.3038,2.3238,2.3379,2.3587,2.3945,2.4202,2.4202,2.4202,2.4202,2.4202,2.4202,2.3696,2.2165,2.1912,2.114,1.8923,1.861,1.8356,1.7687,1.7582,1.7582,1.7582,1.7582,1.7582,1.7582,1.743,1.7279,1.7008,1.6636,1.6371,1.6158,1.5998,1.5891,1.5891,1.5891,1.5891,1.5891,1.5891,1.5891,1.5891,1.5458,1.4482,1.3019,1.258,1.1492,0.997,0.921,0.8885,0.8885,0.8885,0.8885,0.8885,0.8885,0.9047,0.9213,0.0,0.0,0.0,3.6299,0.0,3.7586,3.7709,3.7839,3.7794,3.7445,0.0,0.0,0.0,0.0,3.6492,3.6492,3.6492,3.6492,3.6492,3.5576,3.5074,3.5192,3.5109,3.494,3.4696,3.5274,3.5573,3.5521,3.4286,3.383,3.4037,3.3122,3.295,3.3377,3.184,3.1311,3.1577,3.0878,3.0215,2.9589,2.9646,2.9106,2.829,2.8571,2.8384,2.7998,2.7904,2.7904,2.7951,2.7536,2.7536,2.7678,2.7299,2.6022,2.4295,2.2518,2.2224,2.2426,2.208,2.2072,2.2274,2.2476,2.2627,2.2878,2.3229,2.3587,2.3945,2.4152,2.4202,2.4202,2.4202,2.3895,2.3388,2.2627,2.2215,2.1344,1.9487,1.9176,1.8812,1.7733,1.7582,1.7582,1.7582,1.7582,1.7582,1.7582,1.7325,1.7173,1.706,1.659,1.6271,1.6164,1.5998,1.5891,1.5891,1.5891,1.5891,1.5891,1.5891,1.5891,1.5891,1.5512,1.4266,1.2363,1.1982,1.1164,1.0025,0.921,0.8885,0.8885,0.8885,0.8885,0.8885,0.8885,0.9047,0.9213,0.0,3.56,3.56,3.56,3.6265,3.6845,3.6962,3.711,3.7223,3.7352,0.0,0.0,0.0,0.0,0.0,3.6492,3.6492,3.6492,3.6492,3.5124,3.4588,3.5192,3.5217,3.4978,3.4538,3.5474,3.5701,3.5127,3.4714,3.4607,3.4797,3.4797,3.4673,3.4356,3.3433,3.356,3.4397,3.4105,3.292,3.1134,3.1247,2.9943,2.8045,2.829,2.8243,2.7951,2.7726,2.7762,2.7951,2.7678,2.7762,2.7846,2.7088,2.6322,2.545,2.4372,2.4035,2.3827,0.0,0.0,0.0,2.2325,2.2072,2.1971,2.3029,2.3279,2.3438,2.4053,2.4152,2.4202,2.4202,2.3288,2.2526,2.2526,2.165,2.057,1.9435,1.928,1.8871,1.7786,1.7635,1.7635,1.7582,1.7582,1.7582,1.7582,1.7331,1.706,1.673,1.6424,1.6164,1.5891,1.5891,1.5891,1.5891,1.5891,1.5891,1.5891,1.5891,1.5891,1.5838,1.4708,1.3565,1.2358,1.1214,1.0021,0.8885,0.8885,0.8885,0.8885,0.8885,0.8885,0.8885,0.8885,0.8885,0.8885,3.5644,3.5667,3.5711,3.5622,3.6265,3.6709,3.6391,3.6843,3.7082,0.0,0.0,0.0,3.6492,3.6492,3.6492,3.6492,3.6492,3.6492,3.6492,3.564,3.5388,3.6041,3.5432,3.5227,3.56,3.5721,3.5694,3.5521,3.5278,3.5129,3.5003,3.488,3.4673,3.4397,3.4134,3.4176,3.4314,3.2907,3.119,2.9509,3.0215,2.9726,2.8606,2.8664,2.8373,2.7998,2.7904,2.7715,2.7489,2.7404,2.7536,2.7478,2.6167,2.5586,2.5001,2.297,2.2627,2.2728,2.1623,0.0,0.0,0.0,0.0,0.0,2.2072,2.2426,2.2878,2.3429,2.3538,2.3687,2.4102,2.3288,2.2778,2.3596,2.2778,2.1962,2.165,2.1599,2.0877,1.8968,1.8767,1.8461,1.7687,1.7582,1.7582,1.7582,1.7107,1.6789,1.6677,1.6258,1.5998,1.5891,1.5891,1.5891,1.5891,1.5891,1.5891,1.5891,1.5891,1.5891,1.5838,1.4708,1.3565,1.2358,1.1214,1.0021,0.8885,0.8885,0.8885,0.8885,0.8885,0.8885,0.8885,0.8885,0.8885,0.8885,3.5778,3.5751,3.5773,3.5622,3.5795,3.6013,3.6091,3.6258,3.6422,0.0,0.0,0.0,3.6492,3.6492,3.6492,3.6492,3.6226,3.6179,3.6492,3.5529,3.5241,3.5857,3.5632,3.5474,3.5383,3.5664,3.5718,3.544,3.5076,3.4927,3.4962,3.4743,3.4535,3.4397,3.4397,3.3953,3.3207,3.2463,3.1311,3.0034,3.0564,3.0,2.8803,2.8803,2.8606,2.8279,2.8092,2.7809,2.7584,2.7357,2.7214,2.7013,2.6466,2.5877,2.5197,2.366,2.317,2.2929,2.1878,2.1623,2.1623,2.1318,0.0,0.0,2.192,2.2274,2.2728,2.3488,2.3687,2.3795,2.4152,2.3288,2.2878,2.4003,2.2878,2.2013,2.2426,2.2476,2.1861,2.0107,1.9487,1.8968,1.8356,1.7838,1.7582,1.7582,1.7054,1.6624,1.6365,1.6045,1.5891,1.5891,1.5891,1.5891,1.5891,1.5891,1.5891,1.5891,1.5891,1.5672,1.519,1.4493,1.329,1.1655,1.1,1.0021,0.8885,0.8885,0.8885,0.8885,0.8885,0.8885,0.8885,0.8885,0.8885,0.8885,0.0,3.5817,3.5773,3.5622,3.5155,3.5062,3.5859,3.5584,3.5548,0.0,3.6445,3.6492,3.6492,3.6492,3.646,3.6383,3.5847,3.5769,3.6352,3.5198,3.4792,3.5363,3.5861,3.567,3.4712,3.5493,3.5639,3.5086,3.4566,3.4458,3.4797,3.4577,3.4356,3.4259,3.4356,3.3335,3.1665,3.2593,3.2407,3.1444,3.1444,3.0339,2.8757,2.8803,2.8803,2.871,2.8233,2.7998,2.7904,2.7489,2.7023,2.6688,2.7204,2.6562,2.5548,2.5099,2.4461,2.3728,2.2778,2.2173,2.1776,2.1725,2.1326,0.0,2.2123,2.2325,2.2636,2.3696,2.3895,2.3945,2.3994,2.3188,2.2828,2.3845,2.2409,2.1497,2.2577,2.2577,2.2165,2.1191,2.0158,1.9487,1.9176,1.8304,1.7681,1.7529,1.6995,1.6418,1.5945,1.5891,1.5891,1.5891,1.5891,1.5891,1.5891,1.5891,1.5891,1.5891,1.5785,1.519,1.4169,1.3948,1.2694,1.0672,1.0562,0.9915,0.8885,0.8885,0.8885,0.8885,0.8885,0.8885,0.8885,0.8885,0.8885,0.8885,3.5883,3.5883,3.5888,3.5644,3.5155,3.4881,3.5163,3.5249,3.542,3.5659,3.6153,3.6492,3.6492,3.6492,3.6258,3.5672,3.6022,3.6085,3.5625,3.578,3.6126,3.6625,3.6053,3.5802,3.5971,3.552,3.5238,3.5086,3.4966,3.4897,3.4797,3.4756,3.4176,3.3292,3.4037,3.3335,3.1665,3.2593,3.2016,3.0474,3.0474,2.9681,2.8488,2.871,2.8664,2.8441,2.8348,2.8055,2.7678,2.7584,2.7489,2.7204,2.6071,2.5586,2.505,2.3511,2.292,2.2778,2.2577,2.2426,2.2224,2.1827,2.1623,0.0,2.1275,2.1224,2.142,2.203,2.2182,2.2333,2.2728,2.2627,2.2577,2.2778,2.2828,2.3079,2.3795,2.3088,2.2426,2.2224,2.2013,2.1081,1.9079,1.8871,1.8349,1.6995,1.6583,1.6264,1.5945,1.5891,1.5891,1.5891,1.5891,1.5891,1.5891,1.5891,1.5891,1.5891,1.4976,1.4439,1.4164,1.2254,1.1109,1.0672,0.9699,0.9099,0.8885,0.8885,0.8885,0.8885,0.8885,0.8885,0.8885,0.8885,0.8885,0.8885,3.5975,3.5954,3.5932,3.5734,3.4975,3.4537,3.4975,3.4967,3.5043,3.5459,3.6076,3.6492,3.6492,3.6179,3.5943,3.5943,3.5608,3.5711,3.6381,3.6011,3.6143,3.7028,3.6225,3.5764,3.583,3.5467,3.5195,3.5086,3.5003,3.488,3.4797,3.466,3.405,3.3023,3.3462,3.2679,3.0911,3.14,3.0687,2.9371,2.9954,2.9555,2.8617,2.8757,2.8617,2.8395,2.8395,2.8066,2.7584,2.7584,2.7194,2.6514,2.5916,2.5041,2.4214,2.366,2.322,2.2979,2.3288,2.3138,2.2828,2.2577,2.2274,0.0,0.0,2.1869,2.1869,2.2375,2.2274,2.2173,2.2476,2.2476,2.2476,2.2476,2.2518,2.256,2.2719,2.3079,2.3138,2.2577,2.2266,2.1591,2.0357,1.9235,1.7996,1.6636,1.6377,1.6164,1.5891,1.5891,1.5891,1.5891,1.5891,1.5891,1.5891,1.5891,1.5891,1.5891,1.4761,1.3894,1.3236,1.1492,1.0347,0.9754,0.9154,0.8885,0.8885,0.8885,0.8885,0.8885,0.8885,0.8885,0.8885,0.8885,0.8885,0.8885,3.6088,3.5975,3.591,3.5778,3.4769,3.4205,3.4787,3.4656,3.4797,3.5598,3.6045,3.6289,3.6289,3.5608,3.532,3.5769,3.4813,3.4926,3.6673,3.5683,3.5561,3.6696,3.6069,3.555,3.5209,3.5236,3.5113,3.4962,3.4797,3.4714,3.4714,3.4481,3.3784,3.2722,3.2938,3.184,2.9943,3.0125,2.9555,2.8581,2.9555,2.9463,2.871,2.8803,2.8664,2.8441,2.8348,2.8019,2.7584,2.7584,2.6907,2.6032,2.5964,2.4835,2.3619,2.4106,2.3759,2.3279,2.4003,2.3845,2.3438,2.3329,2.2979,2.2728,0.0,0.0,0.0,2.3079,2.2728,2.2325,2.2325,2.2274,2.2148,2.2131,2.1862,2.1515,2.1052,2.2626,2.3388,2.2165,2.1996,2.1735,2.1065,1.8923,1.7219,1.6377,1.6271,1.6105,1.5891,1.5891,1.5891,1.5891,1.5891,1.5891,1.5891,1.5891,1.5779,1.5565,1.4379,1.3236,1.2037,1.0891,0.9805,0.8885,0.8885,0.8885,0.8885,0.8885,0.8885,0.8885,0.8885,0.8885,0.8885,0.8885,0.8885,0.8885,3.6041,3.5888,3.5795,3.5644,3.4721,3.4043,3.4108,3.4341,3.4951,3.6215,3.5897,3.5529,3.5529,3.4714,3.3925,3.3374,3.3581,3.3907,3.4178,3.4376,3.4802,3.5471,3.5116,3.48,3.4522,3.4522,3.4481,3.4481,3.4439,3.4452,3.4439,3.4397,3.3475,3.1797,3.2636,3.1488,2.9024,2.9863,2.9635,2.8757,2.8885,2.8757,2.8488,2.871,2.8803,2.871,2.8233,2.7857,2.7584,2.7584,2.7489,2.7146,2.5829,2.4943,2.4245,2.3619,2.3029,2.2828,2.3895,2.4152,2.3945,2.3429,2.3229,2.3079,2.2677,0.0,2.2526,2.2577,0.0,2.1776,2.1776,0.0,0.0,2.0704,2.1259,2.1255,1.995,2.1468,2.2106,2.0495,2.1937,2.1887,1.8708,1.7047,1.6158,1.6271,1.6057,1.5945,1.5891,1.5891,1.5891,1.5891,1.5891,1.5891,1.5891,1.5891,1.5405,1.4385,1.3181,1.1982,1.0836,0.9644,0.9047,0.8885,0.8885,0.8885,0.8885,0.8885,0.8885,0.8885,0.8885,0.8885,0.8885,0.8885,0.8885,0.8885,3.5927,3.5905,3.58,3.5424,3.4657,3.4003,3.3707,3.4128,3.4998,3.6307,3.5879,3.54,3.54,3.4264,3.3581,3.3685,3.3408,3.3748,3.4938,3.5178,3.5438,3.588,3.5986,3.5656,3.4812,3.4825,3.4743,3.4618,3.4481,3.4397,3.4397,3.4397,3.339,3.1621,3.2016,3.0923,2.885,2.9198,2.9152,2.8803,2.8803,2.871,2.8617,2.8757,2.871,2.8524,2.829,2.7961,2.7631,2.7773,2.7241,2.6274,2.4982,2.4254,2.3669,2.3029,2.2878,2.3129,2.3945,2.3945,2.3687,2.3795,2.3587,2.3329,2.3438,2.3238,2.2878,2.2577,0.0,0.0,0.0,0.0,0.0,0.0,2.1474,2.121,1.9852,2.1135,2.177,2.0641,2.1183,2.057,1.7825,1.6988,1.6577,1.6324,1.6051,1.5945,1.6105,1.5998,1.5891,1.5891,1.5891,1.5891,1.5891,1.5891,1.5672,1.5137,1.3285,1.2146,1.1596,0.9754,0.8885,0.8885,0.8885,0.8885,0.8885,0.8885,0.8885,0.8885,0.8885,0.8885,0.8826,0.81,0.7878,0.7878,3.5905,3.5822,3.565,3.5224,3.4512,3.3921,3.3724,3.4156,3.4998,3.6307,3.5879,3.54,3.54,3.4027,3.3318,3.3856,3.3241,3.3462,3.5066,3.5305,3.5519,3.5869,3.611,3.5924,3.5263,3.5031,3.4949,3.5031,3.4605,3.4397,3.4397,3.4134,3.3164,3.1577,3.1311,3.0306,2.8803,2.8803,2.8803,2.8803,2.8803,2.8803,2.8803,2.8803,2.8617,2.8395,2.8395,2.8102,2.7773,2.7998,2.7373,2.6264,2.5129,2.4393,2.3809,2.297,2.2878,2.3229,2.3786,2.3637,2.3429,2.4053,2.3895,2.3637,2.4093,2.3845,2.3438,2.3038,2.2426,0.0,0.0,0.0,2.0987,2.129,0.0,2.11,1.9944,2.078,2.1213,2.0202,1.9638,1.8759,1.7432,1.6866,1.6487,1.6206,1.5942,1.5925,1.6264,1.6051,1.5891,1.5891,1.5891,1.5891,1.5891,1.5891,1.5731,1.5405,1.3393,1.2254,1.1873,0.9809,0.8885,0.8885,0.8885,0.8885,0.8885,0.8885,0.8885,0.8885,0.8885,0.8885,0.8771,0.7934,0.7598,0.7598,3.6019,3.5583,3.5178,3.5021,3.4136,3.3661,3.4372,3.4474,3.4998,3.6307,3.5879,3.54,3.54,3.3925,3.2932,3.2932,3.2671,3.2764,3.3325,3.3741,3.4217,3.4812,3.4605,3.4868,3.5669,3.4827,3.484,3.5669,3.484,3.4397,3.4397,3.3475,3.255,3.1577,3.0654,2.9726,2.8803,2.8803,2.8803,2.8803,2.8803,2.8803,2.8803,2.8803,2.8617,2.8395,2.8395,2.8243,2.8045,2.829,2.8348,2.8102,2.6839,2.6051,2.5314,2.3759,2.2929,2.2627,2.3179,2.3329,2.3429,2.4053,2.4202,2.4202,2.4202,2.4202,2.4152,2.4152,2.3238,2.2476,2.2476,2.1623,2.0805,2.0514,2.0694,0.0,0.0,2.0235,1.9834,1.8171,1.6988,1.6663,1.7434,1.6086,1.5393,1.5863,1.5667,1.5731,1.6258,1.6051,1.5891,1.5891,1.5891,1.5891,1.5891,1.5891,1.5351,1.4223,1.2965,1.1819,1.0726,0.9482,0.8885,0.8885,0.8885,0.8885,0.8885,0.8885,0.8885,0.8885,0.8885,0.8885,0.8881,0.8881,0.883,0.883,3.5827,3.5299,3.4904,3.4745,3.407,3.3752,3.439,3.4089,3.4242,3.5602,3.4714,3.3939,3.3939,3.303,3.2431,3.2431,3.26,3.2943,3.3482,3.45,3.5005,3.4812,3.6122,3.6306,3.5141,3.5481,3.5481,3.51,3.4647,3.4397,3.4397,3.4092,3.3079,3.1577,3.1267,3.026,2.8803,2.8803,2.8803,2.8803,2.8803,2.8803,2.8803,2.8803,2.8617,2.8441,2.8617,2.8373,2.8045,2.8301,2.8055,2.7373,2.6119,2.5577,2.5138,2.3719,2.3438,2.3646,2.3845,2.3587,2.3429,2.4053,2.3895,2.3687,2.4102,2.4202,2.4102,2.3687,2.3279,2.3029,2.3029,2.2173,2.1532,2.1762,2.1296,2.075,0.0,1.9932,1.9429,1.8613,1.7653,1.6943,1.6687,1.6709,1.6612,1.6213,1.6801,1.6996,1.6571,1.6158,1.5891,1.5891,1.5891,1.5891,1.5891,1.5891,1.5731,1.5298,1.3339,1.22,1.176,0.9809,0.8885,0.8885,0.8885,0.8885,0.8885,0.8885,0.8885,0.8885,0.8885,0.8885,0.8826,0.7989,0.7709,0.7709,3.5459,3.5028,3.4673,3.4317,3.3649,3.3473,3.4361,3.3879,3.3872,3.522,3.4346,3.3596,3.3596,3.296,3.2574,3.2574,3.2938,3.3311,3.3586,3.4847,3.5395,3.4949,3.6281,3.6478,3.5263,3.5561,3.5561,3.51,3.4647,3.4397,3.4397,3.405,3.3079,3.1577,3.1267,3.0249,2.8803,2.8803,2.8803,2.8803,2.8803,2.8803,2.8803,2.8803,2.871,2.8581,2.8757,2.856,2.8279,2.8139,2.7752,2.7125,2.5722,2.5294,2.505,2.3669,2.3587,2.3895,2.3895,2.3587,2.3429,2.4053,2.3895,2.3737,2.4102,2.4202,2.4053,2.3429,2.3279,2.3179,2.2778,2.2325,2.1971,2.1928,2.1522,2.0953,0.0,1.9614,1.909,1.8805,1.8073,1.7449,1.7197,1.699,1.7025,1.7606,1.7208,1.7088,1.7292,1.6411,1.5891,1.5891,1.5891,1.5891,1.5891,1.5891,1.5891,1.5891,1.3501,1.2417,1.2309,0.997,0.8885,0.8885,0.8885,0.8885,0.8885,0.8885,0.8885,0.8885,0.8885,0.8885,0.8826,0.8045,0.7765,0.7765,3.4981,3.4745,3.4464,3.37,3.2949,3.2887,3.4289,3.3849,3.3841,3.5155,3.4681,3.4211,3.4211,3.3561,3.3157,3.3199,3.3614,3.3844,3.3653,3.4754,3.5318,3.5127,3.5154,3.5426,3.591,3.5223,3.51,3.5669,3.4799,3.4397,3.4397,3.3433,3.2494,3.1577,3.0609,2.9681,2.8803,2.8803,2.8803,2.8803,2.8803,2.8803,2.8803,2.8803,2.8803,2.8803,2.8757,2.8746,2.8606,2.7835,2.7542,2.7295,2.5771,2.5294,2.505,2.3728,2.3329,2.3329,2.3329,2.3329,2.3488,2.4044,2.4202,2.4202,2.4202,2.4202,2.4044,2.3488,2.3329,2.2979,2.203,2.2173,2.2173,2.1173,2.1412,2.1252,2.0053,1.928,1.8797,1.8781,1.8226,1.8107,1.887,1.694,1.687,1.9794,1.7106,1.6209,1.8255,1.6764,1.5879,1.5891,1.5891,1.5891,1.5891,1.5891,1.5891,1.5891,1.3555,1.2472,1.2417,1.008,0.8992,0.8992,0.8937,0.8885,0.8885,0.8885,0.8885,0.8885,0.8885,0.8885,0.8885,0.8885,0.8885,0.8885,3.4911,3.4102,3.3487,3.3277,3.3054,3.3306,3.4463,3.3577,3.3167,3.4405,3.352,3.2739,3.2739,3.2574,3.2659,3.3097,3.3612,3.4059,3.4466,3.5183,3.548,3.5127,3.5817,3.5749,3.484,3.5399,3.5494,3.5031,3.4605,3.4481,3.4673,3.3518,3.2494,3.1577,3.0609,2.9681,2.8803,2.8803,2.8803,2.8803,2.8803,2.8803,2.8803,2.8803,2.8803,2.871,2.8128,2.793,2.7788,2.702,2.6781,2.659,2.5625,2.5294,2.5099,2.4233,2.3945,2.3945,2.3945,2.3945,2.4003,2.4152,2.4202,2.4202,2.4202,2.4202,2.4152,2.3994,2.3587,2.3329,2.3546,2.2987,2.2526,2.2677,2.1937,2.1007,2.0021,1.9503,1.9129,1.8859,1.9244,1.9184,1.8107,1.8695,1.8944,1.852,1.8425,1.8237,1.7811,1.6434,1.5686,1.5885,1.5891,1.5891,1.5891,1.5891,1.5891,1.5885,1.4433,1.3727,1.3673,1.1332,1.0241,1.0186,0.9265,0.8885,0.8885,0.8885,0.8885,0.8885,0.8885,0.8885,0.8885,0.8885,0.8885,0.8885,3.4666,3.3781,3.3176,3.3176,3.31,3.3339,3.4098,3.3711,3.3457,3.3776,3.3136,3.2538,3.2241,3.2218,3.2449,3.3047,3.3607,3.4165,3.4748,3.5344,3.5602,3.5358,3.5897,3.5736,3.4743,3.5291,3.5345,3.4797,3.466,3.466,3.4797,3.4092,3.298,3.1577,3.1045,3.0079,2.8803,2.8803,2.8803,2.8803,2.8803,2.8803,0.0,2.8803,2.8803,2.8653,2.7494,2.7352,2.7447,2.635,2.5974,2.5829,2.506,2.4824,2.4726,2.4341,2.4202,2.4202,2.4202,2.4202,2.4202,2.4202,2.4202,2.4202,2.4202,2.4202,2.4152,2.3845,2.3737,2.3637,2.3488,2.3338,2.3238,2.3279,2.211,2.1057,2.0557,1.987,1.9296,1.909,1.9378,1.9228,1.8272,1.9526,2.0031,1.9056,1.8721,1.8412,1.8126,1.6451,1.5823,1.6458,1.6099,1.5891,1.5891,1.5891,1.5891,1.5891,1.4761,1.4223,1.4164,1.2309,1.1437,1.1378,1.0186,0.9699,0.9644,0.9099,0.8885,0.8885,0.8885,0.8885,0.8885,0.8885,0.8885,0.8885,3.4464,3.3822,3.3435,3.3319,3.3249,3.3254,3.3457,3.387,3.3914,3.3268,3.3122,3.2868,3.2277,3.2277,3.2586,3.3156,3.3723,3.4308,3.487,3.5385,3.5669,3.5669,3.5669,3.548,3.5127,3.5086,3.5003,3.488,3.4839,3.4839,3.488,3.4714,3.356,3.1609,3.1533,3.0474,2.8803,2.8803,2.8803,2.8803,2.8803,2.8803,2.8803,2.8803,2.8803,2.8606,2.703,2.6924,2.721,2.5684,2.5148,2.505,2.439,2.4202,2.4202,2.4202,2.4202,2.4202,2.4202,2.4202,2.4202,2.4202,2.4202,2.4202,2.4202,2.4202,2.4053,2.3538,2.3786,2.3795,2.2887,2.3538,2.3994,2.3379,2.2244,2.1428,2.123,2.0313,1.9582,1.9487,1.9208,0.0,1.8899,1.9708,2.02,2.0103,1.8287,1.7647,1.8751,1.678,1.6152,1.7292,1.6518,1.5998,1.5891,1.5891,1.5891,1.5891,1.4922,1.4433,1.4379,1.3181,1.2635,1.258,1.1433,1.0836,1.0617,0.9588,0.9047,0.8885,0.8885,0.8895,0.8912,0.8912,0.8925,0.8939,3.4833,3.4617,3.4276,3.345,3.3857,3.3975,3.3013,3.2807,3.2871,3.3164,3.2739,3.2336,3.2205,3.2704,3.3204,3.374,3.4396,3.5034,3.5533,3.5655,3.5642,3.548,3.544,3.5358,3.5127,3.4921,3.5003,3.5277,3.4962,3.4962,3.5277,3.433,3.3139,3.1816,3.1021,2.9977,2.8803,2.8803,2.8803,2.8803,2.8803,2.8803,2.8803,2.8803,2.8803,2.8606,2.703,2.66,2.6456,2.4922,2.439,2.439,2.4251,2.4202,2.4202,2.4202,2.4202,2.4202,2.4202,2.4202,2.4202,2.4202,2.4202,2.4202,2.4202,2.4202,2.4152,2.4044,2.3737,2.3538,2.3845,2.4053,2.3994,2.3379,2.3067,2.2512,2.1362,2.1024,2.0639,1.991,2.0119,2.0069,1.9351,1.9257,1.9066,1.8603,1.7529,1.7429,1.8737,1.7191,1.6714,0.0,1.7305,1.6624,0.0,0.0,1.5891,1.5891,1.5672,1.5618,1.5565,1.4433,1.3894,1.384,1.2635,1.1546,1.0672,1.0457,0.9805,0.8885,0.8885,0.9011,0.9173,0.9173,0.9195,0.9286,3.4904,3.4593,3.4282,3.3794,3.366,3.3501,3.3172,3.2661,3.2394,3.2662,3.2704,3.2574,3.2241,3.2797,3.3376,3.3876,3.455,3.5214,3.5682,3.571,3.5669,3.5562,3.5562,3.548,3.5277,3.5154,3.5195,3.5399,3.5195,3.5195,3.5399,3.4716,3.3522,3.1848,3.0283,2.9325,2.8803,2.8803,2.8803,2.8803,2.8803,2.8803,2.8803,2.8803,2.8803,2.8606,2.703,2.6504,2.6264,2.4726,2.4202,2.4202,2.4202,2.4202,2.4202,2.4202,2.4202,2.4202,2.4202,2.4202,2.4202,2.4202,2.4202,2.4202,2.4202,2.4202,2.4202,2.4202,2.3945,2.3845,2.4152,2.4538,2.4667,2.4362,2.4442,2.4171,2.3054,2.2743,2.2111,2.0737,2.0897,2.0722,1.9742,1.9173,1.8791,1.8615,1.8383,1.8731,1.9814,0.0,1.8274,0.0,0.0,0.0,1.6988,0.0,1.6051,1.5891,1.5891,1.5891,1.5891,1.5351,1.5083,1.503,1.3835,1.3019,1.2472,1.1819,1.1219,1.0633,1.012,0.998,1.0002,0.9471,0.9367,0.9479,3.4864,3.4472,3.4168,3.4073,3.3512,3.3204,3.3677,3.3095,3.2574,3.2444,3.2854,3.2995,3.248,3.3283,3.3909,3.3927,3.4863,3.5529,3.5682,3.571,3.579,3.5937,3.579,3.571,3.571,3.5507,3.5399,3.5399,3.5399,3.5399,3.5399,3.5277,3.4053,3.1904,2.9761,2.8803,2.8803,2.8803,2.8803,2.8803,2.8803,2.8803,2.8803,2.8803,2.8803,2.8606,2.703,2.6504,2.6264,2.4726,2.4202,2.4202,2.4202,2.4202,2.4202,2.4202,2.4202,2.4202,2.4202,2.4202,2.4202,2.4202,2.4202,2.4202,2.4202,2.4202,2.4202,2.4202,2.4202,2.4251,2.439,2.4913,2.5343,2.5538,2.5712,2.5606,2.4875,2.4485,2.3689,2.2154,2.2061,2.1682,2.0549,1.9794,1.9369,1.9454,1.9386,1.9799,2.0842,0.0,0.0,0.0,0.0,1.8499,1.7832,0.0,1.6477,1.6152,1.5998,1.5891,1.5891,1.5891,1.5891,1.5832,1.4976,1.4433,1.411,1.2906,1.2441,1.2388,1.1608,1.1383,1.1354,1.0528,1.0164,1.0052,3.4759,3.4592,3.4422,3.3991,3.4107,3.4299,3.4465,3.4255,3.3871,3.3192,3.3157,3.3192,3.3122,3.4903,3.5543,3.411,3.5789,3.6557,3.5749,3.571,3.6017,3.6741,3.6097,3.6017,3.6741,3.5857,3.5399,3.5399,3.5399,3.5399,3.5399,3.5562,3.4415,3.2166,2.9852,2.8803,2.8803,2.8803,2.8803,2.8803,2.8803,2.8803,2.8803,2.8803,2.8803,2.8606,2.703,2.6504,2.6264,2.4726,2.4202,2.4202,2.4202,2.4202,2.4202,2.4202,2.4202,2.4202,2.4202,2.4202,2.4202,2.4202,2.4202,2.4202,2.4202,2.4202,2.4202,2.4202,2.4202,2.439,2.505,2.5246,2.5538,2.6254,2.6408,2.6254,2.5654,2.5567,2.5286,2.4527,2.4209,2.3526,2.2306,2.176,2.1355,2.0999,1.9447,1.9185,2.0792,0.0,0.0,2.0128,2.0261,1.9339,1.7305,1.7674,1.7569,1.7094,1.6258,1.5891,1.5891,1.5891,1.5891,1.5891,1.5779,1.5137,1.411,1.2906,1.2526,1.2752,1.2659,1.2838,1.317,1.3073,1.2395,1.1543,3.4399,3.421,3.4214,3.4469,3.4169,3.4182,3.4958,3.4651,3.4346,3.4514,3.4143,3.3871,3.3871,3.5388,3.5913,3.471,3.6591,3.7433,3.6478,3.6441,3.6766,3.7587,3.6387,3.6097,3.6897,3.6017,3.5602,3.5602,3.5602,3.5602,3.5548,3.4827,3.3254,3.0944,2.9463,2.8803,2.8803,2.8803,2.8803,2.8803,2.8803,2.8803,2.8803,2.8803,2.8803,2.8606,2.703,2.6781,2.6924,2.5392,2.4587,2.4202,2.4202,2.4202,2.4202,2.4202,2.4202,2.4202,2.4202,2.4202,2.4202,2.4202,2.4202,2.4202,2.4202,2.4202,2.4202,2.4202,2.4202,2.444,2.5148,2.5674,2.6254,2.702,2.7552,2.7647,2.6962,2.7115,2.6819,2.5489,2.5478,2.5121,2.395,2.2993,2.2403,2.2211,2.0594,2.0263,2.1779,0.0,0.0,2.1481,0.0,2.103,1.9679,1.922,1.8753,1.8394,1.7246,1.6677,1.6677,1.6152,1.5891,1.5891,1.5891,1.5624,1.5202,1.4853,1.4801,1.4861,1.4421,1.4359,1.4417,1.3785,1.3406,1.3057,3.4084,3.3951,3.4096,3.4719,3.4495,3.4561,3.5619,3.5352,3.5175,3.5721,3.532,3.4912,3.4647,3.6048,3.658,3.5443,3.7329,3.8222,3.7305,3.7256,3.7625,3.8399,3.6908,3.6441,3.7232,3.6243,3.5669,3.5602,3.5669,3.5548,3.5304,3.3704,3.2091,3.0429,2.9336,2.8803,2.8803,2.8803,2.8803,2.8803,2.8803,2.8803,2.8803,2.8803,2.8803,2.8606,2.7315,2.7163,2.7352,2.5819,2.4962,2.4529,2.4529,2.439,2.4202,2.4202,2.4202,2.4202,2.4202,2.4202,2.4202,2.4202,2.4202,2.4202,2.4202,2.4202,2.4202,2.4202,2.439,2.4775,2.5489,2.6302,2.7067,2.7835,2.842,2.8606,2.8023,2.8279,2.8045,2.6771,2.6904,2.6655,2.5509,2.4592,2.3863,2.3466,2.2335,2.2019,2.2802,0.0,0.0,0.0,0.0,0.0,2.1285,2.0656,2.0092,1.9591,1.8342,1.7562,1.7147,1.6311,1.5891,1.5891,1.5891,1.594,1.6024,1.6205,1.6374,1.65,1.596,1.5795,1.5815,1.5096,1.4728,1.454,3.3834,3.3943,3.4206,3.4612,3.5236,3.5888,3.6584,3.6693,3.6677,3.6693,3.6693,3.6352,3.5464,3.7225,3.7849,3.6306,3.81,3.8964,3.8138,3.8101,3.8436,3.9233,3.7753,3.7256,3.8063,3.6531,3.5602,3.5399,3.5602,3.5263,3.4356,3.2234,3.1223,3.1134,2.9498,2.8803,2.8803,2.8803,2.8803,2.8803,2.8803,2.8803,2.8803,2.8803,2.8803,2.8699,2.7882,2.7589,2.7352,2.5819,2.5294,2.5294,2.5294,2.4775,2.4202,2.4202,2.4202,2.4202,2.4202,2.4202,2.4202,2.4202,2.4202,2.4202,2.4202,2.4202,2.4202,2.4202,2.4775,2.5538,2.636,2.7067,2.7825,2.8653,0.0,2.8803,2.8803,2.8803,2.8803,2.8757,2.8757,2.8258,2.6931,2.6778,2.6194,2.4876,2.4769,2.4445,2.3732,2.2911,0.0,2.3182,2.3244,0.0,2.1336,2.1836,2.154,2.0483,1.9591,1.8499,1.7147,1.6311,1.5891,1.5891,1.5891,1.6048,1.6302,1.6284,1.6598,1.708,1.7092,1.7249,1.7479,1.7479,1.6815,1.6026,3.3487,3.3803,3.4277,3.4854,3.5486,3.6144,3.6799,3.6908,3.6862,3.6723,3.6693,3.6554,3.6179,3.7563,3.808,3.702,3.8887,3.9763,3.8964,3.8928,3.9269,4.0076,3.8561,3.7852,3.8101,3.7063,3.6217,3.5602,3.5669,3.4909,3.342,3.2766,3.1577,3.0011,2.952,2.9128,2.8803,2.8803,2.8803,2.8803,2.8803,2.8803,2.8803,2.8803,2.8803,2.8699,2.7882,2.7977,2.8269,2.721,2.6542,2.6119,2.6119,2.5255,2.4202,2.4202,2.4202,2.4202,2.4202,2.4202,2.4202,2.4202,2.4202,2.4202,2.4202,2.4202,2.4202,2.4202,2.4775,2.5538,2.636,2.7115,2.7882,2.8653,2.8803,2.8803,2.8803,2.8803,2.8803,2.8803,2.8803,2.8653,2.8211,2.7321,2.6635,2.6194,2.5315,2.4681,2.4445,0.0,0.0,0.0,2.4295,0.0,2.2669,2.2459,2.2215,2.1861,2.0277,1.899,1.7996,1.7733,1.7312,1.6783,1.6783,1.6627,1.6308,1.6489,1.6773,1.7111,1.7286,1.7406,1.7543,1.7784,1.7772,1.7578,3.3678,3.4317,3.4987,3.5433,3.6023,3.6574,3.7012,3.7075,3.7029,3.6892,3.6892,3.6816,3.66,3.7557,3.8085,3.7767,3.9451,4.0301,3.9763,3.9763,3.9955,4.0489,3.9233,3.8399,3.8101,3.7295,3.652,3.571,3.5467,3.462,3.3262,3.2821,3.1689,3.0034,2.9852,2.9577,2.9301,2.9117,2.9071,2.9024,2.8896,2.8803,2.8803,2.8803,2.8803,2.8746,2.8222,2.8362,2.8699,2.7882,2.7305,2.6877,2.66,2.5635,2.4578,2.4301,2.4202,2.4202,2.4202,2.4202,2.4202,2.4202,2.4251,2.4291,2.4291,2.4291,2.4301,2.4202,2.502,2.5926,2.6408,2.7363,2.8222,2.871,2.8803,2.8803,2.8803,2.8803,2.8803,2.8803,2.8803,2.8803,2.8803,2.806,2.7568,2.7568,2.6788,2.629,0.0,0.0,2.5548,2.5198,2.5226,2.4903,2.4066,2.322,2.2677,2.2476,2.0593,1.9413,1.8893,1.8527,1.8153,1.7687,1.7788,1.7681,1.7437,1.7781,1.7843,1.7827,1.8048,1.8006,1.7726,1.8018,1.8369,1.8473,3.4335,3.5289,3.6146,3.6266,3.6814,3.7224,3.7224,3.7224,3.7224,3.7194,3.7194,3.7074,3.6754,3.7328,3.7946,3.8479,3.9708,4.0443,4.0489,4.0489,4.0489,4.0489,3.9763,3.8979,3.8138,3.7372,3.6545,3.571,3.5087,3.4384,3.367,3.263,3.1681,3.0904,3.0442,3.0216,3.017,2.9715,2.9531,2.9531,2.9071,2.8896,2.885,2.885,2.885,2.885,2.8803,2.8803,2.8746,2.793,2.7636,2.7494,2.6781,2.5974,2.5157,2.4489,2.4251,2.4202,2.4202,2.4202,2.4202,2.4202,2.439,2.4538,2.4538,2.4538,2.4489,2.4301,2.545,2.6552,2.6552,2.7752,2.8803,2.8803,2.8803,2.8803,2.8803,2.8803,2.8803,2.8803,2.8803,2.8803,2.8803,2.8803,2.8803,2.8803,2.8803,2.8803,0.0,0.0,2.6426,2.7542,2.6205,2.5382,2.5294,2.3967,2.3029,2.2375,2.0601,1.9783,1.9783,1.8945,1.8527,1.8489,1.8837,1.9099,1.9312,1.9717,1.9571,1.9107,1.9325,1.8926,1.8311,1.859,1.8816,1.9049,3.494,3.5582,3.6292,3.6941,3.7265,3.7435,3.7435,3.7435,3.7359,3.7224,3.7194,3.7134,3.6938,3.7515,3.8199,3.8821,3.9395,3.9936,4.0459,4.0489,4.0489,4.0489,4.0301,3.9535,3.8138,3.7913,3.7141,3.571,3.5548,3.484,3.367,3.3416,3.2413,3.0904,3.0758,3.0532,3.017,3.008,3.0034,3.0034,2.9897,2.9669,2.9347,2.9347,2.9347,2.9301,2.8943,2.9035,2.9255,2.8699,2.8117,2.7589,2.74,2.6398,2.5294,2.5099,2.4627,2.4202,2.4202,2.4202,2.4251,2.439,2.4637,2.4784,2.4784,2.4784,2.4784,2.4735,2.5849,2.6812,2.6812,2.7893,2.8803,2.8803,2.8803,2.8803,2.8803,2.8803,2.8803,2.8803,2.8803,2.8803,2.8803,2.8803,2.8803,0.0,2.8803,2.8803,2.8803,2.8315,2.793,2.7589,2.7258,2.6494,2.5294,2.4146,2.2811,2.1267,2.0814,2.0609,2.0609,2.0403,1.999,1.9435,1.976,1.9654,1.9312,1.9717,2.0182,2.0565,2.0673,2.0845,2.1073,2.1415,2.1023,2.0293,3.5974,3.6774,3.7456,3.7708,3.7814,3.7786,3.7524,3.751,3.7464,3.7359,3.7329,3.727,3.7105,3.7403,3.7997,3.8918,3.9404,3.9918,4.0581,4.0558,4.0489,4.0489,4.0489,3.9743,3.8138,3.8101,3.7319,3.571,3.571,3.5182,3.4134,3.3839,3.2988,3.1693,3.1395,3.1128,3.0847,3.0623,3.0532,3.0487,3.0306,3.0034,2.9806,2.9806,2.9806,2.9806,2.9531,2.9577,2.976,2.9531,2.9152,2.876,2.8538,2.7389,2.6147,2.6071,2.5206,2.4341,2.4341,2.444,2.4587,2.4784,2.4981,2.5088,2.5088,2.5088,2.5039,2.4932,2.6129,2.722,2.722,2.8456,2.9439,2.9439,2.9439,2.9347,2.9163,2.9117,2.9035,2.885,2.8803,2.8803,2.8803,2.8803,2.8803,2.8803,2.8803,0.0,2.8803,2.8803,2.8606,2.8164,2.7788,2.72,2.635,2.4571,2.3003,2.1623,2.1121,2.0925,2.0925,2.0925,2.066,2.0279,2.1088,2.1079,2.0627,2.1708,2.1999,2.1764,2.2217,2.2322,2.2258,2.2605,2.2338,2.1771,3.7086,3.8086,3.8816,3.8498,3.8362,3.8112,3.7583,3.751,3.751,3.751,3.751,3.7435,3.7254,3.7254,3.7712,3.8842,3.9413,4.0026,4.0752,4.0627,4.0489,4.0489,4.0489,3.9743,3.8138,3.7875,3.7063,3.571,3.571,3.5345,3.4675,3.4134,3.3416,3.268,3.2101,3.1793,3.1661,3.1205,3.1038,3.0994,3.0578,3.0397,3.0306,3.0306,3.0306,3.0306,3.0216,3.0261,3.0306,3.0216,3.0216,3.0125,2.9715,2.862,2.7426,2.7078,2.5974,2.4824,2.4627,2.4784,2.503,2.5235,2.5333,2.5333,2.5333,2.5333,2.5284,2.5088,2.6322,2.7505,2.7636,2.891,3.0034,3.017,3.0216,3.008,2.9669,0.0,2.9347,2.8932,2.885,2.8803,2.8803,2.8803,2.8803,2.8803,2.8803,2.8803,2.8803,2.8803,2.8803,2.8803,2.8128,2.7683,2.7437,2.511,2.3452,2.2476,2.1573,2.107,2.0925,2.0925,2.0948,2.1036,2.2262,2.2527,2.2363,2.4001,2.3991,2.3079,2.388,2.3751,2.3167,2.3416,2.3432,2.3263,3.7642,3.8331,3.8916,3.903,3.8629,3.8112,3.7583,3.751,3.751,3.751,3.751,3.748,3.7464,3.7435,3.7766,3.851,3.9062,3.9777,4.0755,4.0627,4.0489,4.0489,4.0489,3.9743,3.8138,3.6766,3.5937,3.571,3.571,3.5345,3.4716,3.4592,3.3882,3.2711,3.2581,3.2232,3.1705,3.1617,3.1572,3.1572,3.1484,3.1217,3.0814,3.0814,3.0814,3.0758,3.0352,3.0442,3.0713,3.0352,3.0216,3.017,3.0125,2.9509,2.8609,2.7731,2.6972,2.6215,2.5118,2.503,2.5235,2.5284,2.5489,2.5635,2.5635,2.5635,2.5635,2.5586,2.6159,2.6918,2.7799,2.8491,2.9187,3.008,3.0216,3.017,3.008,0.0,2.9485,2.9393,2.9035,2.8803,2.8803,2.8803,2.8803,2.8803,2.8803,2.8803,2.8803,2.8803,2.8803,2.8803,2.8699,2.7977,2.6617,2.5567,2.4205,2.2476,2.2325,2.1776,2.0925,2.0925,2.1032,2.1341,2.1889,2.2565,2.3209,2.3795,2.4518,2.5229,2.5348,2.5624,2.5962,2.6017,2.5404,2.4501,3.8739,3.944,3.9902,3.9672,3.9146,3.8574,3.8014,3.7685,3.751,3.751,3.751,3.751,3.751,3.751,3.7765,3.8444,3.8637,3.925,4.0448,4.0631,4.0627,4.0489,4.0489,3.9743,3.8138,3.6531,3.571,3.571,3.571,3.5548,3.5209,3.4881,3.4176,3.3215,3.2884,3.232,3.1705,3.1705,3.1705,3.1705,3.1705,3.1528,3.135,3.135,3.135,3.1306,3.1071,3.1172,3.1306,3.1083,3.1026,3.0949,3.0668,3.0057,2.9349,2.8817,2.7352,2.5897,2.543,2.544,2.5538,2.5538,2.5586,2.5693,2.5693,2.5693,2.5868,2.6418,2.6696,2.7352,2.8888,2.9349,2.9818,3.0847,3.1026,3.0892,3.0623,3.0397,3.017,2.9897,2.9439,2.9163,2.9163,2.9428,2.9555,2.9555,3.0034,3.0079,2.96,2.9555,2.9336,2.8803,2.8803,2.8315,2.7258,2.634,2.5324,2.4214,2.366,2.3103,2.2601,2.2601,2.2867,2.3246,2.3267,2.3702,2.4356,2.4696,2.5191,2.5743,2.6081,2.6364,2.6591,2.6591,2.6254,2.5798,3.956,4.0359,4.071,4.012,3.9662,3.9146,3.8418,3.7956,3.7626,3.751,3.751,3.751,3.751,3.751,3.7701,3.8223,3.8275,3.878,3.9989,4.0446,4.0662,4.0558,4.0335,3.9478,3.7852,3.661,3.5911,3.571,3.571,3.571,3.5669,3.5168,3.4592,3.3924,3.3373,3.2785,3.2133,3.2013,3.1925,3.1925,3.1749,3.1705,3.1705,3.1705,3.1705,3.1705,3.1705,3.1705,3.1705,3.1705,3.1705,3.1617,3.1217,3.0701,3.0181,2.9795,2.7778,2.5761,2.5732,2.5693,2.5693,2.5693,2.5693,2.5693,2.5693,2.5693,2.6014,2.701,2.7189,2.7793,2.9841,3.0215,3.0543,3.1528,0.0,3.1572,3.1128,3.0994,3.0713,3.0261,2.9806,2.9531,2.9658,3.0,3.0306,3.0519,3.1178,3.1267,3.0564,3.0519,3.0215,2.9463,2.9024,2.8571,2.8092,2.721,2.6446,2.5781,2.4884,2.4344,2.4088,2.4088,2.4413,2.4909,2.4401,2.4651,2.5451,2.5491,2.5688,2.5971,2.6418,2.6591,2.6591,2.6591,2.6591,2.6591,3.956,4.0359,4.071,4.012,3.9978,3.9577,3.8474,3.8266,3.8055,3.7553,3.751,3.751,3.751,3.751,3.7526,3.7589,3.8144,3.8731,3.9329,3.9972,4.0466,4.0768,3.9869,3.8649,3.7,3.6858,3.6441,3.571,3.571,3.571,3.571,3.5642,3.5263,3.4634,3.4592,3.4176,3.3501,3.2871,3.2624,3.2581,3.1969,3.1705,3.1705,3.1705,3.1705,3.1705,3.1705,3.1705,3.1705,3.1705,3.1705,3.1705,3.1661,3.1617,3.1383,3.0407,2.868,2.6867,2.5965,2.5693,2.5693,2.5693,2.5693,2.5693,2.5693,2.5693,2.6014,2.701,2.7189,2.7793,2.9841,3.0215,3.0543,3.1528,0.0,0.0,3.1661,3.1217,3.0713,3.0261,2.9806,2.9658,3.0125,3.017,3.0564,3.1444,3.1577,3.1577,3.1488,3.1488,3.1444,3.14,2.9726,2.8664,2.8395,2.8045,2.7268,2.6051,2.5732,2.5041,2.4088,2.4088,2.4519,2.521,2.4149,2.4694,2.6318,2.5267,2.5514,2.6537,2.6591,2.6591,2.6591,2.6591,2.6591,2.6591,4.0204,4.0705,4.0823,4.0597,4.0245,3.9834,3.9404,3.8734,3.8238,3.8014,3.7714,3.751,3.751,3.751,3.751,3.751,3.7717,3.8129,3.8778,3.9361,4.0014,4.0786,3.9834,3.8782,3.7663,3.7155,3.652,3.571,3.571,3.571,3.571,3.571,3.5345,3.4716,3.4716,3.4092,3.3043,3.2797,3.2711,3.2624,3.1969,3.1969,3.2276,3.1837,3.1705,3.1705,3.1705,3.1705,3.1705,3.1705,3.1705,3.1705,3.1705,3.1705,3.1516,3.0498,2.9235,2.7887,2.6924,2.6187,2.5693,2.5693,2.5693,2.5693,2.5693,2.5693,2.6014,2.701,2.6686,2.7067,2.9704,2.9704,2.9795,3.1427,0.0,3.1705,3.1705,3.1528,3.1217,3.0668,3.0746,3.0779,3.0666,3.14,3.2059,3.2463,3.3023,3.3079,3.2494,3.1928,3.1621,3.1621,3.08,2.9909,2.9026,2.8351,2.761,2.6849,2.6716,2.6466,2.6071,2.6071,2.6547,2.7268,2.633,2.6807,2.8295,2.7321,2.7375,2.8155,2.8155,2.8155,2.8101,2.752,2.7682,2.7994,4.0601,4.0912,4.0912,4.0912,4.0549,4.022,4.0028,3.9325,3.8723,3.8351,3.7985,3.7685,3.751,3.751,3.751,3.751,3.751,3.7765,3.8476,3.9204,3.9854,4.0397,3.9713,3.8833,3.7738,3.7179,3.652,3.571,3.571,3.571,3.571,3.571,3.5467,3.5005,3.5005,3.4509,3.3628,3.3428,3.3343,3.3258,3.2612,3.2612,3.2957,3.2481,3.2307,3.2307,3.2307,3.2176,3.2013,3.2013,3.1881,3.1705,3.1705,3.1705,3.156,3.0869,2.9977,2.8958,2.7934,2.6924,2.61,2.5781,2.5693,2.5693,2.5693,2.5693,2.6014,2.701,2.6638,2.6887,2.9292,2.9418,2.9601,3.1003,3.1472,3.1705,3.1705,3.1705,3.1484,3.0949,3.1371,3.1625,3.1335,3.242,3.3194,3.342,3.405,3.4134,3.3475,3.2852,3.2463,3.2376,3.2123,3.1484,3.0468,2.9335,2.8707,2.8589,2.8174,2.8058,2.8184,2.7869,2.81,2.8774,2.7893,2.8253,2.9418,2.8489,2.8489,2.9092,2.8986,2.9039,2.9029,2.8455,2.8562,2.8933,4.0601,4.0912,4.0912,4.0912,4.0912,4.071,4.0095,4.0003,3.9603,3.8474,3.8322,3.8112,3.7553,3.751,3.751,3.751,3.751,3.7765,3.8476,3.9629,4.0091,3.9617,3.9412,3.8539,3.6936,3.6897,3.652,3.571,3.571,3.571,3.571,3.571,3.571,3.571,3.571,3.571,3.5642,3.4964,3.4716,3.4634,3.3966,3.3713,3.3713,3.3713,3.3713,3.3713,3.3713,3.3258,3.2711,3.2711,3.2232,3.1705,3.1705,3.1705,3.1705,3.1705,3.1003,2.9977,2.8958,2.7981,2.6962,2.5965,2.5693,2.5693,2.5693,2.5693,2.5955,2.6962,2.7189,2.751,2.8495,2.951,3.017,3.0215,3.1048,3.1705,3.1705,3.1705,3.1484,3.0949,3.1548,3.2108,3.2271,3.2925,3.3619,3.4356,3.4397,3.4397,3.4397,3.4397,3.4327,3.4131,3.3745,3.3316,3.2836,3.1307,3.0822,3.139,3.0061,2.9685,3.0171,2.9084,2.8866,2.9301,2.8396,2.8585,2.9418,2.8276,2.8329,2.9092,2.8837,2.889,2.9144,2.9081,2.9081,2.9144,4.0625,4.0912,4.0912,4.0912,4.0912,4.0847,4.0662,4.0269,3.9876,3.9551,3.8789,3.8238,3.8084,3.7743,3.751,3.751,3.751,3.7765,3.8476,3.8387,3.8797,3.9843,3.9631,3.8694,3.6936,3.6897,3.652,3.571,3.571,3.571,3.571,3.571,3.571,3.571,3.571,3.5426,3.5005,3.4799,3.4716,3.4634,3.3966,3.3966,3.4343,3.3882,3.3713,3.3713,3.3713,3.3258,3.2711,3.2711,3.2232,3.1705,3.1705,3.1705,3.1705,3.1705,3.1003,2.9977,2.8958,2.7981,2.6962,2.5965,2.5693,2.5693,2.5693,2.5693,2.5781,2.61,2.6149,2.6466,2.7463,2.8484,2.9372,3.0079,3.1048,3.1705,3.1705,3.1705,3.1484,3.0949,3.212,3.2815,3.2345,3.3518,3.4356,3.4397,3.4397,3.4397,3.4397,3.4803,3.494,3.4671,3.4778,3.4685,3.443,3.2608,3.1681,3.1703,3.1266,3.1145,3.1329,3.1004,3.108,3.1511,3.0665,3.0694,3.1187,3.0266,3.0172,3.0588,3.0484,3.063,3.0785,3.0214,3.037,3.0671,4.0625,4.0935,4.0959,4.0912,4.0912,4.0912,4.0912,4.0597,4.0269,4.0028,3.9209,3.8574,3.8351,3.7815,3.751,3.751,3.751,3.7654,3.8081,3.7981,3.8039,3.8302,3.8617,3.8355,3.7396,3.6741,3.6177,3.571,3.571,3.571,3.571,3.571,3.571,3.571,3.571,3.5467,3.5087,3.5087,3.5087,3.5046,3.4634,3.4716,3.5046,3.4634,3.4509,3.4509,3.4509,3.405,3.3458,3.3172,3.2481,3.1705,3.1705,3.1705,3.1705,3.1705,3.1294,3.0588,2.9567,2.8866,2.8028,2.6648,2.6004,2.5693,2.5693,2.5693,2.5693,2.5693,2.5693,2.5868,2.6504,2.7426,2.8308,2.8912,3.017,3.1104,3.1104,3.1427,3.1572,3.1261,3.2351,3.3,3.276,3.381,3.4494,3.4397,3.462,3.4763,3.4763,3.5299,3.544,3.5092,3.5513,3.5596,3.5234,3.4684,3.4009,3.3266,3.2889,3.2794,3.2945,3.2572,3.2492,3.2741,3.2347,3.2379,3.2611,3.2218,3.1964,3.1823,3.1823,3.1721,3.1516,3.1054,3.1157,3.1465,4.0585,4.0971,4.1047,4.0935,4.0912,4.0912,4.0912,4.0912,4.071,4.017,3.9558,3.9001,3.8435,3.7857,3.751,3.751,3.751,3.751,3.751,3.8035,3.7638,3.5978,3.684,3.7579,3.8036,3.6503,3.571,3.571,3.571,3.571,3.571,3.571,3.571,3.571,3.571,3.571,3.571,3.571,3.571,3.571,3.571,3.571,3.571,3.571,3.571,3.571,3.571,3.5263,3.4592,3.3924,3.2871,3.1793,3.1793,3.1749,3.1705,3.1705,3.1705,3.1472,3.0351,3.0125,2.9704,2.7615,2.6466,2.583,2.5732,2.5693,2.5693,2.5693,2.5693,2.5693,2.5693,2.6504,2.7189,2.7189,2.8912,3.0215,3.0215,3.1059,3.1705,3.1705,3.2276,3.2884,3.3356,3.3865,3.4269,3.4476,3.4986,3.5312,3.5365,3.5887,3.5968,3.5507,3.6058,3.6169,3.5756,3.7103,3.7103,3.5697,3.4787,3.4593,3.5017,3.3993,3.3499,3.3499,3.3648,3.3697,3.3747,3.3883,3.3549,3.2912,3.2951,3.251,3.1874,3.1874,3.1874,3.1874,4.0115,4.0724,4.1093,4.1047,4.0959,4.0912,4.0912,4.0912,4.0847,4.071,3.9833,3.9152,3.9028,3.8087,3.751,3.751,3.751,3.751,3.751,3.723,3.725,3.7653,3.6245,3.6114,3.7529,3.6334,3.571,3.571,3.571,3.571,3.571,3.571,3.571,3.571,3.571,3.571,3.571,3.571,3.571,3.571,3.571,3.571,3.571,3.571,3.571,3.571,3.571,3.5263,3.4592,3.3924,3.3172,3.2494,3.2494,3.2101,3.1705,3.1705,3.1705,3.1294,2.951,2.9612,2.9521,2.6696,2.6466,2.6696,2.5868,2.5693,2.5693,2.5693,2.5693,2.5693,2.5693,2.6504,2.7189,2.7189,2.8912,3.0215,3.0215,3.1059,3.1705,3.1705,3.2276,3.2884,3.3356,3.416,3.4816,3.5305,3.5306,3.5482,3.59,3.6488,3.6668,3.6341,3.6726,3.716,3.7606,3.7756,3.7606,3.7305,3.7062,3.7034,3.7103,3.6131,3.5715,3.5667,3.4872,3.4532,3.4483,3.3909,3.3723,3.3747,3.392,3.4019,3.4091,3.4091,3.4091,3.4091,3.9904,4.0376,4.0706,4.1041,4.1,4.0912,4.0912,4.0912,4.0799,4.0524,3.9714,3.9082,3.8794,3.8001,3.751,3.751,3.751,3.751,3.751,3.7225,3.7108,3.7188,3.6163,3.5853,3.6491,3.625,3.6006,3.571,3.571,3.571,3.571,3.571,3.571,3.571,3.571,3.571,3.571,3.571,3.571,3.571,3.571,3.571,3.571,3.571,3.571,3.571,3.571,3.5263,3.4634,3.4301,3.3501,3.2711,3.2711,3.2232,3.1705,3.1705,3.1705,3.1472,3.0407,3.0543,3.0317,2.7767,2.7531,2.7521,2.6062,2.5693,2.5693,2.5693,2.5693,2.5693,2.5693,2.6139,2.6456,2.6456,2.8168,2.9464,2.9464,3.0767,3.1705,3.1705,3.2013,3.2537,3.3313,3.4575,3.5423,3.56,3.5926,3.6227,3.6515,3.7103,3.7293,3.7039,3.7199,3.7618,3.8368,3.8096,3.8445,3.9312,3.8734,3.8464,3.8464,3.7965,3.7736,3.7691,3.7145,3.6934,3.7001,3.6743,3.6194,3.5616,3.5829,3.5485,3.4775,3.4775,3.4775,3.4775,3.9534,3.9961,4.0299,4.0845,4.0943,4.0918,4.0776,4.0776,4.0573,3.9927,3.9401,3.8865,3.8334,3.7815,3.751,3.751,3.751,3.751,3.751,3.751,3.7164,3.6368,3.622,3.5986,3.5649,3.6013,3.614,3.5933,3.6029,3.6057,3.5911,3.5911,3.5831,3.571,3.571,3.571,3.571,3.571,3.571,3.571,3.571,3.571,3.571,3.571,3.571,3.571,3.571,3.5345,3.4881,3.4881,3.405,3.3,3.2927,3.2407,3.1837,3.1749,3.1705,3.1661,3.1472,3.1572,3.1193,2.9004,2.8577,2.8168,2.6149,2.5693,2.5693,2.5693,2.5693,2.5693,2.5693,2.5693,2.5693,2.5693,2.7389,2.868,2.868,3.0453,3.1705,3.1705,3.1998,3.2574,3.3495,3.5119,3.6066,3.596,3.6652,3.7095,3.7155,3.7639,3.7808,3.7564,3.7505,3.7926,3.8823,3.8445,3.9282,4.1296,4.013,3.9505,3.9417,3.9285,3.921,3.921,3.921,3.9316,3.9508,3.9798,3.9067,3.7814,3.8087,3.7219,3.5784,3.5784,3.5701,3.5558,3.8333,3.9406,4.0258,4.0247,4.0746,4.0913,4.0245,4.0228,4.0078,3.9401,3.8794,3.839,3.8322,3.7815,3.751,3.751,3.751,3.751,3.751,3.751,3.7435,3.73,3.6162,3.5723,3.619,3.5258,3.5494,3.6905,3.7489,3.7434,3.6741,3.6741,3.6362,3.571,3.571,3.571,3.571,3.571,3.571,3.571,3.571,3.571,3.571,3.571,3.571,3.571,3.571,3.5629,3.5548,3.5548,3.5046,3.4343,3.3755,3.3086,3.245,3.1881,3.1705,3.1528,3.0633,3.1048,3.1003,2.8111,2.8075,2.8168,2.6149,2.5693,2.5693,2.5693,2.5693,2.5693,2.5693,2.5693,2.5693,2.5693,2.7389,2.868,2.868,3.0453,3.1705,3.1705,3.3183,3.427,3.4443,3.6023,3.711,3.7413,3.7378,3.7472,3.7756,3.7861,3.79,3.7854,3.7611,3.8336,4.0027,3.9002,3.9812,4.2444,4.1463,4.0817,4.0375,3.9549,3.921,3.921,3.921,3.9316,3.9508,3.9798,3.9871,3.983,4.0088,4.0045,3.9828,3.9828,3.9302,3.8604,3.8023,3.8587,3.9272,4.0062,4.0413,4.0493,4.016,4.0161,3.9843,3.8849,3.8463,3.8181,3.7886,3.7373,3.7165,3.748,3.7225,3.7059,3.7059,3.7059,3.6938,3.6631,3.5769,3.5484,3.5964,3.5505,3.5933,3.727,3.6926,3.7025,3.7548,3.7116,3.6702,3.6362,3.6362,3.6137,3.571,3.571,3.571,3.571,3.571,3.571,3.571,3.571,3.571,3.571,3.571,3.571,3.571,3.571,3.525,3.4592,3.3924,3.3258,3.2593,3.1881,3.1705,3.1617,3.1149,3.1383,3.1104,2.8634,2.8355,2.8168,2.6149,2.5693,2.5693,2.5693,2.5693,2.5693,2.5693,2.5693,2.5693,2.5693,2.7389,2.868,2.868,3.0453,3.1825,3.2094,3.3589,3.4717,3.5025,3.666,3.7705,3.771,3.7806,3.7885,3.7887,3.79,3.79,3.79,3.7808,3.8349,3.9664,3.8535,3.9104,4.1366,4.026,4.0461,4.1769,4.1338,4.1169,4.1169,4.1169,4.1267,4.1462,4.156,4.1449,4.1225,4.1338,4.1071,4.0603,4.0603,4.0332,3.9986]}]]